<?xml version="1.0" encoding="UTF-8" standalone="no" ?>
<gpx xmlns="http://www.topografix.com/GPX/1/1" xmlns:xsi="http://www.w3.org/2001/XMLSchema-instance" xsi:schemaLocation="http://www.topografix.com/GPX/1/1 http://www.topografix.com/GPX/1/1/gpx.xsd" version="1.1" creator="VisuGPX - https://www.visugpx.com">
  <metadata>
    <name>ski rando Les Tetes Belledonne</name>
    <desc><![CDATA[
]]></desc>
  </metadata>
  <trk>
    <name><![CDATA[ski rando Les Tetes Belledonne]]></name>
    <trkseg>
      <trkpt lat="45.28389" lon="6.21055">
        <ele>1172.5999755859</ele>
        <time>2012-12-19T08:11:35.000Z</time>
      </trkpt>
      <trkpt lat="45.2839" lon="6.21055">
        <ele>1172.5999755859</ele>
        <time>2012-12-19T08:11:36.000Z</time>
      </trkpt>
      <trkpt lat="45.28392" lon="6.21046">
        <ele>1170.5999755859</ele>
        <time>2012-12-19T08:13:08.000Z</time>
      </trkpt>
      <trkpt lat="45.28392" lon="6.21045">
        <ele>1172.1999511719</ele>
        <time>2012-12-19T08:13:09.000Z</time>
      </trkpt>
      <trkpt lat="45.28393" lon="6.21043">
        <ele>1172.8000488281</ele>
        <time>2012-12-19T08:13:11.000Z</time>
      </trkpt>
      <trkpt lat="45.28394" lon="6.21042">
        <ele>1173</ele>
        <time>2012-12-19T08:13:14.000Z</time>
      </trkpt>
      <trkpt lat="45.28397" lon="6.21041">
        <ele>1173.1999511719</ele>
        <time>2012-12-19T08:13:18.000Z</time>
      </trkpt>
      <trkpt lat="45.28397" lon="6.21041">
        <ele>1174</ele>
        <time>2012-12-19T08:13:19.000Z</time>
      </trkpt>
      <trkpt lat="45.28399" lon="6.21043">
        <ele>1174.1999511719</ele>
        <time>2012-12-19T08:13:22.000Z</time>
      </trkpt>
      <trkpt lat="45.28402" lon="6.21042">
        <ele>1173.1999511719</ele>
        <time>2012-12-19T08:13:28.000Z</time>
      </trkpt>
      <trkpt lat="45.28401" lon="6.21034">
        <ele>1176.5999755859</ele>
        <time>2012-12-19T08:13:36.000Z</time>
      </trkpt>
      <trkpt lat="45.28401" lon="6.21032">
        <ele>1177</ele>
        <time>2012-12-19T08:13:38.000Z</time>
      </trkpt>
      <trkpt lat="45.28396" lon="6.21025">
        <ele>1179.1999511719</ele>
        <time>2012-12-19T08:13:46.000Z</time>
      </trkpt>
      <trkpt lat="45.28396" lon="6.2102">
        <ele>1177.8000488281</ele>
        <time>2012-12-19T08:13:49.000Z</time>
      </trkpt>
      <trkpt lat="45.28395" lon="6.21016">
        <ele>1178.8000488281</ele>
        <time>2012-12-19T08:13:52.000Z</time>
      </trkpt>
      <trkpt lat="45.28394" lon="6.21012">
        <ele>1179</ele>
        <time>2012-12-19T08:13:55.000Z</time>
      </trkpt>
      <trkpt lat="45.28389" lon="6.21001">
        <ele>1180.8000488281</ele>
        <time>2012-12-19T08:14:03.000Z</time>
      </trkpt>
      <trkpt lat="45.28386" lon="6.20995">
        <ele>1179.5999755859</ele>
        <time>2012-12-19T08:14:07.000Z</time>
      </trkpt>
      <trkpt lat="45.28384" lon="6.20989">
        <ele>1181.8000488281</ele>
        <time>2012-12-19T08:14:11.000Z</time>
      </trkpt>
      <trkpt lat="45.28383" lon="6.20978">
        <ele>1182.5999755859</ele>
        <time>2012-12-19T08:14:19.000Z</time>
      </trkpt>
      <trkpt lat="45.28382" lon="6.20969">
        <ele>1183.4000244141</ele>
        <time>2012-12-19T08:14:27.000Z</time>
      </trkpt>
      <trkpt lat="45.28379" lon="6.2096">
        <ele>1183.8000488281</ele>
        <time>2012-12-19T08:14:35.000Z</time>
      </trkpt>
      <trkpt lat="45.28375" lon="6.20951">
        <ele>1185.8000488281</ele>
        <time>2012-12-19T08:14:44.000Z</time>
      </trkpt>
      <trkpt lat="45.28375" lon="6.2095">
        <ele>1186.5999755859</ele>
        <time>2012-12-19T08:14:45.000Z</time>
      </trkpt>
      <trkpt lat="45.28374" lon="6.20947">
        <ele>1187</ele>
        <time>2012-12-19T08:14:49.000Z</time>
      </trkpt>
      <trkpt lat="45.28374" lon="6.20942">
        <ele>1186.4000244141</ele>
        <time>2012-12-19T08:15:06.000Z</time>
      </trkpt>
      <trkpt lat="45.28373" lon="6.20938">
        <ele>1187.1999511719</ele>
        <time>2012-12-19T08:16:01.000Z</time>
      </trkpt>
      <trkpt lat="45.2837" lon="6.20938">
        <ele>1187.4000244141</ele>
        <time>2012-12-19T08:16:05.000Z</time>
      </trkpt>
      <trkpt lat="45.28368" lon="6.20932">
        <ele>1188.1999511719</ele>
        <time>2012-12-19T08:16:27.000Z</time>
      </trkpt>
      <trkpt lat="45.28366" lon="6.2093">
        <ele>1188.1999511719</ele>
        <time>2012-12-19T08:16:33.000Z</time>
      </trkpt>
      <trkpt lat="45.28362" lon="6.20924">
        <ele>1189.1999511719</ele>
        <time>2012-12-19T08:16:41.000Z</time>
      </trkpt>
      <trkpt lat="45.28359" lon="6.20918">
        <ele>1190.1999511719</ele>
        <time>2012-12-19T08:16:49.000Z</time>
      </trkpt>
      <trkpt lat="45.28357" lon="6.2091">
        <ele>1192</ele>
        <time>2012-12-19T08:16:57.000Z</time>
      </trkpt>
      <trkpt lat="45.28355" lon="6.209">
        <ele>1192.5999755859</ele>
        <time>2012-12-19T08:17:06.000Z</time>
      </trkpt>
      <trkpt lat="45.28354" lon="6.20893">
        <ele>1193.4000244141</ele>
        <time>2012-12-19T08:17:14.000Z</time>
      </trkpt>
      <trkpt lat="45.28352" lon="6.20885">
        <ele>1195.4000244141</ele>
        <time>2012-12-19T08:17:23.000Z</time>
      </trkpt>
      <trkpt lat="45.28351" lon="6.20877">
        <ele>1196.4000244141</ele>
        <time>2012-12-19T08:17:31.000Z</time>
      </trkpt>
      <trkpt lat="45.28352" lon="6.20873">
        <ele>1198</ele>
        <time>2012-12-19T08:17:37.000Z</time>
      </trkpt>
      <trkpt lat="45.28352" lon="6.20866">
        <ele>1199.1999511719</ele>
        <time>2012-12-19T08:17:44.000Z</time>
      </trkpt>
      <trkpt lat="45.2835" lon="6.20858">
        <ele>1199.5999755859</ele>
        <time>2012-12-19T08:17:52.000Z</time>
      </trkpt>
      <trkpt lat="45.28348" lon="6.20853">
        <ele>1201.8000488281</ele>
        <time>2012-12-19T08:17:59.000Z</time>
      </trkpt>
      <trkpt lat="45.28346" lon="6.20849">
        <ele>1201.4000244141</ele>
        <time>2012-12-19T08:18:05.000Z</time>
      </trkpt>
      <trkpt lat="45.28343" lon="6.20842">
        <ele>1203</ele>
        <time>2012-12-19T08:18:13.000Z</time>
      </trkpt>
      <trkpt lat="45.28342" lon="6.20836">
        <ele>1203.5999755859</ele>
        <time>2012-12-19T08:18:19.000Z</time>
      </trkpt>
      <trkpt lat="45.2834" lon="6.20831">
        <ele>1204.5999755859</ele>
        <time>2012-12-19T08:18:25.000Z</time>
      </trkpt>
      <trkpt lat="45.28339" lon="6.20827">
        <ele>1205</ele>
        <time>2012-12-19T08:18:30.000Z</time>
      </trkpt>
      <trkpt lat="45.28339" lon="6.20825">
        <ele>1205.8000488281</ele>
        <time>2012-12-19T08:18:32.000Z</time>
      </trkpt>
      <trkpt lat="45.28339" lon="6.20823">
        <ele>1206.8000488281</ele>
        <time>2012-12-19T08:18:34.000Z</time>
      </trkpt>
      <trkpt lat="45.28339" lon="6.20817">
        <ele>1207.4000244141</ele>
        <time>2012-12-19T08:18:40.000Z</time>
      </trkpt>
      <trkpt lat="45.28337" lon="6.20807">
        <ele>1209.4000244141</ele>
        <time>2012-12-19T08:18:51.000Z</time>
      </trkpt>
      <trkpt lat="45.28335" lon="6.208">
        <ele>1208.8000488281</ele>
        <time>2012-12-19T08:18:58.000Z</time>
      </trkpt>
      <trkpt lat="45.28333" lon="6.20793">
        <ele>1211</ele>
        <time>2012-12-19T08:19:06.000Z</time>
      </trkpt>
      <trkpt lat="45.28332" lon="6.2079">
        <ele>1211.1999511719</ele>
        <time>2012-12-19T08:19:11.000Z</time>
      </trkpt>
      <trkpt lat="45.28332" lon="6.20787">
        <ele>1211.5999755859</ele>
        <time>2012-12-19T08:19:14.000Z</time>
      </trkpt>
      <trkpt lat="45.2833" lon="6.20779">
        <ele>1214</ele>
        <time>2012-12-19T08:19:25.000Z</time>
      </trkpt>
      <trkpt lat="45.2833" lon="6.20777">
        <ele>1213.8000488281</ele>
        <time>2012-12-19T08:19:27.000Z</time>
      </trkpt>
      <trkpt lat="45.28329" lon="6.20771">
        <ele>1214.8000488281</ele>
        <time>2012-12-19T08:19:34.000Z</time>
      </trkpt>
      <trkpt lat="45.28328" lon="6.20768">
        <ele>1216.4000244141</ele>
        <time>2012-12-19T08:19:39.000Z</time>
      </trkpt>
      <trkpt lat="45.28327" lon="6.20764">
        <ele>1216.4000244141</ele>
        <time>2012-12-19T08:19:42.000Z</time>
      </trkpt>
      <trkpt lat="45.28326" lon="6.20759">
        <ele>1217.5999755859</ele>
        <time>2012-12-19T08:19:49.000Z</time>
      </trkpt>
      <trkpt lat="45.28326" lon="6.20746">
        <ele>1222.5999755859</ele>
        <time>2012-12-19T08:20:14.000Z</time>
      </trkpt>
      <trkpt lat="45.28325" lon="6.20742">
        <ele>1223.8000488281</ele>
        <time>2012-12-19T08:20:18.000Z</time>
      </trkpt>
      <trkpt lat="45.28322" lon="6.20732">
        <ele>1225</ele>
        <time>2012-12-19T08:20:30.000Z</time>
      </trkpt>
      <trkpt lat="45.28322" lon="6.20728">
        <ele>1226.4000244141</ele>
        <time>2012-12-19T08:20:35.000Z</time>
      </trkpt>
      <trkpt lat="45.28321" lon="6.2072">
        <ele>1228.1999511719</ele>
        <time>2012-12-19T08:20:44.000Z</time>
      </trkpt>
      <trkpt lat="45.28325" lon="6.20719">
        <ele>1228.5999755859</ele>
        <time>2012-12-19T08:20:50.000Z</time>
      </trkpt>
      <trkpt lat="45.28329" lon="6.20721">
        <ele>1229</ele>
        <time>2012-12-19T08:20:56.000Z</time>
      </trkpt>
      <trkpt lat="45.28332" lon="6.20722">
        <ele>1229.8000488281</ele>
        <time>2012-12-19T08:21:01.000Z</time>
      </trkpt>
      <trkpt lat="45.28334" lon="6.20723">
        <ele>1230.5999755859</ele>
        <time>2012-12-19T08:21:04.000Z</time>
      </trkpt>
      <trkpt lat="45.28337" lon="6.20723">
        <ele>1231</ele>
        <time>2012-12-19T08:21:09.000Z</time>
      </trkpt>
      <trkpt lat="45.28341" lon="6.20721">
        <ele>1232</ele>
        <time>2012-12-19T08:21:16.000Z</time>
      </trkpt>
      <trkpt lat="45.28343" lon="6.20718">
        <ele>1232.8000488281</ele>
        <time>2012-12-19T08:21:21.000Z</time>
      </trkpt>
      <trkpt lat="45.28343" lon="6.20718">
        <ele>1233</ele>
        <time>2012-12-19T08:21:23.000Z</time>
      </trkpt>
      <trkpt lat="45.28349" lon="6.20718">
        <ele>1234</ele>
        <time>2012-12-19T08:21:31.000Z</time>
      </trkpt>
      <trkpt lat="45.2835" lon="6.20714">
        <ele>1234.8000488281</ele>
        <time>2012-12-19T08:21:36.000Z</time>
      </trkpt>
      <trkpt lat="45.2835" lon="6.2071">
        <ele>1236.1999511719</ele>
        <time>2012-12-19T08:21:42.000Z</time>
      </trkpt>
      <trkpt lat="45.2835" lon="6.20706">
        <ele>1237.1999511719</ele>
        <time>2012-12-19T08:21:47.000Z</time>
      </trkpt>
      <trkpt lat="45.28351" lon="6.20704">
        <ele>1237.1999511719</ele>
        <time>2012-12-19T08:21:49.000Z</time>
      </trkpt>
      <trkpt lat="45.2835" lon="6.20701">
        <ele>1238.4000244141</ele>
        <time>2012-12-19T08:21:53.000Z</time>
      </trkpt>
      <trkpt lat="45.28349" lon="6.20699">
        <ele>1238.5999755859</ele>
        <time>2012-12-19T08:21:57.000Z</time>
      </trkpt>
      <trkpt lat="45.28344" lon="6.20691">
        <ele>1239.8000488281</ele>
        <time>2012-12-19T08:22:07.000Z</time>
      </trkpt>
      <trkpt lat="45.28343" lon="6.20687">
        <ele>1241.1999511719</ele>
        <time>2012-12-19T08:22:11.000Z</time>
      </trkpt>
      <trkpt lat="45.28338" lon="6.2068">
        <ele>1240.8000488281</ele>
        <time>2012-12-19T08:22:20.000Z</time>
      </trkpt>
      <trkpt lat="45.28335" lon="6.20676">
        <ele>1241.1999511719</ele>
        <time>2012-12-19T08:22:24.000Z</time>
      </trkpt>
      <trkpt lat="45.28335" lon="6.2067">
        <ele>1242</ele>
        <time>2012-12-19T08:22:30.000Z</time>
      </trkpt>
      <trkpt lat="45.28335" lon="6.20665">
        <ele>1242.5999755859</ele>
        <time>2012-12-19T08:22:35.000Z</time>
      </trkpt>
      <trkpt lat="45.28335" lon="6.20656">
        <ele>1243.8000488281</ele>
        <time>2012-12-19T08:22:43.000Z</time>
      </trkpt>
      <trkpt lat="45.28335" lon="6.20648">
        <ele>1244.5999755859</ele>
        <time>2012-12-19T08:22:49.000Z</time>
      </trkpt>
      <trkpt lat="45.28335" lon="6.20641">
        <ele>1246.1999511719</ele>
        <time>2012-12-19T08:22:56.000Z</time>
      </trkpt>
      <trkpt lat="45.28336" lon="6.20638">
        <ele>1246.5999755859</ele>
        <time>2012-12-19T08:23:00.000Z</time>
      </trkpt>
      <trkpt lat="45.2834" lon="6.20637">
        <ele>1247.1999511719</ele>
        <time>2012-12-19T08:23:10.000Z</time>
      </trkpt>
      <trkpt lat="45.28343" lon="6.2064">
        <ele>1249</ele>
        <time>2012-12-19T08:23:16.000Z</time>
      </trkpt>
      <trkpt lat="45.28348" lon="6.20647">
        <ele>1250.5999755859</ele>
        <time>2012-12-19T08:23:26.000Z</time>
      </trkpt>
      <trkpt lat="45.28351" lon="6.20647">
        <ele>1250.8000488281</ele>
        <time>2012-12-19T08:23:31.000Z</time>
      </trkpt>
      <trkpt lat="45.28351" lon="6.20647">
        <ele>1251.4000244141</ele>
        <time>2012-12-19T08:23:32.000Z</time>
      </trkpt>
      <trkpt lat="45.28357" lon="6.2064">
        <ele>1253.5999755859</ele>
        <time>2012-12-19T08:23:44.000Z</time>
      </trkpt>
      <trkpt lat="45.28359" lon="6.20637">
        <ele>1254.5999755859</ele>
        <time>2012-12-19T08:23:49.000Z</time>
      </trkpt>
      <trkpt lat="45.28359" lon="6.20637">
        <ele>1254.4000244141</ele>
        <time>2012-12-19T08:23:50.000Z</time>
      </trkpt>
      <trkpt lat="45.28358" lon="6.20605">
        <ele>1258</ele>
        <time>2012-12-19T08:24:58.000Z</time>
      </trkpt>
      <trkpt lat="45.28358" lon="6.20595">
        <ele>1260.8000488281</ele>
        <time>2012-12-19T08:25:24.000Z</time>
      </trkpt>
      <trkpt lat="45.28355" lon="6.20589">
        <ele>1261.4000244141</ele>
        <time>2012-12-19T08:25:31.000Z</time>
      </trkpt>
      <trkpt lat="45.28353" lon="6.20584">
        <ele>1261.8000488281</ele>
        <time>2012-12-19T08:25:37.000Z</time>
      </trkpt>
      <trkpt lat="45.28351" lon="6.20577">
        <ele>1262.1999511719</ele>
        <time>2012-12-19T08:25:43.000Z</time>
      </trkpt>
      <trkpt lat="45.2835" lon="6.20572">
        <ele>1262.4000244141</ele>
        <time>2012-12-19T08:25:48.000Z</time>
      </trkpt>
      <trkpt lat="45.28347" lon="6.20563">
        <ele>1262.4000244141</ele>
        <time>2012-12-19T08:25:57.000Z</time>
      </trkpt>
      <trkpt lat="45.28344" lon="6.20554">
        <ele>1263.5999755859</ele>
        <time>2012-12-19T08:26:03.000Z</time>
      </trkpt>
      <trkpt lat="45.28341" lon="6.20542">
        <ele>1264.1999511719</ele>
        <time>2012-12-19T08:26:17.000Z</time>
      </trkpt>
      <trkpt lat="45.28339" lon="6.20532">
        <ele>1265.4000244141</ele>
        <time>2012-12-19T08:26:36.000Z</time>
      </trkpt>
      <trkpt lat="45.28339" lon="6.20529">
        <ele>1265.1999511719</ele>
        <time>2012-12-19T08:26:41.000Z</time>
      </trkpt>
      <trkpt lat="45.28339" lon="6.20523">
        <ele>1267</ele>
        <time>2012-12-19T08:26:46.000Z</time>
      </trkpt>
      <trkpt lat="45.2834" lon="6.20519">
        <ele>1266.5999755859</ele>
        <time>2012-12-19T08:26:50.000Z</time>
      </trkpt>
      <trkpt lat="45.28338" lon="6.20514">
        <ele>1268.4000244141</ele>
        <time>2012-12-19T08:26:55.000Z</time>
      </trkpt>
      <trkpt lat="45.28336" lon="6.20497">
        <ele>1270.1999511719</ele>
        <time>2012-12-19T08:27:12.000Z</time>
      </trkpt>
      <trkpt lat="45.28334" lon="6.20492">
        <ele>1270.8000488281</ele>
        <time>2012-12-19T08:27:17.000Z</time>
      </trkpt>
      <trkpt lat="45.28332" lon="6.20487">
        <ele>1271.1999511719</ele>
        <time>2012-12-19T08:27:22.000Z</time>
      </trkpt>
      <trkpt lat="45.28329" lon="6.20477">
        <ele>1273.5999755859</ele>
        <time>2012-12-19T08:27:36.000Z</time>
      </trkpt>
      <trkpt lat="45.28329" lon="6.20477">
        <ele>1273</ele>
        <time>2012-12-19T08:27:37.000Z</time>
      </trkpt>
      <trkpt lat="45.28327" lon="6.20469">
        <ele>1274</ele>
        <time>2012-12-19T08:27:45.000Z</time>
      </trkpt>
      <trkpt lat="45.28326" lon="6.20463">
        <ele>1275.4000244141</ele>
        <time>2012-12-19T08:27:51.000Z</time>
      </trkpt>
      <trkpt lat="45.28326" lon="6.2046">
        <ele>1275.8000488281</ele>
        <time>2012-12-19T08:27:55.000Z</time>
      </trkpt>
      <trkpt lat="45.28325" lon="6.20452">
        <ele>1276.5999755859</ele>
        <time>2012-12-19T08:28:01.000Z</time>
      </trkpt>
      <trkpt lat="45.28325" lon="6.20447">
        <ele>1277.5999755859</ele>
        <time>2012-12-19T08:28:06.000Z</time>
      </trkpt>
      <trkpt lat="45.28324" lon="6.20442">
        <ele>1277.8000488281</ele>
        <time>2012-12-19T08:28:10.000Z</time>
      </trkpt>
      <trkpt lat="45.28323" lon="6.20438">
        <ele>1278</ele>
        <time>2012-12-19T08:28:14.000Z</time>
      </trkpt>
      <trkpt lat="45.2832" lon="6.20433">
        <ele>1277.8000488281</ele>
        <time>2012-12-19T08:28:21.000Z</time>
      </trkpt>
      <trkpt lat="45.28319" lon="6.20433">
        <ele>1278.1999511719</ele>
        <time>2012-12-19T08:28:22.000Z</time>
      </trkpt>
      <trkpt lat="45.28316" lon="6.20427">
        <ele>1279.4000244141</ele>
        <time>2012-12-19T08:28:30.000Z</time>
      </trkpt>
      <trkpt lat="45.28316" lon="6.20426">
        <ele>1279.1999511719</ele>
        <time>2012-12-19T08:28:31.000Z</time>
      </trkpt>
      <trkpt lat="45.28314" lon="6.2042">
        <ele>1280.8000488281</ele>
        <time>2012-12-19T08:28:39.000Z</time>
      </trkpt>
      <trkpt lat="45.28313" lon="6.20418">
        <ele>1280.8000488281</ele>
        <time>2012-12-19T08:28:41.000Z</time>
      </trkpt>
      <trkpt lat="45.2831" lon="6.20408">
        <ele>1282</ele>
        <time>2012-12-19T08:28:50.000Z</time>
      </trkpt>
      <trkpt lat="45.28308" lon="6.20394">
        <ele>1283.5999755859</ele>
        <time>2012-12-19T08:29:00.000Z</time>
      </trkpt>
      <trkpt lat="45.28309" lon="6.20389">
        <ele>1284.4000244141</ele>
        <time>2012-12-19T08:29:07.000Z</time>
      </trkpt>
      <trkpt lat="45.28309" lon="6.20384">
        <ele>1285.5999755859</ele>
        <time>2012-12-19T08:29:14.000Z</time>
      </trkpt>
      <trkpt lat="45.28312" lon="6.20378">
        <ele>1286.4000244141</ele>
        <time>2012-12-19T08:29:22.000Z</time>
      </trkpt>
      <trkpt lat="45.28313" lon="6.20374">
        <ele>1286.5999755859</ele>
        <time>2012-12-19T08:29:27.000Z</time>
      </trkpt>
      <trkpt lat="45.28315" lon="6.20369">
        <ele>1287.1999511719</ele>
        <time>2012-12-19T08:29:33.000Z</time>
      </trkpt>
      <trkpt lat="45.28315" lon="6.20369">
        <ele>1287.1999511719</ele>
        <time>2012-12-19T08:29:34.000Z</time>
      </trkpt>
      <trkpt lat="45.28318" lon="6.20364">
        <ele>1287.8000488281</ele>
        <time>2012-12-19T08:29:40.000Z</time>
      </trkpt>
      <trkpt lat="45.28318" lon="6.20363">
        <ele>1288</ele>
        <time>2012-12-19T08:29:41.000Z</time>
      </trkpt>
      <trkpt lat="45.28307" lon="6.20349">
        <ele>1289</ele>
        <time>2012-12-19T08:30:58.000Z</time>
      </trkpt>
      <trkpt lat="45.28304" lon="6.20353">
        <ele>1289.8000488281</ele>
        <time>2012-12-19T08:31:17.000Z</time>
      </trkpt>
      <trkpt lat="45.28299" lon="6.20355">
        <ele>1290.4000244141</ele>
        <time>2012-12-19T08:31:24.000Z</time>
      </trkpt>
      <trkpt lat="45.28292" lon="6.20354">
        <ele>1292.1999511719</ele>
        <time>2012-12-19T08:31:33.000Z</time>
      </trkpt>
      <trkpt lat="45.28287" lon="6.20348">
        <ele>1293</ele>
        <time>2012-12-19T08:31:41.000Z</time>
      </trkpt>
      <trkpt lat="45.28285" lon="6.20341">
        <ele>1294.4000244141</ele>
        <time>2012-12-19T08:31:49.000Z</time>
      </trkpt>
      <trkpt lat="45.28284" lon="6.20332">
        <ele>1295.8000488281</ele>
        <time>2012-12-19T08:31:59.000Z</time>
      </trkpt>
      <trkpt lat="45.28284" lon="6.20327">
        <ele>1296.4000244141</ele>
        <time>2012-12-19T08:32:05.000Z</time>
      </trkpt>
      <trkpt lat="45.2828" lon="6.20318">
        <ele>1296.5999755859</ele>
        <time>2012-12-19T08:32:13.000Z</time>
      </trkpt>
      <trkpt lat="45.28279" lon="6.20316">
        <ele>1296.5999755859</ele>
        <time>2012-12-19T08:32:15.000Z</time>
      </trkpt>
      <trkpt lat="45.28274" lon="6.20316">
        <ele>1296</ele>
        <time>2012-12-19T08:32:23.000Z</time>
      </trkpt>
      <trkpt lat="45.28266" lon="6.20318">
        <ele>1297.1999511719</ele>
        <time>2012-12-19T08:32:34.000Z</time>
      </trkpt>
      <trkpt lat="45.28263" lon="6.20316">
        <ele>1298.8000488281</ele>
        <time>2012-12-19T08:32:39.000Z</time>
      </trkpt>
      <trkpt lat="45.28257" lon="6.2031">
        <ele>1299.8000488281</ele>
        <time>2012-12-19T08:32:49.000Z</time>
      </trkpt>
      <trkpt lat="45.28255" lon="6.20306">
        <ele>1299.8000488281</ele>
        <time>2012-12-19T08:32:54.000Z</time>
      </trkpt>
      <trkpt lat="45.28252" lon="6.203">
        <ele>1301</ele>
        <time>2012-12-19T08:33:02.000Z</time>
      </trkpt>
      <trkpt lat="45.2825" lon="6.20293">
        <ele>1302.4000244141</ele>
        <time>2012-12-19T08:33:12.000Z</time>
      </trkpt>
      <trkpt lat="45.28249" lon="6.20288">
        <ele>1303.8000488281</ele>
        <time>2012-12-19T08:33:19.000Z</time>
      </trkpt>
      <trkpt lat="45.28248" lon="6.20284">
        <ele>1303.8000488281</ele>
        <time>2012-12-19T08:33:24.000Z</time>
      </trkpt>
      <trkpt lat="45.28246" lon="6.20276">
        <ele>1306.1999511719</ele>
        <time>2012-12-19T08:33:34.000Z</time>
      </trkpt>
      <trkpt lat="45.28245" lon="6.20271">
        <ele>1307.1999511719</ele>
        <time>2012-12-19T08:33:40.000Z</time>
      </trkpt>
      <trkpt lat="45.2824" lon="6.20261">
        <ele>1308.5999755859</ele>
        <time>2012-12-19T08:33:50.000Z</time>
      </trkpt>
      <trkpt lat="45.28238" lon="6.20252">
        <ele>1309.8000488281</ele>
        <time>2012-12-19T08:34:00.000Z</time>
      </trkpt>
      <trkpt lat="45.28236" lon="6.20243">
        <ele>1310.5999755859</ele>
        <time>2012-12-19T08:34:10.000Z</time>
      </trkpt>
      <trkpt lat="45.28234" lon="6.20236">
        <ele>1310.8000488281</ele>
        <time>2012-12-19T08:34:18.000Z</time>
      </trkpt>
      <trkpt lat="45.28233" lon="6.20232">
        <ele>1312</ele>
        <time>2012-12-19T08:34:23.000Z</time>
      </trkpt>
      <trkpt lat="45.28233" lon="6.2023">
        <ele>1311.4000244141</ele>
        <time>2012-12-19T08:34:26.000Z</time>
      </trkpt>
      <trkpt lat="45.28232" lon="6.20221">
        <ele>1314.5999755859</ele>
        <time>2012-12-19T08:34:38.000Z</time>
      </trkpt>
      <trkpt lat="45.28231" lon="6.20217">
        <ele>1314.4000244141</ele>
        <time>2012-12-19T08:34:44.000Z</time>
      </trkpt>
      <trkpt lat="45.28229" lon="6.20212">
        <ele>1315.4000244141</ele>
        <time>2012-12-19T08:34:53.000Z</time>
      </trkpt>
      <trkpt lat="45.28227" lon="6.20208">
        <ele>1314.5999755859</ele>
        <time>2012-12-19T08:35:00.000Z</time>
      </trkpt>
      <trkpt lat="45.28227" lon="6.20206">
        <ele>1316.1999511719</ele>
        <time>2012-12-19T08:35:04.000Z</time>
      </trkpt>
      <trkpt lat="45.28225" lon="6.20201">
        <ele>1316</ele>
        <time>2012-12-19T08:35:13.000Z</time>
      </trkpt>
      <trkpt lat="45.28222" lon="6.20197">
        <ele>1316.1999511719</ele>
        <time>2012-12-19T08:35:21.000Z</time>
      </trkpt>
      <trkpt lat="45.28218" lon="6.20192">
        <ele>1315.5999755859</ele>
        <time>2012-12-19T08:35:29.000Z</time>
      </trkpt>
      <trkpt lat="45.28216" lon="6.20186">
        <ele>1317.1999511719</ele>
        <time>2012-12-19T08:35:37.000Z</time>
      </trkpt>
      <trkpt lat="45.28214" lon="6.20182">
        <ele>1317.8000488281</ele>
        <time>2012-12-19T08:35:42.000Z</time>
      </trkpt>
      <trkpt lat="45.28211" lon="6.20177">
        <ele>1318.5999755859</ele>
        <time>2012-12-19T08:35:50.000Z</time>
      </trkpt>
      <trkpt lat="45.28211" lon="6.20176">
        <ele>1319</ele>
        <time>2012-12-19T08:35:51.000Z</time>
      </trkpt>
      <trkpt lat="45.28209" lon="6.2017">
        <ele>1320.4000244141</ele>
        <time>2012-12-19T08:36:00.000Z</time>
      </trkpt>
      <trkpt lat="45.28207" lon="6.20164">
        <ele>1320.8000488281</ele>
        <time>2012-12-19T08:36:06.000Z</time>
      </trkpt>
      <trkpt lat="45.28205" lon="6.20157">
        <ele>1322.5999755859</ele>
        <time>2012-12-19T08:36:15.000Z</time>
      </trkpt>
      <trkpt lat="45.28204" lon="6.20153">
        <ele>1322</ele>
        <time>2012-12-19T08:36:20.000Z</time>
      </trkpt>
      <trkpt lat="45.28203" lon="6.20148">
        <ele>1323.4000244141</ele>
        <time>2012-12-19T08:36:25.000Z</time>
      </trkpt>
      <trkpt lat="45.282" lon="6.20143">
        <ele>1324.1999511719</ele>
        <time>2012-12-19T08:36:32.000Z</time>
      </trkpt>
      <trkpt lat="45.28198" lon="6.20139">
        <ele>1325.1999511719</ele>
        <time>2012-12-19T08:36:38.000Z</time>
      </trkpt>
      <trkpt lat="45.28197" lon="6.20137">
        <ele>1325.5999755859</ele>
        <time>2012-12-19T08:36:42.000Z</time>
      </trkpt>
      <trkpt lat="45.28192" lon="6.20133">
        <ele>1326.4000244141</ele>
        <time>2012-12-19T08:36:50.000Z</time>
      </trkpt>
      <trkpt lat="45.28187" lon="6.2013">
        <ele>1327.1999511719</ele>
        <time>2012-12-19T08:36:59.000Z</time>
      </trkpt>
      <trkpt lat="45.28182" lon="6.20127">
        <ele>1328.8000488281</ele>
        <time>2012-12-19T08:37:08.000Z</time>
      </trkpt>
      <trkpt lat="45.28176" lon="6.20124">
        <ele>1329.4000244141</ele>
        <time>2012-12-19T08:37:17.000Z</time>
      </trkpt>
      <trkpt lat="45.28171" lon="6.2012">
        <ele>1330.8000488281</ele>
        <time>2012-12-19T08:37:25.000Z</time>
      </trkpt>
      <trkpt lat="45.28167" lon="6.20114">
        <ele>1331.8000488281</ele>
        <time>2012-12-19T08:37:34.000Z</time>
      </trkpt>
      <trkpt lat="45.28164" lon="6.20108">
        <ele>1333</ele>
        <time>2012-12-19T08:37:40.000Z</time>
      </trkpt>
      <trkpt lat="45.28162" lon="6.20105">
        <ele>1333.1999511719</ele>
        <time>2012-12-19T08:37:46.000Z</time>
      </trkpt>
      <trkpt lat="45.28161" lon="6.201">
        <ele>1334.4000244141</ele>
        <time>2012-12-19T08:37:53.000Z</time>
      </trkpt>
      <trkpt lat="45.28159" lon="6.20096">
        <ele>1335.1999511719</ele>
        <time>2012-12-19T08:37:59.000Z</time>
      </trkpt>
      <trkpt lat="45.28157" lon="6.20092">
        <ele>1336.4000244141</ele>
        <time>2012-12-19T08:38:05.000Z</time>
      </trkpt>
      <trkpt lat="45.28156" lon="6.20089">
        <ele>1336.5999755859</ele>
        <time>2012-12-19T08:38:10.000Z</time>
      </trkpt>
      <trkpt lat="45.28151" lon="6.20082">
        <ele>1338.1999511719</ele>
        <time>2012-12-19T08:38:20.000Z</time>
      </trkpt>
      <trkpt lat="45.28148" lon="6.20075">
        <ele>1339.4000244141</ele>
        <time>2012-12-19T08:38:29.000Z</time>
      </trkpt>
      <trkpt lat="45.28145" lon="6.20072">
        <ele>1340.1999511719</ele>
        <time>2012-12-19T08:38:35.000Z</time>
      </trkpt>
      <trkpt lat="45.28139" lon="6.20064">
        <ele>1341.5999755859</ele>
        <time>2012-12-19T08:38:47.000Z</time>
      </trkpt>
      <trkpt lat="45.28136" lon="6.20059">
        <ele>1342.5999755859</ele>
        <time>2012-12-19T08:38:56.000Z</time>
      </trkpt>
      <trkpt lat="45.28135" lon="6.20059">
        <ele>1342.8000488281</ele>
        <time>2012-12-19T08:38:57.000Z</time>
      </trkpt>
      <trkpt lat="45.28133" lon="6.20053">
        <ele>1344.4000244141</ele>
        <time>2012-12-19T08:39:14.000Z</time>
      </trkpt>
      <trkpt lat="45.28132" lon="6.20045">
        <ele>1344.1999511719</ele>
        <time>2012-12-19T08:39:22.000Z</time>
      </trkpt>
      <trkpt lat="45.28131" lon="6.20039">
        <ele>1345.4000244141</ele>
        <time>2012-12-19T08:39:29.000Z</time>
      </trkpt>
      <trkpt lat="45.28129" lon="6.20035">
        <ele>1345.4000244141</ele>
        <time>2012-12-19T08:39:38.000Z</time>
      </trkpt>
      <trkpt lat="45.28125" lon="6.20026">
        <ele>1346.1999511719</ele>
        <time>2012-12-19T08:39:48.000Z</time>
      </trkpt>
      <trkpt lat="45.2812" lon="6.20018">
        <ele>1347.8000488281</ele>
        <time>2012-12-19T08:39:58.000Z</time>
      </trkpt>
      <trkpt lat="45.28116" lon="6.2001">
        <ele>1348.1999511719</ele>
        <time>2012-12-19T08:40:08.000Z</time>
      </trkpt>
      <trkpt lat="45.28112" lon="6.20002">
        <ele>1349.1999511719</ele>
        <time>2012-12-19T08:40:17.000Z</time>
      </trkpt>
      <trkpt lat="45.28108" lon="6.19993">
        <ele>1349.4000244141</ele>
        <time>2012-12-19T08:40:27.000Z</time>
      </trkpt>
      <trkpt lat="45.28105" lon="6.19986">
        <ele>1351.1999511719</ele>
        <time>2012-12-19T08:40:34.000Z</time>
      </trkpt>
      <trkpt lat="45.28103" lon="6.19978">
        <ele>1352.1999511719</ele>
        <time>2012-12-19T08:40:42.000Z</time>
      </trkpt>
      <trkpt lat="45.28103" lon="6.19977">
        <ele>1352.4000244141</ele>
        <time>2012-12-19T08:40:43.000Z</time>
      </trkpt>
      <trkpt lat="45.28101" lon="6.1997">
        <ele>1352</ele>
        <time>2012-12-19T08:40:50.000Z</time>
      </trkpt>
      <trkpt lat="45.281" lon="6.19961">
        <ele>1354.4000244141</ele>
        <time>2012-12-19T08:41:00.000Z</time>
      </trkpt>
      <trkpt lat="45.281" lon="6.1996">
        <ele>1354.4000244141</ele>
        <time>2012-12-19T08:41:01.000Z</time>
      </trkpt>
      <trkpt lat="45.28099" lon="6.19953">
        <ele>1354.8000488281</ele>
        <time>2012-12-19T08:41:10.000Z</time>
      </trkpt>
      <trkpt lat="45.28097" lon="6.19944">
        <ele>1355.8000488281</ele>
        <time>2012-12-19T08:41:20.000Z</time>
      </trkpt>
      <trkpt lat="45.28096" lon="6.19933">
        <ele>1358.1999511719</ele>
        <time>2012-12-19T08:41:32.000Z</time>
      </trkpt>
      <trkpt lat="45.28097" lon="6.19926">
        <ele>1360.1999511719</ele>
        <time>2012-12-19T08:41:41.000Z</time>
      </trkpt>
      <trkpt lat="45.28097" lon="6.19919">
        <ele>1360.5999755859</ele>
        <time>2012-12-19T08:41:49.000Z</time>
      </trkpt>
      <trkpt lat="45.281" lon="6.19914">
        <ele>1361.5999755859</ele>
        <time>2012-12-19T08:41:57.000Z</time>
      </trkpt>
      <trkpt lat="45.28104" lon="6.19907">
        <ele>1362.5999755859</ele>
        <time>2012-12-19T08:42:08.000Z</time>
      </trkpt>
      <trkpt lat="45.28105" lon="6.19904">
        <ele>1363.5999755859</ele>
        <time>2012-12-19T08:42:12.000Z</time>
      </trkpt>
      <trkpt lat="45.28107" lon="6.19897">
        <ele>1364.5999755859</ele>
        <time>2012-12-19T08:42:19.000Z</time>
      </trkpt>
      <trkpt lat="45.2811" lon="6.19889">
        <ele>1365.8000488281</ele>
        <time>2012-12-19T08:42:30.000Z</time>
      </trkpt>
      <trkpt lat="45.28112" lon="6.19883">
        <ele>1366.8000488281</ele>
        <time>2012-12-19T08:42:38.000Z</time>
      </trkpt>
      <trkpt lat="45.28114" lon="6.19879">
        <ele>1366.5999755859</ele>
        <time>2012-12-19T08:42:44.000Z</time>
      </trkpt>
      <trkpt lat="45.28115" lon="6.19876">
        <ele>1365.5999755859</ele>
        <time>2012-12-19T08:42:55.000Z</time>
      </trkpt>
      <trkpt lat="45.28114" lon="6.19875">
        <ele>1363.5999755859</ele>
        <time>2012-12-19T08:42:57.000Z</time>
      </trkpt>
      <trkpt lat="45.2811" lon="6.19862">
        <ele>1368</ele>
        <time>2012-12-19T08:45:45.000Z</time>
      </trkpt>
      <trkpt lat="45.28109" lon="6.19862">
        <ele>1368.4000244141</ele>
        <time>2012-12-19T08:45:49.000Z</time>
      </trkpt>
      <trkpt lat="45.28108" lon="6.19859">
        <ele>1368.4000244141</ele>
        <time>2012-12-19T08:46:46.000Z</time>
      </trkpt>
      <trkpt lat="45.28101" lon="6.19847">
        <ele>1368.1999511719</ele>
        <time>2012-12-19T08:46:55.000Z</time>
      </trkpt>
      <trkpt lat="45.28098" lon="6.19837">
        <ele>1368.4000244141</ele>
        <time>2012-12-19T08:47:02.000Z</time>
      </trkpt>
      <trkpt lat="45.28093" lon="6.19824">
        <ele>1369.1999511719</ele>
        <time>2012-12-19T08:47:12.000Z</time>
      </trkpt>
      <trkpt lat="45.28092" lon="6.19817">
        <ele>1369.1999511719</ele>
        <time>2012-12-19T08:47:16.000Z</time>
      </trkpt>
      <trkpt lat="45.28089" lon="6.19808">
        <ele>1369.5999755859</ele>
        <time>2012-12-19T08:47:22.000Z</time>
      </trkpt>
      <trkpt lat="45.28087" lon="6.19796">
        <ele>1369.1999511719</ele>
        <time>2012-12-19T08:47:29.000Z</time>
      </trkpt>
      <trkpt lat="45.28088" lon="6.19785">
        <ele>1370.5999755859</ele>
        <time>2012-12-19T08:47:38.000Z</time>
      </trkpt>
      <trkpt lat="45.28091" lon="6.19774">
        <ele>1372</ele>
        <time>2012-12-19T08:47:46.000Z</time>
      </trkpt>
      <trkpt lat="45.28089" lon="6.19762">
        <ele>1371.8000488281</ele>
        <time>2012-12-19T08:47:54.000Z</time>
      </trkpt>
      <trkpt lat="45.28087" lon="6.19751">
        <ele>1372.4000244141</ele>
        <time>2012-12-19T08:48:01.000Z</time>
      </trkpt>
      <trkpt lat="45.28084" lon="6.1974">
        <ele>1372</ele>
        <time>2012-12-19T08:48:08.000Z</time>
      </trkpt>
      <trkpt lat="45.2808" lon="6.1973">
        <ele>1372.1999511719</ele>
        <time>2012-12-19T08:48:16.000Z</time>
      </trkpt>
      <trkpt lat="45.28075" lon="6.19721">
        <ele>1373.1999511719</ele>
        <time>2012-12-19T08:48:24.000Z</time>
      </trkpt>
      <trkpt lat="45.28072" lon="6.19711">
        <ele>1374.1999511719</ele>
        <time>2012-12-19T08:48:32.000Z</time>
      </trkpt>
      <trkpt lat="45.28069" lon="6.19705">
        <ele>1374.8000488281</ele>
        <time>2012-12-19T08:48:38.000Z</time>
      </trkpt>
      <trkpt lat="45.28066" lon="6.19699">
        <ele>1376</ele>
        <time>2012-12-19T08:48:43.000Z</time>
      </trkpt>
      <trkpt lat="45.28061" lon="6.19689">
        <ele>1376.4000244141</ele>
        <time>2012-12-19T08:48:52.000Z</time>
      </trkpt>
      <trkpt lat="45.28057" lon="6.19681">
        <ele>1376.8000488281</ele>
        <time>2012-12-19T08:48:59.000Z</time>
      </trkpt>
      <trkpt lat="45.28053" lon="6.19671">
        <ele>1377</ele>
        <time>2012-12-19T08:49:07.000Z</time>
      </trkpt>
      <trkpt lat="45.28047" lon="6.19659">
        <ele>1377.1999511719</ele>
        <time>2012-12-19T08:49:18.000Z</time>
      </trkpt>
      <trkpt lat="45.28043" lon="6.19647">
        <ele>1378.8000488281</ele>
        <time>2012-12-19T08:49:28.000Z</time>
      </trkpt>
      <trkpt lat="45.2804" lon="6.19638">
        <ele>1379.4000244141</ele>
        <time>2012-12-19T08:49:37.000Z</time>
      </trkpt>
      <trkpt lat="45.28037" lon="6.19628">
        <ele>1380.5999755859</ele>
        <time>2012-12-19T08:49:46.000Z</time>
      </trkpt>
      <trkpt lat="45.28033" lon="6.1962">
        <ele>1381.8000488281</ele>
        <time>2012-12-19T08:49:55.000Z</time>
      </trkpt>
      <trkpt lat="45.2803" lon="6.19613">
        <ele>1382.8000488281</ele>
        <time>2012-12-19T08:50:03.000Z</time>
      </trkpt>
      <trkpt lat="45.28027" lon="6.19607">
        <ele>1383.8000488281</ele>
        <time>2012-12-19T08:50:11.000Z</time>
      </trkpt>
      <trkpt lat="45.28024" lon="6.19597">
        <ele>1384.8000488281</ele>
        <time>2012-12-19T08:51:23.000Z</time>
      </trkpt>
      <trkpt lat="45.2802" lon="6.19597">
        <ele>1382</ele>
        <time>2012-12-19T08:51:29.000Z</time>
      </trkpt>
      <trkpt lat="45.2802" lon="6.19596">
        <ele>1381.5999755859</ele>
        <time>2012-12-19T08:51:30.000Z</time>
      </trkpt>
      <trkpt lat="45.28019" lon="6.19594">
        <ele>1384.8000488281</ele>
        <time>2012-12-19T08:51:34.000Z</time>
      </trkpt>
      <trkpt lat="45.28017" lon="6.19585">
        <ele>1385.4000244141</ele>
        <time>2012-12-19T08:51:47.000Z</time>
      </trkpt>
      <trkpt lat="45.28017" lon="6.19584">
        <ele>1385.1999511719</ele>
        <time>2012-12-19T08:51:48.000Z</time>
      </trkpt>
      <trkpt lat="45.28016" lon="6.19579">
        <ele>1387</ele>
        <time>2012-12-19T08:51:56.000Z</time>
      </trkpt>
      <trkpt lat="45.28013" lon="6.19577">
        <ele>1386</ele>
        <time>2012-12-19T08:52:03.000Z</time>
      </trkpt>
      <trkpt lat="45.28012" lon="6.19577">
        <ele>1388</ele>
        <time>2012-12-19T08:52:05.000Z</time>
      </trkpt>
      <trkpt lat="45.28012" lon="6.19576">
        <ele>1387.8000488281</ele>
        <time>2012-12-19T08:52:06.000Z</time>
      </trkpt>
      <trkpt lat="45.28006" lon="6.19566">
        <ele>1388.4000244141</ele>
        <time>2012-12-19T08:52:18.000Z</time>
      </trkpt>
      <trkpt lat="45.28002" lon="6.19557">
        <ele>1390.8000488281</ele>
        <time>2012-12-19T08:52:27.000Z</time>
      </trkpt>
      <trkpt lat="45.27998" lon="6.19548">
        <ele>1391</ele>
        <time>2012-12-19T08:52:36.000Z</time>
      </trkpt>
      <trkpt lat="45.27994" lon="6.19537">
        <ele>1393</ele>
        <time>2012-12-19T08:52:46.000Z</time>
      </trkpt>
      <trkpt lat="45.27992" lon="6.19532">
        <ele>1393</ele>
        <time>2012-12-19T08:52:53.000Z</time>
      </trkpt>
      <trkpt lat="45.27992" lon="6.19526">
        <ele>1393.8000488281</ele>
        <time>2012-12-19T08:53:03.000Z</time>
      </trkpt>
      <trkpt lat="45.27991" lon="6.19519">
        <ele>1394.1999511719</ele>
        <time>2012-12-19T08:53:10.000Z</time>
      </trkpt>
      <trkpt lat="45.27987" lon="6.19508">
        <ele>1394.5999755859</ele>
        <time>2012-12-19T08:53:20.000Z</time>
      </trkpt>
      <trkpt lat="45.27984" lon="6.195">
        <ele>1395</ele>
        <time>2012-12-19T08:53:27.000Z</time>
      </trkpt>
      <trkpt lat="45.2798" lon="6.19491">
        <ele>1394.8000488281</ele>
        <time>2012-12-19T08:53:36.000Z</time>
      </trkpt>
      <trkpt lat="45.27975" lon="6.19479">
        <ele>1395.1999511719</ele>
        <time>2012-12-19T08:53:47.000Z</time>
      </trkpt>
      <trkpt lat="45.27972" lon="6.1947">
        <ele>1395.5999755859</ele>
        <time>2012-12-19T08:53:55.000Z</time>
      </trkpt>
      <trkpt lat="45.27967" lon="6.19461">
        <ele>1395.8000488281</ele>
        <time>2012-12-19T08:54:04.000Z</time>
      </trkpt>
      <trkpt lat="45.27963" lon="6.19452">
        <ele>1396.4000244141</ele>
        <time>2012-12-19T08:54:13.000Z</time>
      </trkpt>
      <trkpt lat="45.27959" lon="6.19443">
        <ele>1396.8000488281</ele>
        <time>2012-12-19T08:54:20.000Z</time>
      </trkpt>
      <trkpt lat="45.27955" lon="6.19437">
        <ele>1397</ele>
        <time>2012-12-19T08:54:27.000Z</time>
      </trkpt>
      <trkpt lat="45.27955" lon="6.19436">
        <ele>1397</ele>
        <time>2012-12-19T08:54:29.000Z</time>
      </trkpt>
      <trkpt lat="45.27947" lon="6.19435">
        <ele>1397.8000488281</ele>
        <time>2012-12-19T08:54:51.000Z</time>
      </trkpt>
      <trkpt lat="45.27945" lon="6.19433">
        <ele>1398.1999511719</ele>
        <time>2012-12-19T08:54:56.000Z</time>
      </trkpt>
      <trkpt lat="45.27942" lon="6.19425">
        <ele>1399.1999511719</ele>
        <time>2012-12-19T08:55:07.000Z</time>
      </trkpt>
      <trkpt lat="45.27942" lon="6.19424">
        <ele>1399.5999755859</ele>
        <time>2012-12-19T08:55:08.000Z</time>
      </trkpt>
      <trkpt lat="45.27936" lon="6.19412">
        <ele>1399.1999511719</ele>
        <time>2012-12-19T08:55:17.000Z</time>
      </trkpt>
      <trkpt lat="45.27932" lon="6.19407">
        <ele>1401</ele>
        <time>2012-12-19T08:55:26.000Z</time>
      </trkpt>
      <trkpt lat="45.27927" lon="6.19402">
        <ele>1401.1999511719</ele>
        <time>2012-12-19T08:55:34.000Z</time>
      </trkpt>
      <trkpt lat="45.2792" lon="6.19395">
        <ele>1401.8000488281</ele>
        <time>2012-12-19T08:55:44.000Z</time>
      </trkpt>
      <trkpt lat="45.27914" lon="6.19389">
        <ele>1403.1999511719</ele>
        <time>2012-12-19T08:55:53.000Z</time>
      </trkpt>
      <trkpt lat="45.27909" lon="6.19384">
        <ele>1404.8000488281</ele>
        <time>2012-12-19T08:56:01.000Z</time>
      </trkpt>
      <trkpt lat="45.27906" lon="6.19381">
        <ele>1405.1999511719</ele>
        <time>2012-12-19T08:56:06.000Z</time>
      </trkpt>
      <trkpt lat="45.27901" lon="6.19378">
        <ele>1405.4000244141</ele>
        <time>2012-12-19T08:56:13.000Z</time>
      </trkpt>
      <trkpt lat="45.27897" lon="6.19374">
        <ele>1407</ele>
        <time>2012-12-19T08:56:20.000Z</time>
      </trkpt>
      <trkpt lat="45.27893" lon="6.19369">
        <ele>1406.8000488281</ele>
        <time>2012-12-19T08:56:28.000Z</time>
      </trkpt>
      <trkpt lat="45.27889" lon="6.19361">
        <ele>1408.1999511719</ele>
        <time>2012-12-19T08:56:35.000Z</time>
      </trkpt>
      <trkpt lat="45.27887" lon="6.19357">
        <ele>1409.4000244141</ele>
        <time>2012-12-19T08:56:39.000Z</time>
      </trkpt>
      <trkpt lat="45.27889" lon="6.19349">
        <ele>1410.5999755859</ele>
        <time>2012-12-19T08:56:47.000Z</time>
      </trkpt>
      <trkpt lat="45.27893" lon="6.19348">
        <ele>1411.5999755859</ele>
        <time>2012-12-19T08:56:53.000Z</time>
      </trkpt>
      <trkpt lat="45.27893" lon="6.19345">
        <ele>1411.4000244141</ele>
        <time>2012-12-19T08:56:59.000Z</time>
      </trkpt>
      <trkpt lat="45.27891" lon="6.1934">
        <ele>1411.5999755859</ele>
        <time>2012-12-19T08:57:09.000Z</time>
      </trkpt>
      <trkpt lat="45.27891" lon="6.19336">
        <ele>1412.8000488281</ele>
        <time>2012-12-19T08:57:15.000Z</time>
      </trkpt>
      <trkpt lat="45.27891" lon="6.19331">
        <ele>1414.4000244141</ele>
        <time>2012-12-19T08:57:22.000Z</time>
      </trkpt>
      <trkpt lat="45.27891" lon="6.19327">
        <ele>1414</ele>
        <time>2012-12-19T08:57:28.000Z</time>
      </trkpt>
      <trkpt lat="45.2789" lon="6.1932">
        <ele>1416</ele>
        <time>2012-12-19T08:57:36.000Z</time>
      </trkpt>
      <trkpt lat="45.27891" lon="6.19314">
        <ele>1416.8000488281</ele>
        <time>2012-12-19T08:57:43.000Z</time>
      </trkpt>
      <trkpt lat="45.2789" lon="6.19308">
        <ele>1417.1999511719</ele>
        <time>2012-12-19T08:57:49.000Z</time>
      </trkpt>
      <trkpt lat="45.27889" lon="6.19303">
        <ele>1418.8000488281</ele>
        <time>2012-12-19T08:57:55.000Z</time>
      </trkpt>
      <trkpt lat="45.2789" lon="6.19297">
        <ele>1419.1999511719</ele>
        <time>2012-12-19T08:58:00.000Z</time>
      </trkpt>
      <trkpt lat="45.27889" lon="6.19291">
        <ele>1419.5999755859</ele>
        <time>2012-12-19T08:58:05.000Z</time>
      </trkpt>
      <trkpt lat="45.27888" lon="6.19286">
        <ele>1421.5999755859</ele>
        <time>2012-12-19T08:58:13.000Z</time>
      </trkpt>
      <trkpt lat="45.27886" lon="6.19278">
        <ele>1421.8000488281</ele>
        <time>2012-12-19T08:58:21.000Z</time>
      </trkpt>
      <trkpt lat="45.27885" lon="6.19276">
        <ele>1422</ele>
        <time>2012-12-19T08:58:23.000Z</time>
      </trkpt>
      <trkpt lat="45.27884" lon="6.19267">
        <ele>1423.8000488281</ele>
        <time>2012-12-19T08:58:33.000Z</time>
      </trkpt>
      <trkpt lat="45.27883" lon="6.1926">
        <ele>1424.1999511719</ele>
        <time>2012-12-19T08:58:40.000Z</time>
      </trkpt>
      <trkpt lat="45.27882" lon="6.19254">
        <ele>1426</ele>
        <time>2012-12-19T08:58:47.000Z</time>
      </trkpt>
      <trkpt lat="45.27881" lon="6.19245">
        <ele>1426.4000244141</ele>
        <time>2012-12-19T08:58:55.000Z</time>
      </trkpt>
      <trkpt lat="45.2788" lon="6.19236">
        <ele>1427</ele>
        <time>2012-12-19T08:59:03.000Z</time>
      </trkpt>
      <trkpt lat="45.2788" lon="6.19228">
        <ele>1428.1999511719</ele>
        <time>2012-12-19T08:59:10.000Z</time>
      </trkpt>
      <trkpt lat="45.27878" lon="6.19217">
        <ele>1429</ele>
        <time>2012-12-19T08:59:19.000Z</time>
      </trkpt>
      <trkpt lat="45.27876" lon="6.19206">
        <ele>1429.1999511719</ele>
        <time>2012-12-19T08:59:29.000Z</time>
      </trkpt>
      <trkpt lat="45.27875" lon="6.19199">
        <ele>1430.1999511719</ele>
        <time>2012-12-19T08:59:35.000Z</time>
      </trkpt>
      <trkpt lat="45.27878" lon="6.19193">
        <ele>1430.1999511719</ele>
        <time>2012-12-19T08:59:42.000Z</time>
      </trkpt>
      <trkpt lat="45.27879" lon="6.19183">
        <ele>1430</ele>
        <time>2012-12-19T08:59:51.000Z</time>
      </trkpt>
      <trkpt lat="45.2788" lon="6.19175">
        <ele>1430.8000488281</ele>
        <time>2012-12-19T08:59:59.000Z</time>
      </trkpt>
      <trkpt lat="45.2788" lon="6.19169">
        <ele>1431.5999755859</ele>
        <time>2012-12-19T09:00:07.000Z</time>
      </trkpt>
      <trkpt lat="45.27876" lon="6.19161">
        <ele>1431.5999755859</ele>
        <time>2012-12-19T09:00:23.000Z</time>
      </trkpt>
      <trkpt lat="45.27873" lon="6.1916">
        <ele>1432.1999511719</ele>
        <time>2012-12-19T09:00:27.000Z</time>
      </trkpt>
      <trkpt lat="45.27869" lon="6.19159">
        <ele>1433.1999511719</ele>
        <time>2012-12-19T09:00:34.000Z</time>
      </trkpt>
      <trkpt lat="45.27868" lon="6.19159">
        <ele>1433.4000244141</ele>
        <time>2012-12-19T09:00:36.000Z</time>
      </trkpt>
      <trkpt lat="45.27869" lon="6.19151">
        <ele>1434.1999511719</ele>
        <time>2012-12-19T09:02:31.000Z</time>
      </trkpt>
      <trkpt lat="45.27867" lon="6.19145">
        <ele>1435.1999511719</ele>
        <time>2012-12-19T09:02:39.000Z</time>
      </trkpt>
      <trkpt lat="45.27866" lon="6.19143">
        <ele>1435.4000244141</ele>
        <time>2012-12-19T09:02:42.000Z</time>
      </trkpt>
      <trkpt lat="45.27862" lon="6.19136">
        <ele>1436.8000488281</ele>
        <time>2012-12-19T09:02:49.000Z</time>
      </trkpt>
      <trkpt lat="45.27862" lon="6.19135">
        <ele>1437</ele>
        <time>2012-12-19T09:02:50.000Z</time>
      </trkpt>
      <trkpt lat="45.2786" lon="6.19124">
        <ele>1438</ele>
        <time>2012-12-19T09:03:00.000Z</time>
      </trkpt>
      <trkpt lat="45.27857" lon="6.19114">
        <ele>1438.8000488281</ele>
        <time>2012-12-19T09:03:08.000Z</time>
      </trkpt>
      <trkpt lat="45.27855" lon="6.19107">
        <ele>1439</ele>
        <time>2012-12-19T09:03:16.000Z</time>
      </trkpt>
      <trkpt lat="45.27854" lon="6.19101">
        <ele>1440.4000244141</ele>
        <time>2012-12-19T09:03:22.000Z</time>
      </trkpt>
      <trkpt lat="45.27854" lon="6.19096">
        <ele>1441</ele>
        <time>2012-12-19T09:03:27.000Z</time>
      </trkpt>
      <trkpt lat="45.27852" lon="6.19086">
        <ele>1440.8000488281</ele>
        <time>2012-12-19T09:03:37.000Z</time>
      </trkpt>
      <trkpt lat="45.27849" lon="6.1908">
        <ele>1442</ele>
        <time>2012-12-19T09:03:43.000Z</time>
      </trkpt>
      <trkpt lat="45.27844" lon="6.1907">
        <ele>1443.1999511719</ele>
        <time>2012-12-19T09:03:54.000Z</time>
      </trkpt>
      <trkpt lat="45.27843" lon="6.19066">
        <ele>1443.5999755859</ele>
        <time>2012-12-19T09:03:59.000Z</time>
      </trkpt>
      <trkpt lat="45.27842" lon="6.19055">
        <ele>1443.8000488281</ele>
        <time>2012-12-19T09:04:25.000Z</time>
      </trkpt>
      <trkpt lat="45.27839" lon="6.19049">
        <ele>1445</ele>
        <time>2012-12-19T09:04:32.000Z</time>
      </trkpt>
      <trkpt lat="45.27838" lon="6.1904">
        <ele>1444.5999755859</ele>
        <time>2012-12-19T09:04:40.000Z</time>
      </trkpt>
      <trkpt lat="45.27838" lon="6.1904">
        <ele>1444</ele>
        <time>2012-12-19T09:04:41.000Z</time>
      </trkpt>
      <trkpt lat="45.2784" lon="6.19035">
        <ele>1444.8000488281</ele>
        <time>2012-12-19T09:04:48.000Z</time>
      </trkpt>
      <trkpt lat="45.27843" lon="6.19028">
        <ele>1445.1999511719</ele>
        <time>2012-12-19T09:04:56.000Z</time>
      </trkpt>
      <trkpt lat="45.27845" lon="6.19022">
        <ele>1446.1999511719</ele>
        <time>2012-12-19T09:05:04.000Z</time>
      </trkpt>
      <trkpt lat="45.27845" lon="6.19021">
        <ele>1447.4000244141</ele>
        <time>2012-12-19T09:05:06.000Z</time>
      </trkpt>
      <trkpt lat="45.27845" lon="6.19019">
        <ele>1447.1999511719</ele>
        <time>2012-12-19T09:05:08.000Z</time>
      </trkpt>
      <trkpt lat="45.27843" lon="6.19015">
        <ele>1446.8000488281</ele>
        <time>2012-12-19T09:05:20.000Z</time>
      </trkpt>
      <trkpt lat="45.2784" lon="6.19008">
        <ele>1448</ele>
        <time>2012-12-19T09:05:32.000Z</time>
      </trkpt>
      <trkpt lat="45.27838" lon="6.19">
        <ele>1449.8000488281</ele>
        <time>2012-12-19T09:05:42.000Z</time>
      </trkpt>
      <trkpt lat="45.27838" lon="6.18993">
        <ele>1451.1999511719</ele>
        <time>2012-12-19T09:05:51.000Z</time>
      </trkpt>
      <trkpt lat="45.27842" lon="6.18987">
        <ele>1452.4000244141</ele>
        <time>2012-12-19T09:06:01.000Z</time>
      </trkpt>
      <trkpt lat="45.27845" lon="6.18982">
        <ele>1453.5999755859</ele>
        <time>2012-12-19T09:06:09.000Z</time>
      </trkpt>
      <trkpt lat="45.27848" lon="6.18979">
        <ele>1454.5999755859</ele>
        <time>2012-12-19T09:06:14.000Z</time>
      </trkpt>
      <trkpt lat="45.27848" lon="6.18979">
        <ele>1455</ele>
        <time>2012-12-19T09:06:15.000Z</time>
      </trkpt>
      <trkpt lat="45.27851" lon="6.18975">
        <ele>1456.1999511719</ele>
        <time>2012-12-19T09:06:23.000Z</time>
      </trkpt>
      <trkpt lat="45.27852" lon="6.18975">
        <ele>1456.4000244141</ele>
        <time>2012-12-19T09:06:25.000Z</time>
      </trkpt>
      <trkpt lat="45.27856" lon="6.18969">
        <ele>1457.5999755859</ele>
        <time>2012-12-19T09:06:44.000Z</time>
      </trkpt>
      <trkpt lat="45.27858" lon="6.18965">
        <ele>1459</ele>
        <time>2012-12-19T09:06:50.000Z</time>
      </trkpt>
      <trkpt lat="45.27858" lon="6.18958">
        <ele>1459.5999755859</ele>
        <time>2012-12-19T09:06:58.000Z</time>
      </trkpt>
      <trkpt lat="45.27857" lon="6.18952">
        <ele>1460.4000244141</ele>
        <time>2012-12-19T09:07:05.000Z</time>
      </trkpt>
      <trkpt lat="45.27857" lon="6.18944">
        <ele>1461.5999755859</ele>
        <time>2012-12-19T09:07:13.000Z</time>
      </trkpt>
      <trkpt lat="45.27858" lon="6.18935">
        <ele>1463.1999511719</ele>
        <time>2012-12-19T09:07:22.000Z</time>
      </trkpt>
      <trkpt lat="45.27858" lon="6.18928">
        <ele>1463.5999755859</ele>
        <time>2012-12-19T09:07:30.000Z</time>
      </trkpt>
      <trkpt lat="45.27859" lon="6.18921">
        <ele>1465</ele>
        <time>2012-12-19T09:07:38.000Z</time>
      </trkpt>
      <trkpt lat="45.27862" lon="6.18911">
        <ele>1465.5999755859</ele>
        <time>2012-12-19T09:07:48.000Z</time>
      </trkpt>
      <trkpt lat="45.27865" lon="6.18903">
        <ele>1466.4000244141</ele>
        <time>2012-12-19T09:07:57.000Z</time>
      </trkpt>
      <trkpt lat="45.27868" lon="6.18895">
        <ele>1467.5999755859</ele>
        <time>2012-12-19T09:08:06.000Z</time>
      </trkpt>
      <trkpt lat="45.2787" lon="6.18888">
        <ele>1468.1999511719</ele>
        <time>2012-12-19T09:08:13.000Z</time>
      </trkpt>
      <trkpt lat="45.2787" lon="6.18887">
        <ele>1469</ele>
        <time>2012-12-19T09:08:15.000Z</time>
      </trkpt>
      <trkpt lat="45.27873" lon="6.18878">
        <ele>1469.8000488281</ele>
        <time>2012-12-19T09:08:24.000Z</time>
      </trkpt>
      <trkpt lat="45.27876" lon="6.18871">
        <ele>1470.4000244141</ele>
        <time>2012-12-19T09:08:32.000Z</time>
      </trkpt>
      <trkpt lat="45.2788" lon="6.18865">
        <ele>1472</ele>
        <time>2012-12-19T09:08:40.000Z</time>
      </trkpt>
      <trkpt lat="45.27883" lon="6.18861">
        <ele>1471.8000488281</ele>
        <time>2012-12-19T09:08:46.000Z</time>
      </trkpt>
      <trkpt lat="45.27888" lon="6.18853">
        <ele>1473.5999755859</ele>
        <time>2012-12-19T09:08:57.000Z</time>
      </trkpt>
      <trkpt lat="45.27892" lon="6.18848">
        <ele>1473.5999755859</ele>
        <time>2012-12-19T09:09:03.000Z</time>
      </trkpt>
      <trkpt lat="45.27896" lon="6.1884">
        <ele>1474.4000244141</ele>
        <time>2012-12-19T09:09:12.000Z</time>
      </trkpt>
      <trkpt lat="45.27898" lon="6.18835">
        <ele>1475.1999511719</ele>
        <time>2012-12-19T09:09:18.000Z</time>
      </trkpt>
      <trkpt lat="45.27903" lon="6.1883">
        <ele>1476</ele>
        <time>2012-12-19T09:09:45.000Z</time>
      </trkpt>
      <trkpt lat="45.27904" lon="6.18827">
        <ele>1474.5999755859</ele>
        <time>2012-12-19T09:09:52.000Z</time>
      </trkpt>
      <trkpt lat="45.27908" lon="6.18819">
        <ele>1475</ele>
        <time>2012-12-19T09:10:01.000Z</time>
      </trkpt>
      <trkpt lat="45.27911" lon="6.18811">
        <ele>1476</ele>
        <time>2012-12-19T09:10:09.000Z</time>
      </trkpt>
      <trkpt lat="45.27915" lon="6.18799">
        <ele>1475</ele>
        <time>2012-12-19T09:10:19.000Z</time>
      </trkpt>
      <trkpt lat="45.27916" lon="6.18792">
        <ele>1476</ele>
        <time>2012-12-19T09:10:26.000Z</time>
      </trkpt>
      <trkpt lat="45.27917" lon="6.18784">
        <ele>1476.1999511719</ele>
        <time>2012-12-19T09:10:33.000Z</time>
      </trkpt>
      <trkpt lat="45.27917" lon="6.18782">
        <ele>1477</ele>
        <time>2012-12-19T09:10:35.000Z</time>
      </trkpt>
      <trkpt lat="45.27917" lon="6.18779">
        <ele>1477</ele>
        <time>2012-12-19T09:10:38.000Z</time>
      </trkpt>
      <trkpt lat="45.27916" lon="6.18777">
        <ele>1477</ele>
        <time>2012-12-19T09:10:40.000Z</time>
      </trkpt>
      <trkpt lat="45.27915" lon="6.18772">
        <ele>1476.8000488281</ele>
        <time>2012-12-19T09:10:45.000Z</time>
      </trkpt>
      <trkpt lat="45.27914" lon="6.18767">
        <ele>1477.4000244141</ele>
        <time>2012-12-19T09:10:49.000Z</time>
      </trkpt>
      <trkpt lat="45.2791" lon="6.1875">
        <ele>1477.4000244141</ele>
        <time>2012-12-19T09:11:03.000Z</time>
      </trkpt>
      <trkpt lat="45.27907" lon="6.18741">
        <ele>1477.1999511719</ele>
        <time>2012-12-19T09:11:12.000Z</time>
      </trkpt>
      <trkpt lat="45.27904" lon="6.18731">
        <ele>1477.4000244141</ele>
        <time>2012-12-19T09:11:22.000Z</time>
      </trkpt>
      <trkpt lat="45.27902" lon="6.18721">
        <ele>1478.8000488281</ele>
        <time>2012-12-19T09:11:32.000Z</time>
      </trkpt>
      <trkpt lat="45.279" lon="6.18713">
        <ele>1480</ele>
        <time>2012-12-19T09:11:41.000Z</time>
      </trkpt>
      <trkpt lat="45.279" lon="6.18706">
        <ele>1481</ele>
        <time>2012-12-19T09:11:47.000Z</time>
      </trkpt>
      <trkpt lat="45.279" lon="6.18698">
        <ele>1481.8000488281</ele>
        <time>2012-12-19T09:11:55.000Z</time>
      </trkpt>
      <trkpt lat="45.279" lon="6.1869">
        <ele>1481.8000488281</ele>
        <time>2012-12-19T09:12:02.000Z</time>
      </trkpt>
      <trkpt lat="45.279" lon="6.18681">
        <ele>1482.5999755859</ele>
        <time>2012-12-19T09:12:10.000Z</time>
      </trkpt>
      <trkpt lat="45.27898" lon="6.18671">
        <ele>1482.4000244141</ele>
        <time>2012-12-19T09:12:19.000Z</time>
      </trkpt>
      <trkpt lat="45.27898" lon="6.18663">
        <ele>1482.5999755859</ele>
        <time>2012-12-19T09:12:28.000Z</time>
      </trkpt>
      <trkpt lat="45.27899" lon="6.18656">
        <ele>1484.1999511719</ele>
        <time>2012-12-19T09:12:36.000Z</time>
      </trkpt>
      <trkpt lat="45.27901" lon="6.18649">
        <ele>1485.4000244141</ele>
        <time>2012-12-19T09:12:44.000Z</time>
      </trkpt>
      <trkpt lat="45.27901" lon="6.18643">
        <ele>1485.4000244141</ele>
        <time>2012-12-19T09:12:50.000Z</time>
      </trkpt>
      <trkpt lat="45.27901" lon="6.18636">
        <ele>1486.5999755859</ele>
        <time>2012-12-19T09:12:58.000Z</time>
      </trkpt>
      <trkpt lat="45.279" lon="6.18629">
        <ele>1487.1999511719</ele>
        <time>2012-12-19T09:13:05.000Z</time>
      </trkpt>
      <trkpt lat="45.279" lon="6.18621">
        <ele>1487.8000488281</ele>
        <time>2012-12-19T09:13:13.000Z</time>
      </trkpt>
      <trkpt lat="45.27901" lon="6.18616">
        <ele>1487.8000488281</ele>
        <time>2012-12-19T09:13:18.000Z</time>
      </trkpt>
      <trkpt lat="45.27902" lon="6.1861">
        <ele>1489.5999755859</ele>
        <time>2012-12-19T09:13:26.000Z</time>
      </trkpt>
      <trkpt lat="45.27904" lon="6.18604">
        <ele>1490.5999755859</ele>
        <time>2012-12-19T09:13:33.000Z</time>
      </trkpt>
      <trkpt lat="45.27903" lon="6.18599">
        <ele>1491.1999511719</ele>
        <time>2012-12-19T09:13:39.000Z</time>
      </trkpt>
      <trkpt lat="45.27904" lon="6.18594">
        <ele>1491.5999755859</ele>
        <time>2012-12-19T09:13:45.000Z</time>
      </trkpt>
      <trkpt lat="45.27905" lon="6.18588">
        <ele>1492.8000488281</ele>
        <time>2012-12-19T09:13:52.000Z</time>
      </trkpt>
      <trkpt lat="45.27905" lon="6.18583">
        <ele>1493.8000488281</ele>
        <time>2012-12-19T09:13:58.000Z</time>
      </trkpt>
      <trkpt lat="45.27905" lon="6.18578">
        <ele>1494.4000244141</ele>
        <time>2012-12-19T09:14:04.000Z</time>
      </trkpt>
      <trkpt lat="45.27906" lon="6.18572">
        <ele>1495.5999755859</ele>
        <time>2012-12-19T09:14:11.000Z</time>
      </trkpt>
      <trkpt lat="45.27906" lon="6.18568">
        <ele>1495.5999755859</ele>
        <time>2012-12-19T09:14:16.000Z</time>
      </trkpt>
      <trkpt lat="45.27905" lon="6.1856">
        <ele>1497</ele>
        <time>2012-12-19T09:14:26.000Z</time>
      </trkpt>
      <trkpt lat="45.27904" lon="6.18555">
        <ele>1497.5999755859</ele>
        <time>2012-12-19T09:14:31.000Z</time>
      </trkpt>
      <trkpt lat="45.27903" lon="6.18552">
        <ele>1497.5999755859</ele>
        <time>2012-12-19T09:14:36.000Z</time>
      </trkpt>
      <trkpt lat="45.27901" lon="6.18548">
        <ele>1498.8000488281</ele>
        <time>2012-12-19T09:14:42.000Z</time>
      </trkpt>
      <trkpt lat="45.27899" lon="6.18544">
        <ele>1499.8000488281</ele>
        <time>2012-12-19T09:14:48.000Z</time>
      </trkpt>
      <trkpt lat="45.27897" lon="6.1854">
        <ele>1499.5999755859</ele>
        <time>2012-12-19T09:14:53.000Z</time>
      </trkpt>
      <trkpt lat="45.27894" lon="6.18532">
        <ele>1501</ele>
        <time>2012-12-19T09:15:03.000Z</time>
      </trkpt>
      <trkpt lat="45.27893" lon="6.18526">
        <ele>1502.4000244141</ele>
        <time>2012-12-19T09:15:10.000Z</time>
      </trkpt>
      <trkpt lat="45.27892" lon="6.18521">
        <ele>1502.8000488281</ele>
        <time>2012-12-19T09:15:15.000Z</time>
      </trkpt>
      <trkpt lat="45.27893" lon="6.18516">
        <ele>1503.4000244141</ele>
        <time>2012-12-19T09:15:20.000Z</time>
      </trkpt>
      <trkpt lat="45.27892" lon="6.18512">
        <ele>1504.4000244141</ele>
        <time>2012-12-19T09:15:25.000Z</time>
      </trkpt>
      <trkpt lat="45.27888" lon="6.18502">
        <ele>1504.8000488281</ele>
        <time>2012-12-19T09:15:37.000Z</time>
      </trkpt>
      <trkpt lat="45.27885" lon="6.18494">
        <ele>1506</ele>
        <time>2012-12-19T09:15:46.000Z</time>
      </trkpt>
      <trkpt lat="45.27883" lon="6.18487">
        <ele>1506.1999511719</ele>
        <time>2012-12-19T09:15:53.000Z</time>
      </trkpt>
      <trkpt lat="45.27882" lon="6.1848">
        <ele>1508.1999511719</ele>
        <time>2012-12-19T09:16:04.000Z</time>
      </trkpt>
      <trkpt lat="45.27884" lon="6.18474">
        <ele>1509.4000244141</ele>
        <time>2012-12-19T09:16:11.000Z</time>
      </trkpt>
      <trkpt lat="45.27885" lon="6.18471">
        <ele>1509.8000488281</ele>
        <time>2012-12-19T09:16:16.000Z</time>
      </trkpt>
      <trkpt lat="45.27886" lon="6.18468">
        <ele>1510.8000488281</ele>
        <time>2012-12-19T09:16:21.000Z</time>
      </trkpt>
      <trkpt lat="45.27888" lon="6.18464">
        <ele>1511.4000244141</ele>
        <time>2012-12-19T09:16:27.000Z</time>
      </trkpt>
      <trkpt lat="45.27892" lon="6.18458">
        <ele>1511.5999755859</ele>
        <time>2012-12-19T09:16:35.000Z</time>
      </trkpt>
      <trkpt lat="45.27894" lon="6.18455">
        <ele>1512.4000244141</ele>
        <time>2012-12-19T09:16:40.000Z</time>
      </trkpt>
      <trkpt lat="45.27895" lon="6.1845">
        <ele>1514</ele>
        <time>2012-12-19T09:16:56.000Z</time>
      </trkpt>
      <trkpt lat="45.27897" lon="6.18447">
        <ele>1515</ele>
        <time>2012-12-19T09:17:01.000Z</time>
      </trkpt>
      <trkpt lat="45.279" lon="6.18447">
        <ele>1514.5999755859</ele>
        <time>2012-12-19T09:17:05.000Z</time>
      </trkpt>
      <trkpt lat="45.27906" lon="6.1845">
        <ele>1515.5999755859</ele>
        <time>2012-12-19T09:17:14.000Z</time>
      </trkpt>
      <trkpt lat="45.27911" lon="6.1845">
        <ele>1517.4000244141</ele>
        <time>2012-12-19T09:17:22.000Z</time>
      </trkpt>
      <trkpt lat="45.27909" lon="6.18446">
        <ele>1518</ele>
        <time>2012-12-19T09:17:28.000Z</time>
      </trkpt>
      <trkpt lat="45.27907" lon="6.18443">
        <ele>1519.5999755859</ele>
        <time>2012-12-19T09:17:34.000Z</time>
      </trkpt>
      <trkpt lat="45.27905" lon="6.18437">
        <ele>1520</ele>
        <time>2012-12-19T09:17:42.000Z</time>
      </trkpt>
      <trkpt lat="45.27903" lon="6.1843">
        <ele>1521.4000244141</ele>
        <time>2012-12-19T09:17:51.000Z</time>
      </trkpt>
      <trkpt lat="45.279" lon="6.18423">
        <ele>1521.8000488281</ele>
        <time>2012-12-19T09:18:01.000Z</time>
      </trkpt>
      <trkpt lat="45.27899" lon="6.18418">
        <ele>1522.4000244141</ele>
        <time>2012-12-19T09:18:09.000Z</time>
      </trkpt>
      <trkpt lat="45.27898" lon="6.18414">
        <ele>1523.5999755859</ele>
        <time>2012-12-19T09:18:14.000Z</time>
      </trkpt>
      <trkpt lat="45.27899" lon="6.1841">
        <ele>1524.1999511719</ele>
        <time>2012-12-19T09:18:20.000Z</time>
      </trkpt>
      <trkpt lat="45.27904" lon="6.18404">
        <ele>1524.5999755859</ele>
        <time>2012-12-19T09:18:28.000Z</time>
      </trkpt>
      <trkpt lat="45.27906" lon="6.18402">
        <ele>1525.8000488281</ele>
        <time>2012-12-19T09:18:33.000Z</time>
      </trkpt>
      <trkpt lat="45.27911" lon="6.18397">
        <ele>1527.4000244141</ele>
        <time>2012-12-19T09:18:43.000Z</time>
      </trkpt>
      <trkpt lat="45.27912" lon="6.18397">
        <ele>1526.5999755859</ele>
        <time>2012-12-19T09:18:44.000Z</time>
      </trkpt>
      <trkpt lat="45.27912" lon="6.18396">
        <ele>1526.1999511719</ele>
        <time>2012-12-19T09:18:46.000Z</time>
      </trkpt>
      <trkpt lat="45.2791" lon="6.18401">
        <ele>1527.1999511719</ele>
        <time>2012-12-19T09:18:58.000Z</time>
      </trkpt>
      <trkpt lat="45.27911" lon="6.18411">
        <ele>1528</ele>
        <time>2012-12-19T09:19:19.000Z</time>
      </trkpt>
      <trkpt lat="45.27914" lon="6.18411">
        <ele>1530.1999511719</ele>
        <time>2012-12-19T09:19:24.000Z</time>
      </trkpt>
      <trkpt lat="45.2792" lon="6.18404">
        <ele>1530.4000244141</ele>
        <time>2012-12-19T09:19:35.000Z</time>
      </trkpt>
      <trkpt lat="45.27921" lon="6.18401">
        <ele>1530.8000488281</ele>
        <time>2012-12-19T09:19:39.000Z</time>
      </trkpt>
      <trkpt lat="45.27923" lon="6.18399">
        <ele>1531.5999755859</ele>
        <time>2012-12-19T09:19:42.000Z</time>
      </trkpt>
      <trkpt lat="45.27928" lon="6.18394">
        <ele>1533</ele>
        <time>2012-12-19T09:19:49.000Z</time>
      </trkpt>
      <trkpt lat="45.27931" lon="6.18391">
        <ele>1534</ele>
        <time>2012-12-19T09:19:55.000Z</time>
      </trkpt>
      <trkpt lat="45.27933" lon="6.18388">
        <ele>1533.5999755859</ele>
        <time>2012-12-19T09:20:00.000Z</time>
      </trkpt>
      <trkpt lat="45.27938" lon="6.18381">
        <ele>1535.1999511719</ele>
        <time>2012-12-19T09:20:10.000Z</time>
      </trkpt>
      <trkpt lat="45.27938" lon="6.1838">
        <ele>1535.1999511719</ele>
        <time>2012-12-19T09:20:12.000Z</time>
      </trkpt>
      <trkpt lat="45.27941" lon="6.18373">
        <ele>1536.8000488281</ele>
        <time>2012-12-19T09:20:26.000Z</time>
      </trkpt>
      <trkpt lat="45.27943" lon="6.1837">
        <ele>1537</ele>
        <time>2012-12-19T09:20:31.000Z</time>
      </trkpt>
      <trkpt lat="45.27943" lon="6.18366">
        <ele>1538.8000488281</ele>
        <time>2012-12-19T09:20:37.000Z</time>
      </trkpt>
      <trkpt lat="45.27945" lon="6.18363">
        <ele>1538.8000488281</ele>
        <time>2012-12-19T09:20:42.000Z</time>
      </trkpt>
      <trkpt lat="45.27946" lon="6.18363">
        <ele>1538.5999755859</ele>
        <time>2012-12-19T09:20:43.000Z</time>
      </trkpt>
      <trkpt lat="45.27948" lon="6.18359">
        <ele>1539.8000488281</ele>
        <time>2012-12-19T09:20:50.000Z</time>
      </trkpt>
      <trkpt lat="45.27951" lon="6.18356">
        <ele>1541.1999511719</ele>
        <time>2012-12-19T09:20:56.000Z</time>
      </trkpt>
      <trkpt lat="45.27953" lon="6.18352">
        <ele>1542.8000488281</ele>
        <time>2012-12-19T09:21:05.000Z</time>
      </trkpt>
      <trkpt lat="45.27956" lon="6.18347">
        <ele>1542.8000488281</ele>
        <time>2012-12-19T09:21:14.000Z</time>
      </trkpt>
      <trkpt lat="45.27956" lon="6.18344">
        <ele>1544.1999511719</ele>
        <time>2012-12-19T09:21:19.000Z</time>
      </trkpt>
      <trkpt lat="45.27957" lon="6.18341">
        <ele>1544.8000488281</ele>
        <time>2012-12-19T09:21:25.000Z</time>
      </trkpt>
      <trkpt lat="45.27959" lon="6.18337">
        <ele>1545.5999755859</ele>
        <time>2012-12-19T09:21:31.000Z</time>
      </trkpt>
      <trkpt lat="45.27962" lon="6.18332">
        <ele>1546</ele>
        <time>2012-12-19T09:21:39.000Z</time>
      </trkpt>
      <trkpt lat="45.27966" lon="6.18326">
        <ele>1546.8000488281</ele>
        <time>2012-12-19T09:21:47.000Z</time>
      </trkpt>
      <trkpt lat="45.27966" lon="6.18323">
        <ele>1547.4000244141</ele>
        <time>2012-12-19T09:21:52.000Z</time>
      </trkpt>
      <trkpt lat="45.2797" lon="6.18316">
        <ele>1548</ele>
        <time>2012-12-19T09:22:03.000Z</time>
      </trkpt>
      <trkpt lat="45.27972" lon="6.18311">
        <ele>1548.8000488281</ele>
        <time>2012-12-19T09:22:10.000Z</time>
      </trkpt>
      <trkpt lat="45.27975" lon="6.18304">
        <ele>1549.4000244141</ele>
        <time>2012-12-19T09:22:20.000Z</time>
      </trkpt>
      <trkpt lat="45.27978" lon="6.18299">
        <ele>1550.1999511719</ele>
        <time>2012-12-19T09:22:26.000Z</time>
      </trkpt>
      <trkpt lat="45.2798" lon="6.18297">
        <ele>1550.4000244141</ele>
        <time>2012-12-19T09:22:30.000Z</time>
      </trkpt>
      <trkpt lat="45.27983" lon="6.18292">
        <ele>1550.8000488281</ele>
        <time>2012-12-19T09:22:36.000Z</time>
      </trkpt>
      <trkpt lat="45.27985" lon="6.18289">
        <ele>1550.8000488281</ele>
        <time>2012-12-19T09:22:40.000Z</time>
      </trkpt>
      <trkpt lat="45.27984" lon="6.18286">
        <ele>1551</ele>
        <time>2012-12-19T09:22:44.000Z</time>
      </trkpt>
      <trkpt lat="45.27989" lon="6.18282">
        <ele>1550.8000488281</ele>
        <time>2012-12-19T09:23:07.000Z</time>
      </trkpt>
      <trkpt lat="45.27992" lon="6.18279">
        <ele>1550.4000244141</ele>
        <time>2012-12-19T09:23:12.000Z</time>
      </trkpt>
      <trkpt lat="45.27997" lon="6.18272">
        <ele>1550.1999511719</ele>
        <time>2012-12-19T09:23:38.000Z</time>
      </trkpt>
      <trkpt lat="45.28" lon="6.18265">
        <ele>1551.1999511719</ele>
        <time>2012-12-19T09:23:47.000Z</time>
      </trkpt>
      <trkpt lat="45.28002" lon="6.18258">
        <ele>1551.8000488281</ele>
        <time>2012-12-19T09:23:55.000Z</time>
      </trkpt>
      <trkpt lat="45.28002" lon="6.18251">
        <ele>1551.4000244141</ele>
        <time>2012-12-19T09:24:03.000Z</time>
      </trkpt>
      <trkpt lat="45.28001" lon="6.18246">
        <ele>1553.4000244141</ele>
        <time>2012-12-19T09:24:10.000Z</time>
      </trkpt>
      <trkpt lat="45.28001" lon="6.18243">
        <ele>1554.1999511719</ele>
        <time>2012-12-19T09:24:15.000Z</time>
      </trkpt>
      <trkpt lat="45.28001" lon="6.18238">
        <ele>1554.4000244141</ele>
        <time>2012-12-19T09:24:22.000Z</time>
      </trkpt>
      <trkpt lat="45.28" lon="6.1823">
        <ele>1554</ele>
        <time>2012-12-19T09:24:29.000Z</time>
      </trkpt>
      <trkpt lat="45.28" lon="6.18228">
        <ele>1553.8000488281</ele>
        <time>2012-12-19T09:24:31.000Z</time>
      </trkpt>
      <trkpt lat="45.28" lon="6.18225">
        <ele>1553.1999511719</ele>
        <time>2012-12-19T09:24:34.000Z</time>
      </trkpt>
      <trkpt lat="45.27997" lon="6.18216">
        <ele>1554.1999511719</ele>
        <time>2012-12-19T09:24:44.000Z</time>
      </trkpt>
      <trkpt lat="45.27996" lon="6.18213">
        <ele>1554</ele>
        <time>2012-12-19T09:24:50.000Z</time>
      </trkpt>
      <trkpt lat="45.27993" lon="6.18208">
        <ele>1556</ele>
        <time>2012-12-19T09:24:58.000Z</time>
      </trkpt>
      <trkpt lat="45.2799" lon="6.18203">
        <ele>1556.5999755859</ele>
        <time>2012-12-19T09:25:05.000Z</time>
      </trkpt>
      <trkpt lat="45.2799" lon="6.18203">
        <ele>1556.5999755859</ele>
        <time>2012-12-19T09:25:06.000Z</time>
      </trkpt>
      <trkpt lat="45.27988" lon="6.18196">
        <ele>1557.5999755859</ele>
        <time>2012-12-19T09:25:33.000Z</time>
      </trkpt>
      <trkpt lat="45.27986" lon="6.18189">
        <ele>1558.5999755859</ele>
        <time>2012-12-19T09:25:42.000Z</time>
      </trkpt>
      <trkpt lat="45.27983" lon="6.18179">
        <ele>1559.8000488281</ele>
        <time>2012-12-19T09:25:53.000Z</time>
      </trkpt>
      <trkpt lat="45.27982" lon="6.18173">
        <ele>1560.5999755859</ele>
        <time>2012-12-19T09:26:01.000Z</time>
      </trkpt>
      <trkpt lat="45.27982" lon="6.18168">
        <ele>1561.4000244141</ele>
        <time>2012-12-19T09:26:08.000Z</time>
      </trkpt>
      <trkpt lat="45.27981" lon="6.1816">
        <ele>1562.4000244141</ele>
        <time>2012-12-19T09:26:19.000Z</time>
      </trkpt>
      <trkpt lat="45.27981" lon="6.18154">
        <ele>1563</ele>
        <time>2012-12-19T09:26:26.000Z</time>
      </trkpt>
      <trkpt lat="45.27982" lon="6.18146">
        <ele>1563.5999755859</ele>
        <time>2012-12-19T09:26:34.000Z</time>
      </trkpt>
      <trkpt lat="45.27983" lon="6.18136">
        <ele>1563.8000488281</ele>
        <time>2012-12-19T09:26:44.000Z</time>
      </trkpt>
      <trkpt lat="45.27984" lon="6.18128">
        <ele>1565</ele>
        <time>2012-12-19T09:26:53.000Z</time>
      </trkpt>
      <trkpt lat="45.27985" lon="6.18123">
        <ele>1565.1999511719</ele>
        <time>2012-12-19T09:26:59.000Z</time>
      </trkpt>
      <trkpt lat="45.27985" lon="6.1811">
        <ele>1565.5999755859</ele>
        <time>2012-12-19T09:27:10.000Z</time>
      </trkpt>
      <trkpt lat="45.27984" lon="6.18106">
        <ele>1566.1999511719</ele>
        <time>2012-12-19T09:27:16.000Z</time>
      </trkpt>
      <trkpt lat="45.27983" lon="6.181">
        <ele>1566.5999755859</ele>
        <time>2012-12-19T09:27:23.000Z</time>
      </trkpt>
      <trkpt lat="45.27983" lon="6.18093">
        <ele>1567.8000488281</ele>
        <time>2012-12-19T09:27:31.000Z</time>
      </trkpt>
      <trkpt lat="45.27985" lon="6.18088">
        <ele>1568.1999511719</ele>
        <time>2012-12-19T09:27:37.000Z</time>
      </trkpt>
      <trkpt lat="45.27983" lon="6.18079">
        <ele>1569.8000488281</ele>
        <time>2012-12-19T09:27:47.000Z</time>
      </trkpt>
      <trkpt lat="45.27981" lon="6.18069">
        <ele>1570.4000244141</ele>
        <time>2012-12-19T09:27:57.000Z</time>
      </trkpt>
      <trkpt lat="45.27981" lon="6.18064">
        <ele>1570.8000488281</ele>
        <time>2012-12-19T09:28:04.000Z</time>
      </trkpt>
      <trkpt lat="45.27979" lon="6.18057">
        <ele>1572.4000244141</ele>
        <time>2012-12-19T09:28:12.000Z</time>
      </trkpt>
      <trkpt lat="45.27978" lon="6.18051">
        <ele>1573.5999755859</ele>
        <time>2012-12-19T09:28:20.000Z</time>
      </trkpt>
      <trkpt lat="45.27978" lon="6.18042">
        <ele>1574.8000488281</ele>
        <time>2012-12-19T09:28:30.000Z</time>
      </trkpt>
      <trkpt lat="45.27978" lon="6.18036">
        <ele>1574.8000488281</ele>
        <time>2012-12-19T09:28:37.000Z</time>
      </trkpt>
      <trkpt lat="45.27977" lon="6.1803">
        <ele>1576</ele>
        <time>2012-12-19T09:28:44.000Z</time>
      </trkpt>
      <trkpt lat="45.27977" lon="6.18023">
        <ele>1576.8000488281</ele>
        <time>2012-12-19T09:28:54.000Z</time>
      </trkpt>
      <trkpt lat="45.27976" lon="6.18017">
        <ele>1577.1999511719</ele>
        <time>2012-12-19T09:29:00.000Z</time>
      </trkpt>
      <trkpt lat="45.27976" lon="6.18009">
        <ele>1577.8000488281</ele>
        <time>2012-12-19T09:29:09.000Z</time>
      </trkpt>
      <trkpt lat="45.27976" lon="6.18">
        <ele>1578.8000488281</ele>
        <time>2012-12-19T09:29:17.000Z</time>
      </trkpt>
      <trkpt lat="45.27976" lon="6.17992">
        <ele>1579.8000488281</ele>
        <time>2012-12-19T09:29:25.000Z</time>
      </trkpt>
      <trkpt lat="45.27973" lon="6.17983">
        <ele>1579.5999755859</ele>
        <time>2012-12-19T09:29:34.000Z</time>
      </trkpt>
      <trkpt lat="45.2797" lon="6.17978">
        <ele>1580.5999755859</ele>
        <time>2012-12-19T09:29:40.000Z</time>
      </trkpt>
      <trkpt lat="45.27971" lon="6.17973">
        <ele>1581</ele>
        <time>2012-12-19T09:29:46.000Z</time>
      </trkpt>
      <trkpt lat="45.27972" lon="6.17965">
        <ele>1581.1999511719</ele>
        <time>2012-12-19T09:29:53.000Z</time>
      </trkpt>
      <trkpt lat="45.27972" lon="6.17958">
        <ele>1581.1999511719</ele>
        <time>2012-12-19T09:29:59.000Z</time>
      </trkpt>
      <trkpt lat="45.27973" lon="6.17951">
        <ele>1581</ele>
        <time>2012-12-19T09:30:06.000Z</time>
      </trkpt>
      <trkpt lat="45.2797" lon="6.17946">
        <ele>1582</ele>
        <time>2012-12-19T09:30:12.000Z</time>
      </trkpt>
      <trkpt lat="45.27969" lon="6.1794">
        <ele>1582.8000488281</ele>
        <time>2012-12-19T09:30:19.000Z</time>
      </trkpt>
      <trkpt lat="45.27969" lon="6.17932">
        <ele>1583.8000488281</ele>
        <time>2012-12-19T09:30:28.000Z</time>
      </trkpt>
      <trkpt lat="45.27968" lon="6.17927">
        <ele>1584.4000244141</ele>
        <time>2012-12-19T09:30:34.000Z</time>
      </trkpt>
      <trkpt lat="45.27968" lon="6.17921">
        <ele>1584.5999755859</ele>
        <time>2012-12-19T09:30:41.000Z</time>
      </trkpt>
      <trkpt lat="45.2797" lon="6.17912">
        <ele>1586</ele>
        <time>2012-12-19T09:30:51.000Z</time>
      </trkpt>
      <trkpt lat="45.27971" lon="6.17906">
        <ele>1587</ele>
        <time>2012-12-19T09:30:58.000Z</time>
      </trkpt>
      <trkpt lat="45.27974" lon="6.17898">
        <ele>1587.8000488281</ele>
        <time>2012-12-19T09:31:06.000Z</time>
      </trkpt>
      <trkpt lat="45.27979" lon="6.1789">
        <ele>1588.8000488281</ele>
        <time>2012-12-19T09:31:15.000Z</time>
      </trkpt>
      <trkpt lat="45.27979" lon="6.17889">
        <ele>1589.1999511719</ele>
        <time>2012-12-19T09:31:16.000Z</time>
      </trkpt>
      <trkpt lat="45.2798" lon="6.17881">
        <ele>1589.1999511719</ele>
        <time>2012-12-19T09:31:25.000Z</time>
      </trkpt>
      <trkpt lat="45.27982" lon="6.17878">
        <ele>1589.4000244141</ele>
        <time>2012-12-19T09:31:29.000Z</time>
      </trkpt>
      <trkpt lat="45.27979" lon="6.17875">
        <ele>1590.1999511719</ele>
        <time>2012-12-19T09:32:04.000Z</time>
      </trkpt>
      <trkpt lat="45.2798" lon="6.17867">
        <ele>1591</ele>
        <time>2012-12-19T09:32:12.000Z</time>
      </trkpt>
      <trkpt lat="45.27984" lon="6.17857">
        <ele>1592.1999511719</ele>
        <time>2012-12-19T09:32:21.000Z</time>
      </trkpt>
      <trkpt lat="45.27986" lon="6.1785">
        <ele>1592.1999511719</ele>
        <time>2012-12-19T09:32:28.000Z</time>
      </trkpt>
      <trkpt lat="45.27988" lon="6.17844">
        <ele>1593.4000244141</ele>
        <time>2012-12-19T09:32:34.000Z</time>
      </trkpt>
      <trkpt lat="45.27988" lon="6.17837">
        <ele>1593.5999755859</ele>
        <time>2012-12-19T09:32:41.000Z</time>
      </trkpt>
      <trkpt lat="45.27989" lon="6.17828">
        <ele>1592.8000488281</ele>
        <time>2012-12-19T09:32:49.000Z</time>
      </trkpt>
      <trkpt lat="45.27989" lon="6.17827">
        <ele>1593.1999511719</ele>
        <time>2012-12-19T09:32:50.000Z</time>
      </trkpt>
      <trkpt lat="45.27988" lon="6.17818">
        <ele>1594</ele>
        <time>2012-12-19T09:32:58.000Z</time>
      </trkpt>
      <trkpt lat="45.2799" lon="6.17809">
        <ele>1595</ele>
        <time>2012-12-19T09:33:07.000Z</time>
      </trkpt>
      <trkpt lat="45.2799" lon="6.17804">
        <ele>1595.5999755859</ele>
        <time>2012-12-19T09:33:13.000Z</time>
      </trkpt>
      <trkpt lat="45.27986" lon="6.17798">
        <ele>1596.5999755859</ele>
        <time>2012-12-19T09:33:22.000Z</time>
      </trkpt>
      <trkpt lat="45.27988" lon="6.17791">
        <ele>1597.4000244141</ele>
        <time>2012-12-19T09:33:30.000Z</time>
      </trkpt>
      <trkpt lat="45.27987" lon="6.17785">
        <ele>1598</ele>
        <time>2012-12-19T09:33:38.000Z</time>
      </trkpt>
      <trkpt lat="45.27987" lon="6.17779">
        <ele>1599</ele>
        <time>2012-12-19T09:33:44.000Z</time>
      </trkpt>
      <trkpt lat="45.27986" lon="6.17772">
        <ele>1599</ele>
        <time>2012-12-19T09:33:51.000Z</time>
      </trkpt>
      <trkpt lat="45.27985" lon="6.1777">
        <ele>1598.5999755859</ele>
        <time>2012-12-19T09:33:53.000Z</time>
      </trkpt>
      <trkpt lat="45.27986" lon="6.1776">
        <ele>1599</ele>
        <time>2012-12-19T09:34:02.000Z</time>
      </trkpt>
      <trkpt lat="45.2798" lon="6.17753">
        <ele>1599</ele>
        <time>2012-12-19T09:34:10.000Z</time>
      </trkpt>
      <trkpt lat="45.27974" lon="6.17748">
        <ele>1599</ele>
        <time>2012-12-19T09:34:19.000Z</time>
      </trkpt>
      <trkpt lat="45.27967" lon="6.17747">
        <ele>1601.4000244141</ele>
        <time>2012-12-19T09:34:27.000Z</time>
      </trkpt>
      <trkpt lat="45.27967" lon="6.17746">
        <ele>1601.1999511719</ele>
        <time>2012-12-19T09:34:28.000Z</time>
      </trkpt>
      <trkpt lat="45.27965" lon="6.1774">
        <ele>1601.8000488281</ele>
        <time>2012-12-19T09:34:36.000Z</time>
      </trkpt>
      <trkpt lat="45.27963" lon="6.17731">
        <ele>1601.8000488281</ele>
        <time>2012-12-19T09:34:45.000Z</time>
      </trkpt>
      <trkpt lat="45.27964" lon="6.17725">
        <ele>1602.1999511719</ele>
        <time>2012-12-19T09:34:52.000Z</time>
      </trkpt>
      <trkpt lat="45.27965" lon="6.17717">
        <ele>1602.8000488281</ele>
        <time>2012-12-19T09:35:00.000Z</time>
      </trkpt>
      <trkpt lat="45.27963" lon="6.1771">
        <ele>1603.4000244141</ele>
        <time>2012-12-19T09:35:07.000Z</time>
      </trkpt>
      <trkpt lat="45.27962" lon="6.17704">
        <ele>1603.1999511719</ele>
        <time>2012-12-19T09:35:13.000Z</time>
      </trkpt>
      <trkpt lat="45.27961" lon="6.17696">
        <ele>1603.4000244141</ele>
        <time>2012-12-19T09:35:20.000Z</time>
      </trkpt>
      <trkpt lat="45.27961" lon="6.17688">
        <ele>1603.4000244141</ele>
        <time>2012-12-19T09:35:28.000Z</time>
      </trkpt>
      <trkpt lat="45.27961" lon="6.17681">
        <ele>1603.1999511719</ele>
        <time>2012-12-19T09:35:35.000Z</time>
      </trkpt>
      <trkpt lat="45.2796" lon="6.17674">
        <ele>1602.8000488281</ele>
        <time>2012-12-19T09:35:42.000Z</time>
      </trkpt>
      <trkpt lat="45.2796" lon="6.17669">
        <ele>1604.4000244141</ele>
        <time>2012-12-19T09:35:47.000Z</time>
      </trkpt>
      <trkpt lat="45.27959" lon="6.17661">
        <ele>1604.4000244141</ele>
        <time>2012-12-19T09:35:54.000Z</time>
      </trkpt>
      <trkpt lat="45.27958" lon="6.1766">
        <ele>1604.8000488281</ele>
        <time>2012-12-19T09:35:55.000Z</time>
      </trkpt>
      <trkpt lat="45.27959" lon="6.17652">
        <ele>1604.1999511719</ele>
        <time>2012-12-19T09:36:02.000Z</time>
      </trkpt>
      <trkpt lat="45.27961" lon="6.17648">
        <ele>1604.5999755859</ele>
        <time>2012-12-19T09:36:07.000Z</time>
      </trkpt>
      <trkpt lat="45.27963" lon="6.17645">
        <ele>1605.5999755859</ele>
        <time>2012-12-19T09:36:11.000Z</time>
      </trkpt>
      <trkpt lat="45.27967" lon="6.17639">
        <ele>1605.5999755859</ele>
        <time>2012-12-19T09:36:19.000Z</time>
      </trkpt>
      <trkpt lat="45.27967" lon="6.17637">
        <ele>1606.8000488281</ele>
        <time>2012-12-19T09:36:24.000Z</time>
      </trkpt>
      <trkpt lat="45.2797" lon="6.17633">
        <ele>1607.4000244141</ele>
        <time>2012-12-19T09:36:35.000Z</time>
      </trkpt>
      <trkpt lat="45.27969" lon="6.17632">
        <ele>1608.1999511719</ele>
        <time>2012-12-19T09:36:40.000Z</time>
      </trkpt>
      <trkpt lat="45.27971" lon="6.17629">
        <ele>1609.1999511719</ele>
        <time>2012-12-19T09:36:47.000Z</time>
      </trkpt>
      <trkpt lat="45.27975" lon="6.17624">
        <ele>1609.5999755859</ele>
        <time>2012-12-19T09:36:53.000Z</time>
      </trkpt>
      <trkpt lat="45.27977" lon="6.1762">
        <ele>1610.5999755859</ele>
        <time>2012-12-19T09:36:58.000Z</time>
      </trkpt>
      <trkpt lat="45.27976" lon="6.17614">
        <ele>1610.4000244141</ele>
        <time>2012-12-19T09:37:05.000Z</time>
      </trkpt>
      <trkpt lat="45.27977" lon="6.17608">
        <ele>1611.8000488281</ele>
        <time>2012-12-19T09:37:12.000Z</time>
      </trkpt>
      <trkpt lat="45.27975" lon="6.17604">
        <ele>1610.4000244141</ele>
        <time>2012-12-19T09:37:17.000Z</time>
      </trkpt>
      <trkpt lat="45.27977" lon="6.17598">
        <ele>1612.1999511719</ele>
        <time>2012-12-19T09:37:25.000Z</time>
      </trkpt>
      <trkpt lat="45.27979" lon="6.17591">
        <ele>1613</ele>
        <time>2012-12-19T09:37:33.000Z</time>
      </trkpt>
      <trkpt lat="45.27981" lon="6.17583">
        <ele>1613.8000488281</ele>
        <time>2012-12-19T09:37:41.000Z</time>
      </trkpt>
      <trkpt lat="45.2798" lon="6.17579">
        <ele>1614.1999511719</ele>
        <time>2012-12-19T09:37:46.000Z</time>
      </trkpt>
      <trkpt lat="45.27983" lon="6.1757">
        <ele>1615.5999755859</ele>
        <time>2012-12-19T09:38:15.000Z</time>
      </trkpt>
      <trkpt lat="45.27983" lon="6.1757">
        <ele>1616.1999511719</ele>
        <time>2012-12-19T09:38:22.000Z</time>
      </trkpt>
      <trkpt lat="45.27986" lon="6.17567">
        <ele>1617</ele>
        <time>2012-12-19T09:38:30.000Z</time>
      </trkpt>
      <trkpt lat="45.27988" lon="6.17566">
        <ele>1618.1999511719</ele>
        <time>2012-12-19T09:38:38.000Z</time>
      </trkpt>
      <trkpt lat="45.27989" lon="6.17565">
        <ele>1619.5999755859</ele>
        <time>2012-12-19T09:39:13.000Z</time>
      </trkpt>
      <trkpt lat="45.27993" lon="6.17561">
        <ele>1621</ele>
        <time>2012-12-19T09:39:23.000Z</time>
      </trkpt>
      <trkpt lat="45.27994" lon="6.17558">
        <ele>1621.1999511719</ele>
        <time>2012-12-19T09:39:28.000Z</time>
      </trkpt>
      <trkpt lat="45.27998" lon="6.17555">
        <ele>1622.4000244141</ele>
        <time>2012-12-19T09:39:39.000Z</time>
      </trkpt>
      <trkpt lat="45.27998" lon="6.17556">
        <ele>1622.8000488281</ele>
        <time>2012-12-19T09:39:41.000Z</time>
      </trkpt>
      <trkpt lat="45.28" lon="6.17559">
        <ele>1622.8000488281</ele>
        <time>2012-12-19T09:39:47.000Z</time>
      </trkpt>
      <trkpt lat="45.28004" lon="6.17558">
        <ele>1624.4000244141</ele>
        <time>2012-12-19T09:39:57.000Z</time>
      </trkpt>
      <trkpt lat="45.28005" lon="6.17558">
        <ele>1625.1999511719</ele>
        <time>2012-12-19T09:39:59.000Z</time>
      </trkpt>
      <trkpt lat="45.28007" lon="6.17554">
        <ele>1625.8000488281</ele>
        <time>2012-12-19T09:40:07.000Z</time>
      </trkpt>
      <trkpt lat="45.28007" lon="6.17554">
        <ele>1626.8000488281</ele>
        <time>2012-12-19T09:40:08.000Z</time>
      </trkpt>
      <trkpt lat="45.28009" lon="6.17552">
        <ele>1628</ele>
        <time>2012-12-19T09:40:18.000Z</time>
      </trkpt>
      <trkpt lat="45.28012" lon="6.17547">
        <ele>1627.5999755859</ele>
        <time>2012-12-19T09:40:24.000Z</time>
      </trkpt>
      <trkpt lat="45.28013" lon="6.17546">
        <ele>1628.1999511719</ele>
        <time>2012-12-19T09:40:26.000Z</time>
      </trkpt>
      <trkpt lat="45.2802" lon="6.17538">
        <ele>1629</ele>
        <time>2012-12-19T09:40:35.000Z</time>
      </trkpt>
      <trkpt lat="45.28019" lon="6.17535">
        <ele>1630.4000244141</ele>
        <time>2012-12-19T09:40:40.000Z</time>
      </trkpt>
      <trkpt lat="45.28022" lon="6.17527">
        <ele>1631.5999755859</ele>
        <time>2012-12-19T09:40:51.000Z</time>
      </trkpt>
      <trkpt lat="45.28023" lon="6.17522">
        <ele>1632.1999511719</ele>
        <time>2012-12-19T09:40:57.000Z</time>
      </trkpt>
      <trkpt lat="45.28022" lon="6.17521">
        <ele>1632.4000244141</ele>
        <time>2012-12-19T09:40:59.000Z</time>
      </trkpt>
      <trkpt lat="45.28026" lon="6.17514">
        <ele>1633.4000244141</ele>
        <time>2012-12-19T09:41:09.000Z</time>
      </trkpt>
      <trkpt lat="45.28028" lon="6.17511">
        <ele>1634.1999511719</ele>
        <time>2012-12-19T09:41:14.000Z</time>
      </trkpt>
      <trkpt lat="45.28028" lon="6.17507">
        <ele>1634</ele>
        <time>2012-12-19T09:41:19.000Z</time>
      </trkpt>
      <trkpt lat="45.28031" lon="6.17504">
        <ele>1635.1999511719</ele>
        <time>2012-12-19T09:41:23.000Z</time>
      </trkpt>
      <trkpt lat="45.28033" lon="6.175">
        <ele>1635.1999511719</ele>
        <time>2012-12-19T09:41:29.000Z</time>
      </trkpt>
      <trkpt lat="45.28034" lon="6.17494">
        <ele>1637</ele>
        <time>2012-12-19T09:41:36.000Z</time>
      </trkpt>
      <trkpt lat="45.28033" lon="6.17493">
        <ele>1637.1999511719</ele>
        <time>2012-12-19T09:41:37.000Z</time>
      </trkpt>
      <trkpt lat="45.28035" lon="6.17487">
        <ele>1637</ele>
        <time>2012-12-19T09:41:45.000Z</time>
      </trkpt>
      <trkpt lat="45.28034" lon="6.17484">
        <ele>1637.1999511719</ele>
        <time>2012-12-19T09:41:50.000Z</time>
      </trkpt>
      <trkpt lat="45.28033" lon="6.17479">
        <ele>1637.5999755859</ele>
        <time>2012-12-19T09:41:56.000Z</time>
      </trkpt>
      <trkpt lat="45.28034" lon="6.17475">
        <ele>1637.5999755859</ele>
        <time>2012-12-19T09:42:01.000Z</time>
      </trkpt>
      <trkpt lat="45.28032" lon="6.1747">
        <ele>1638.1999511719</ele>
        <time>2012-12-19T09:42:14.000Z</time>
      </trkpt>
      <trkpt lat="45.28033" lon="6.1747">
        <ele>1639.4000244141</ele>
        <time>2012-12-19T09:42:15.000Z</time>
      </trkpt>
      <trkpt lat="45.28026" lon="6.1747">
        <ele>1639</ele>
        <time>2012-12-19T09:42:27.000Z</time>
      </trkpt>
      <trkpt lat="45.28022" lon="6.17471">
        <ele>1638</ele>
        <time>2012-12-19T09:42:45.000Z</time>
      </trkpt>
      <trkpt lat="45.28022" lon="6.17467">
        <ele>1638</ele>
        <time>2012-12-19T09:45:02.000Z</time>
      </trkpt>
      <trkpt lat="45.28022" lon="6.17466">
        <ele>1638.4000244141</ele>
        <time>2012-12-19T09:45:04.000Z</time>
      </trkpt>
      <trkpt lat="45.28024" lon="6.17458">
        <ele>1639.5999755859</ele>
        <time>2012-12-19T09:45:14.000Z</time>
      </trkpt>
      <trkpt lat="45.28024" lon="6.17455">
        <ele>1639.5999755859</ele>
        <time>2012-12-19T09:45:17.000Z</time>
      </trkpt>
      <trkpt lat="45.28023" lon="6.17445">
        <ele>1640.4000244141</ele>
        <time>2012-12-19T09:45:26.000Z</time>
      </trkpt>
      <trkpt lat="45.28022" lon="6.17436">
        <ele>1641</ele>
        <time>2012-12-19T09:45:34.000Z</time>
      </trkpt>
      <trkpt lat="45.28024" lon="6.1743">
        <ele>1642</ele>
        <time>2012-12-19T09:45:41.000Z</time>
      </trkpt>
      <trkpt lat="45.28023" lon="6.17425">
        <ele>1641.5999755859</ele>
        <time>2012-12-19T09:45:47.000Z</time>
      </trkpt>
      <trkpt lat="45.28022" lon="6.17424">
        <ele>1641.4000244141</ele>
        <time>2012-12-19T09:45:49.000Z</time>
      </trkpt>
      <trkpt lat="45.28025" lon="6.17418">
        <ele>1642.1999511719</ele>
        <time>2012-12-19T09:45:59.000Z</time>
      </trkpt>
      <trkpt lat="45.28024" lon="6.17413">
        <ele>1642.5999755859</ele>
        <time>2012-12-19T09:46:04.000Z</time>
      </trkpt>
      <trkpt lat="45.28023" lon="6.17408">
        <ele>1643</ele>
        <time>2012-12-19T09:46:10.000Z</time>
      </trkpt>
      <trkpt lat="45.28023" lon="6.17403">
        <ele>1643.5999755859</ele>
        <time>2012-12-19T09:46:17.000Z</time>
      </trkpt>
      <trkpt lat="45.28014" lon="6.17393">
        <ele>1644.8000488281</ele>
        <time>2012-12-19T09:46:25.000Z</time>
      </trkpt>
      <trkpt lat="45.28009" lon="6.17387">
        <ele>1645.1999511719</ele>
        <time>2012-12-19T09:46:32.000Z</time>
      </trkpt>
      <trkpt lat="45.28008" lon="6.17385">
        <ele>1644.5999755859</ele>
        <time>2012-12-19T09:46:36.000Z</time>
      </trkpt>
      <trkpt lat="45.28006" lon="6.1738">
        <ele>1646.4000244141</ele>
        <time>2012-12-19T09:46:42.000Z</time>
      </trkpt>
      <trkpt lat="45.28006" lon="6.1738">
        <ele>1646.5999755859</ele>
        <time>2012-12-19T09:46:43.000Z</time>
      </trkpt>
      <trkpt lat="45.28003" lon="6.17375">
        <ele>1646.8000488281</ele>
        <time>2012-12-19T09:46:49.000Z</time>
      </trkpt>
      <trkpt lat="45.28003" lon="6.17374">
        <ele>1646.8000488281</ele>
        <time>2012-12-19T09:46:50.000Z</time>
      </trkpt>
      <trkpt lat="45.28002" lon="6.1737">
        <ele>1647.8000488281</ele>
        <time>2012-12-19T09:46:56.000Z</time>
      </trkpt>
      <trkpt lat="45.28001" lon="6.17367">
        <ele>1648</ele>
        <time>2012-12-19T09:47:02.000Z</time>
      </trkpt>
      <trkpt lat="45.27997" lon="6.17363">
        <ele>1648.5999755859</ele>
        <time>2012-12-19T09:47:08.000Z</time>
      </trkpt>
      <trkpt lat="45.27997" lon="6.17362">
        <ele>1649</ele>
        <time>2012-12-19T09:47:10.000Z</time>
      </trkpt>
      <trkpt lat="45.27997" lon="6.17355">
        <ele>1650.4000244141</ele>
        <time>2012-12-19T09:47:18.000Z</time>
      </trkpt>
      <trkpt lat="45.27995" lon="6.17348">
        <ele>1651</ele>
        <time>2012-12-19T09:47:26.000Z</time>
      </trkpt>
      <trkpt lat="45.27994" lon="6.17341">
        <ele>1651.5999755859</ele>
        <time>2012-12-19T09:47:34.000Z</time>
      </trkpt>
      <trkpt lat="45.27991" lon="6.17334">
        <ele>1652</ele>
        <time>2012-12-19T09:47:42.000Z</time>
      </trkpt>
      <trkpt lat="45.27991" lon="6.17329">
        <ele>1652.4000244141</ele>
        <time>2012-12-19T09:47:49.000Z</time>
      </trkpt>
      <trkpt lat="45.27993" lon="6.17323">
        <ele>1653.1999511719</ele>
        <time>2012-12-19T09:47:55.000Z</time>
      </trkpt>
      <trkpt lat="45.27996" lon="6.17318">
        <ele>1653.8000488281</ele>
        <time>2012-12-19T09:48:01.000Z</time>
      </trkpt>
      <trkpt lat="45.28" lon="6.17312">
        <ele>1654.4000244141</ele>
        <time>2012-12-19T09:48:07.000Z</time>
      </trkpt>
      <trkpt lat="45.27998" lon="6.17307">
        <ele>1654.8000488281</ele>
        <time>2012-12-19T09:48:13.000Z</time>
      </trkpt>
      <trkpt lat="45.27998" lon="6.173">
        <ele>1656</ele>
        <time>2012-12-19T09:48:21.000Z</time>
      </trkpt>
      <trkpt lat="45.27997" lon="6.17296">
        <ele>1656.1999511719</ele>
        <time>2012-12-19T09:48:26.000Z</time>
      </trkpt>
      <trkpt lat="45.27997" lon="6.17291">
        <ele>1657.1999511719</ele>
        <time>2012-12-19T09:48:31.000Z</time>
      </trkpt>
      <trkpt lat="45.27996" lon="6.17285">
        <ele>1657.5999755859</ele>
        <time>2012-12-19T09:48:37.000Z</time>
      </trkpt>
      <trkpt lat="45.27993" lon="6.17276">
        <ele>1658.1999511719</ele>
        <time>2012-12-19T09:48:47.000Z</time>
      </trkpt>
      <trkpt lat="45.27991" lon="6.17269">
        <ele>1659.1999511719</ele>
        <time>2012-12-19T09:48:55.000Z</time>
      </trkpt>
      <trkpt lat="45.27989" lon="6.17262">
        <ele>1659.8000488281</ele>
        <time>2012-12-19T09:49:02.000Z</time>
      </trkpt>
      <trkpt lat="45.27989" lon="6.17258">
        <ele>1659.4000244141</ele>
        <time>2012-12-19T09:49:08.000Z</time>
      </trkpt>
      <trkpt lat="45.27988" lon="6.17253">
        <ele>1659.1999511719</ele>
        <time>2012-12-19T09:49:14.000Z</time>
      </trkpt>
      <trkpt lat="45.27987" lon="6.17247">
        <ele>1660</ele>
        <time>2012-12-19T09:49:20.000Z</time>
      </trkpt>
      <trkpt lat="45.27987" lon="6.17243">
        <ele>1660.4000244141</ele>
        <time>2012-12-19T09:49:25.000Z</time>
      </trkpt>
      <trkpt lat="45.27987" lon="6.17235">
        <ele>1661.1999511719</ele>
        <time>2012-12-19T09:49:32.000Z</time>
      </trkpt>
      <trkpt lat="45.27991" lon="6.17229">
        <ele>1660.8000488281</ele>
        <time>2012-12-19T09:49:39.000Z</time>
      </trkpt>
      <trkpt lat="45.27992" lon="6.17225">
        <ele>1662.1999511719</ele>
        <time>2012-12-19T09:49:44.000Z</time>
      </trkpt>
      <trkpt lat="45.27997" lon="6.17219">
        <ele>1663.1999511719</ele>
        <time>2012-12-19T09:49:51.000Z</time>
      </trkpt>
      <trkpt lat="45.27999" lon="6.17215">
        <ele>1663.8000488281</ele>
        <time>2012-12-19T09:49:57.000Z</time>
      </trkpt>
      <trkpt lat="45.27997" lon="6.17211">
        <ele>1664.8000488281</ele>
        <time>2012-12-19T09:50:03.000Z</time>
      </trkpt>
      <trkpt lat="45.27999" lon="6.17208">
        <ele>1665</ele>
        <time>2012-12-19T09:50:08.000Z</time>
      </trkpt>
      <trkpt lat="45.28001" lon="6.17204">
        <ele>1665.5999755859</ele>
        <time>2012-12-19T09:50:13.000Z</time>
      </trkpt>
      <trkpt lat="45.28004" lon="6.17198">
        <ele>1666.8000488281</ele>
        <time>2012-12-19T09:50:21.000Z</time>
      </trkpt>
      <trkpt lat="45.28008" lon="6.17194">
        <ele>1666.8000488281</ele>
        <time>2012-12-19T09:50:26.000Z</time>
      </trkpt>
      <trkpt lat="45.2801" lon="6.1719">
        <ele>1668</ele>
        <time>2012-12-19T09:50:32.000Z</time>
      </trkpt>
      <trkpt lat="45.28011" lon="6.17186">
        <ele>1668.5999755859</ele>
        <time>2012-12-19T09:50:38.000Z</time>
      </trkpt>
      <trkpt lat="45.28014" lon="6.17182">
        <ele>1669</ele>
        <time>2012-12-19T09:50:44.000Z</time>
      </trkpt>
      <trkpt lat="45.28014" lon="6.17177">
        <ele>1670.5999755859</ele>
        <time>2012-12-19T09:50:54.000Z</time>
      </trkpt>
      <trkpt lat="45.28016" lon="6.17173">
        <ele>1671</ele>
        <time>2012-12-19T09:50:59.000Z</time>
      </trkpt>
      <trkpt lat="45.2802" lon="6.17168">
        <ele>1671.5999755859</ele>
        <time>2012-12-19T09:51:05.000Z</time>
      </trkpt>
      <trkpt lat="45.28021" lon="6.17166">
        <ele>1672.1999511719</ele>
        <time>2012-12-19T09:51:07.000Z</time>
      </trkpt>
      <trkpt lat="45.28023" lon="6.17161">
        <ele>1673</ele>
        <time>2012-12-19T09:51:13.000Z</time>
      </trkpt>
      <trkpt lat="45.28023" lon="6.17157">
        <ele>1672.8000488281</ele>
        <time>2012-12-19T09:51:18.000Z</time>
      </trkpt>
      <trkpt lat="45.28024" lon="6.17151">
        <ele>1673.4000244141</ele>
        <time>2012-12-19T09:51:24.000Z</time>
      </trkpt>
      <trkpt lat="45.28025" lon="6.17146">
        <ele>1674.4000244141</ele>
        <time>2012-12-19T09:51:30.000Z</time>
      </trkpt>
      <trkpt lat="45.28026" lon="6.17144">
        <ele>1674.8000488281</ele>
        <time>2012-12-19T09:51:34.000Z</time>
      </trkpt>
      <trkpt lat="45.28025" lon="6.17141">
        <ele>1675.1999511719</ele>
        <time>2012-12-19T09:51:38.000Z</time>
      </trkpt>
      <trkpt lat="45.2803" lon="6.17135">
        <ele>1676.4000244141</ele>
        <time>2012-12-19T09:51:43.000Z</time>
      </trkpt>
      <trkpt lat="45.28032" lon="6.17129">
        <ele>1677</ele>
        <time>2012-12-19T09:51:49.000Z</time>
      </trkpt>
      <trkpt lat="45.28034" lon="6.1712">
        <ele>1677</ele>
        <time>2012-12-19T09:51:57.000Z</time>
      </trkpt>
      <trkpt lat="45.28035" lon="6.17115">
        <ele>1677.5999755859</ele>
        <time>2012-12-19T09:52:02.000Z</time>
      </trkpt>
      <trkpt lat="45.28036" lon="6.17108">
        <ele>1678</ele>
        <time>2012-12-19T09:52:10.000Z</time>
      </trkpt>
      <trkpt lat="45.28034" lon="6.17102">
        <ele>1678.4000244141</ele>
        <time>2012-12-19T09:52:16.000Z</time>
      </trkpt>
      <trkpt lat="45.28035" lon="6.17096">
        <ele>1678.5999755859</ele>
        <time>2012-12-19T09:52:22.000Z</time>
      </trkpt>
      <trkpt lat="45.28034" lon="6.17091">
        <ele>1679.5999755859</ele>
        <time>2012-12-19T09:52:27.000Z</time>
      </trkpt>
      <trkpt lat="45.28033" lon="6.17085">
        <ele>1679.5999755859</ele>
        <time>2012-12-19T09:52:33.000Z</time>
      </trkpt>
      <trkpt lat="45.28032" lon="6.17078">
        <ele>1680.1999511719</ele>
        <time>2012-12-19T09:52:40.000Z</time>
      </trkpt>
      <trkpt lat="45.28032" lon="6.17075">
        <ele>1679.8000488281</ele>
        <time>2012-12-19T09:52:44.000Z</time>
      </trkpt>
      <trkpt lat="45.28031" lon="6.17068">
        <ele>1680</ele>
        <time>2012-12-19T09:52:51.000Z</time>
      </trkpt>
      <trkpt lat="45.28029" lon="6.17065">
        <ele>1680</ele>
        <time>2012-12-19T09:52:53.000Z</time>
      </trkpt>
      <trkpt lat="45.28027" lon="6.17056">
        <ele>1680.5999755859</ele>
        <time>2012-12-19T09:53:02.000Z</time>
      </trkpt>
      <trkpt lat="45.28025" lon="6.17051">
        <ele>1681</ele>
        <time>2012-12-19T09:53:07.000Z</time>
      </trkpt>
      <trkpt lat="45.28023" lon="6.17045">
        <ele>1681.1999511719</ele>
        <time>2012-12-19T09:53:15.000Z</time>
      </trkpt>
      <trkpt lat="45.28023" lon="6.17041">
        <ele>1683.1999511719</ele>
        <time>2012-12-19T09:53:20.000Z</time>
      </trkpt>
      <trkpt lat="45.28025" lon="6.17037">
        <ele>1683.1999511719</ele>
        <time>2012-12-19T09:53:25.000Z</time>
      </trkpt>
      <trkpt lat="45.28024" lon="6.17032">
        <ele>1683.1999511719</ele>
        <time>2012-12-19T09:53:30.000Z</time>
      </trkpt>
      <trkpt lat="45.28023" lon="6.17027">
        <ele>1684.1999511719</ele>
        <time>2012-12-19T09:53:34.000Z</time>
      </trkpt>
      <trkpt lat="45.28022" lon="6.17018">
        <ele>1684.4000244141</ele>
        <time>2012-12-19T09:53:41.000Z</time>
      </trkpt>
      <trkpt lat="45.28022" lon="6.17013">
        <ele>1684</ele>
        <time>2012-12-19T09:53:47.000Z</time>
      </trkpt>
      <trkpt lat="45.2802" lon="6.17005">
        <ele>1684.5999755859</ele>
        <time>2012-12-19T09:53:55.000Z</time>
      </trkpt>
      <trkpt lat="45.28022" lon="6.16996">
        <ele>1685.4000244141</ele>
        <time>2012-12-19T09:54:04.000Z</time>
      </trkpt>
      <trkpt lat="45.28021" lon="6.16992">
        <ele>1685.1999511719</ele>
        <time>2012-12-19T09:54:09.000Z</time>
      </trkpt>
      <trkpt lat="45.28018" lon="6.16986">
        <ele>1686.1999511719</ele>
        <time>2012-12-19T09:54:14.000Z</time>
      </trkpt>
      <trkpt lat="45.28019" lon="6.16986">
        <ele>1686</ele>
        <time>2012-12-19T09:54:15.000Z</time>
      </trkpt>
      <trkpt lat="45.28017" lon="6.16978">
        <ele>1686.4000244141</ele>
        <time>2012-12-19T09:54:22.000Z</time>
      </trkpt>
      <trkpt lat="45.28015" lon="6.1697">
        <ele>1687.8000488281</ele>
        <time>2012-12-19T09:54:30.000Z</time>
      </trkpt>
      <trkpt lat="45.28013" lon="6.16963">
        <ele>1687.4000244141</ele>
        <time>2012-12-19T09:54:37.000Z</time>
      </trkpt>
      <trkpt lat="45.28012" lon="6.16954">
        <ele>1686.5999755859</ele>
        <time>2012-12-19T09:54:45.000Z</time>
      </trkpt>
      <trkpt lat="45.2801" lon="6.16948">
        <ele>1687.8000488281</ele>
        <time>2012-12-19T09:54:52.000Z</time>
      </trkpt>
      <trkpt lat="45.2801" lon="6.16948">
        <ele>1688.1999511719</ele>
        <time>2012-12-19T09:54:53.000Z</time>
      </trkpt>
      <trkpt lat="45.28007" lon="6.16942">
        <ele>1689</ele>
        <time>2012-12-19T09:55:00.000Z</time>
      </trkpt>
      <trkpt lat="45.28004" lon="6.16934">
        <ele>1689.1999511719</ele>
        <time>2012-12-19T09:55:07.000Z</time>
      </trkpt>
      <trkpt lat="45.28005" lon="6.16927">
        <ele>1689.4000244141</ele>
        <time>2012-12-19T09:55:14.000Z</time>
      </trkpt>
      <trkpt lat="45.28002" lon="6.1692">
        <ele>1689.4000244141</ele>
        <time>2012-12-19T09:55:21.000Z</time>
      </trkpt>
      <trkpt lat="45.28" lon="6.16913">
        <ele>1689.5999755859</ele>
        <time>2012-12-19T09:55:27.000Z</time>
      </trkpt>
      <trkpt lat="45.27999" lon="6.16907">
        <ele>1690</ele>
        <time>2012-12-19T09:55:33.000Z</time>
      </trkpt>
      <trkpt lat="45.27999" lon="6.16906">
        <ele>1689.8000488281</ele>
        <time>2012-12-19T09:55:34.000Z</time>
      </trkpt>
      <trkpt lat="45.27999" lon="6.16903">
        <ele>1689.4000244141</ele>
        <time>2012-12-19T09:55:37.000Z</time>
      </trkpt>
      <trkpt lat="45.27998" lon="6.16898">
        <ele>1689.5999755859</ele>
        <time>2012-12-19T09:55:41.000Z</time>
      </trkpt>
      <trkpt lat="45.28" lon="6.1689">
        <ele>1691</ele>
        <time>2012-12-19T09:55:49.000Z</time>
      </trkpt>
      <trkpt lat="45.28" lon="6.16884">
        <ele>1690.4000244141</ele>
        <time>2012-12-19T09:55:55.000Z</time>
      </trkpt>
      <trkpt lat="45.28" lon="6.16883">
        <ele>1690</ele>
        <time>2012-12-19T09:55:56.000Z</time>
      </trkpt>
      <trkpt lat="45.28" lon="6.16876">
        <ele>1689.1999511719</ele>
        <time>2012-12-19T09:56:08.000Z</time>
      </trkpt>
      <trkpt lat="45.28002" lon="6.1687">
        <ele>1689.5999755859</ele>
        <time>2012-12-19T09:56:15.000Z</time>
      </trkpt>
      <trkpt lat="45.28" lon="6.16863">
        <ele>1690.4000244141</ele>
        <time>2012-12-19T09:56:22.000Z</time>
      </trkpt>
      <trkpt lat="45.27999" lon="6.16859">
        <ele>1690.1999511719</ele>
        <time>2012-12-19T09:56:26.000Z</time>
      </trkpt>
      <trkpt lat="45.27998" lon="6.16853">
        <ele>1690</ele>
        <time>2012-12-19T09:56:32.000Z</time>
      </trkpt>
      <trkpt lat="45.27998" lon="6.16852">
        <ele>1689.8000488281</ele>
        <time>2012-12-19T09:56:34.000Z</time>
      </trkpt>
      <trkpt lat="45.28" lon="6.16845">
        <ele>1690.1999511719</ele>
        <time>2012-12-19T09:56:42.000Z</time>
      </trkpt>
      <trkpt lat="45.27998" lon="6.16838">
        <ele>1690.5999755859</ele>
        <time>2012-12-19T09:56:48.000Z</time>
      </trkpt>
      <trkpt lat="45.27994" lon="6.16831">
        <ele>1690</ele>
        <time>2012-12-19T09:56:54.000Z</time>
      </trkpt>
      <trkpt lat="45.27993" lon="6.16826">
        <ele>1689.8000488281</ele>
        <time>2012-12-19T09:56:59.000Z</time>
      </trkpt>
      <trkpt lat="45.27991" lon="6.16821">
        <ele>1690.4000244141</ele>
        <time>2012-12-19T09:57:03.000Z</time>
      </trkpt>
      <trkpt lat="45.2799" lon="6.16815">
        <ele>1690.8000488281</ele>
        <time>2012-12-19T09:57:09.000Z</time>
      </trkpt>
      <trkpt lat="45.27989" lon="6.16809">
        <ele>1691</ele>
        <time>2012-12-19T09:57:15.000Z</time>
      </trkpt>
      <trkpt lat="45.27987" lon="6.16803">
        <ele>1690.8000488281</ele>
        <time>2012-12-19T09:57:22.000Z</time>
      </trkpt>
      <trkpt lat="45.27987" lon="6.168">
        <ele>1692</ele>
        <time>2012-12-19T09:57:26.000Z</time>
      </trkpt>
      <trkpt lat="45.27986" lon="6.16797">
        <ele>1691.5999755859</ele>
        <time>2012-12-19T09:57:30.000Z</time>
      </trkpt>
      <trkpt lat="45.27986" lon="6.16793">
        <ele>1692.1999511719</ele>
        <time>2012-12-19T09:57:34.000Z</time>
      </trkpt>
      <trkpt lat="45.27986" lon="6.16788">
        <ele>1693.1999511719</ele>
        <time>2012-12-19T09:57:39.000Z</time>
      </trkpt>
      <trkpt lat="45.27984" lon="6.16783">
        <ele>1693.1999511719</ele>
        <time>2012-12-19T09:57:44.000Z</time>
      </trkpt>
      <trkpt lat="45.27983" lon="6.16778">
        <ele>1692.8000488281</ele>
        <time>2012-12-19T09:57:49.000Z</time>
      </trkpt>
      <trkpt lat="45.27984" lon="6.16773">
        <ele>1693.4000244141</ele>
        <time>2012-12-19T09:57:55.000Z</time>
      </trkpt>
      <trkpt lat="45.27985" lon="6.16769">
        <ele>1694.5999755859</ele>
        <time>2012-12-19T09:58:00.000Z</time>
      </trkpt>
      <trkpt lat="45.27984" lon="6.16764">
        <ele>1694</ele>
        <time>2012-12-19T09:58:05.000Z</time>
      </trkpt>
      <trkpt lat="45.27985" lon="6.1676">
        <ele>1695.1999511719</ele>
        <time>2012-12-19T09:58:10.000Z</time>
      </trkpt>
      <trkpt lat="45.27986" lon="6.16755">
        <ele>1695</ele>
        <time>2012-12-19T09:58:16.000Z</time>
      </trkpt>
      <trkpt lat="45.27985" lon="6.16749">
        <ele>1695.5999755859</ele>
        <time>2012-12-19T09:58:22.000Z</time>
      </trkpt>
      <trkpt lat="45.27985" lon="6.16749">
        <ele>1696</ele>
        <time>2012-12-19T09:58:23.000Z</time>
      </trkpt>
      <trkpt lat="45.27983" lon="6.16745">
        <ele>1694.5999755859</ele>
        <time>2012-12-19T09:58:27.000Z</time>
      </trkpt>
      <trkpt lat="45.27979" lon="6.1674">
        <ele>1696.8000488281</ele>
        <time>2012-12-19T09:58:34.000Z</time>
      </trkpt>
      <trkpt lat="45.27978" lon="6.16735">
        <ele>1698</ele>
        <time>2012-12-19T09:58:41.000Z</time>
      </trkpt>
      <trkpt lat="45.27977" lon="6.1673">
        <ele>1698.4000244141</ele>
        <time>2012-12-19T09:58:47.000Z</time>
      </trkpt>
      <trkpt lat="45.27976" lon="6.16724">
        <ele>1698.5999755859</ele>
        <time>2012-12-19T09:58:54.000Z</time>
      </trkpt>
      <trkpt lat="45.27974" lon="6.16721">
        <ele>1699.4000244141</ele>
        <time>2012-12-19T09:58:58.000Z</time>
      </trkpt>
      <trkpt lat="45.27977" lon="6.16717">
        <ele>1699</ele>
        <time>2012-12-19T09:59:17.000Z</time>
      </trkpt>
      <trkpt lat="45.27968" lon="6.16707">
        <ele>1699.8000488281</ele>
        <time>2012-12-19T09:59:27.000Z</time>
      </trkpt>
      <trkpt lat="45.27967" lon="6.16702">
        <ele>1700.4000244141</ele>
        <time>2012-12-19T09:59:33.000Z</time>
      </trkpt>
      <trkpt lat="45.27967" lon="6.16698">
        <ele>1700.5999755859</ele>
        <time>2012-12-19T09:59:40.000Z</time>
      </trkpt>
      <trkpt lat="45.27964" lon="6.16694">
        <ele>1701</ele>
        <time>2012-12-19T09:59:48.000Z</time>
      </trkpt>
      <trkpt lat="45.27963" lon="6.16689">
        <ele>1701.5999755859</ele>
        <time>2012-12-19T09:59:57.000Z</time>
      </trkpt>
      <trkpt lat="45.27961" lon="6.16682">
        <ele>1702.4000244141</ele>
        <time>2012-12-19T10:00:08.000Z</time>
      </trkpt>
      <trkpt lat="45.27961" lon="6.16681">
        <ele>1703</ele>
        <time>2012-12-19T10:00:10.000Z</time>
      </trkpt>
      <trkpt lat="45.27958" lon="6.16675">
        <ele>1704</ele>
        <time>2012-12-19T10:00:18.000Z</time>
      </trkpt>
      <trkpt lat="45.27955" lon="6.16671">
        <ele>1704.5999755859</ele>
        <time>2012-12-19T10:00:23.000Z</time>
      </trkpt>
      <trkpt lat="45.27955" lon="6.1667">
        <ele>1705.1999511719</ele>
        <time>2012-12-19T10:00:25.000Z</time>
      </trkpt>
      <trkpt lat="45.27952" lon="6.16665">
        <ele>1705.1999511719</ele>
        <time>2012-12-19T10:00:31.000Z</time>
      </trkpt>
      <trkpt lat="45.27951" lon="6.16662">
        <ele>1705.5999755859</ele>
        <time>2012-12-19T10:00:35.000Z</time>
      </trkpt>
      <trkpt lat="45.27947" lon="6.16652">
        <ele>1706.8000488281</ele>
        <time>2012-12-19T10:00:52.000Z</time>
      </trkpt>
      <trkpt lat="45.27944" lon="6.16644">
        <ele>1709.1999511719</ele>
        <time>2012-12-19T10:01:05.000Z</time>
      </trkpt>
      <trkpt lat="45.27943" lon="6.1664">
        <ele>1709.4000244141</ele>
        <time>2012-12-19T10:01:10.000Z</time>
      </trkpt>
      <trkpt lat="45.2794" lon="6.16637">
        <ele>1709.5999755859</ele>
        <time>2012-12-19T10:01:15.000Z</time>
      </trkpt>
      <trkpt lat="45.27936" lon="6.16631">
        <ele>1709.5999755859</ele>
        <time>2012-12-19T10:01:22.000Z</time>
      </trkpt>
      <trkpt lat="45.27936" lon="6.1663">
        <ele>1709.8000488281</ele>
        <time>2012-12-19T10:01:23.000Z</time>
      </trkpt>
      <trkpt lat="45.27935" lon="6.16625">
        <ele>1710.5999755859</ele>
        <time>2012-12-19T10:01:31.000Z</time>
      </trkpt>
      <trkpt lat="45.27932" lon="6.1662">
        <ele>1711.8000488281</ele>
        <time>2012-12-19T10:01:36.000Z</time>
      </trkpt>
      <trkpt lat="45.27933" lon="6.16617">
        <ele>1711.4000244141</ele>
        <time>2012-12-19T10:01:41.000Z</time>
      </trkpt>
      <trkpt lat="45.27938" lon="6.16611">
        <ele>1713</ele>
        <time>2012-12-19T10:01:50.000Z</time>
      </trkpt>
      <trkpt lat="45.27938" lon="6.16611">
        <ele>1713.1999511719</ele>
        <time>2012-12-19T10:01:51.000Z</time>
      </trkpt>
      <trkpt lat="45.27942" lon="6.16607">
        <ele>1714.8000488281</ele>
        <time>2012-12-19T10:02:01.000Z</time>
      </trkpt>
      <trkpt lat="45.27944" lon="6.16602">
        <ele>1715</ele>
        <time>2012-12-19T10:02:08.000Z</time>
      </trkpt>
      <trkpt lat="45.27948" lon="6.16597">
        <ele>1715.8000488281</ele>
        <time>2012-12-19T10:02:14.000Z</time>
      </trkpt>
      <trkpt lat="45.2795" lon="6.16595">
        <ele>1716.4000244141</ele>
        <time>2012-12-19T10:02:17.000Z</time>
      </trkpt>
      <trkpt lat="45.27953" lon="6.1659">
        <ele>1716.1999511719</ele>
        <time>2012-12-19T10:02:23.000Z</time>
      </trkpt>
      <trkpt lat="45.27953" lon="6.16582">
        <ele>1717.5999755859</ele>
        <time>2012-12-19T10:02:33.000Z</time>
      </trkpt>
      <trkpt lat="45.27957" lon="6.16579">
        <ele>1717.5999755859</ele>
        <time>2012-12-19T10:02:37.000Z</time>
      </trkpt>
      <trkpt lat="45.27957" lon="6.16578">
        <ele>1717.5999755859</ele>
        <time>2012-12-19T10:02:39.000Z</time>
      </trkpt>
      <trkpt lat="45.27962" lon="6.16567">
        <ele>1719.4000244141</ele>
        <time>2012-12-19T10:02:55.000Z</time>
      </trkpt>
      <trkpt lat="45.27962" lon="6.16563">
        <ele>1720.1999511719</ele>
        <time>2012-12-19T10:03:03.000Z</time>
      </trkpt>
      <trkpt lat="45.27963" lon="6.16563">
        <ele>1720.4000244141</ele>
        <time>2012-12-19T10:03:05.000Z</time>
      </trkpt>
      <trkpt lat="45.27965" lon="6.16559">
        <ele>1721.5999755859</ele>
        <time>2012-12-19T10:03:10.000Z</time>
      </trkpt>
      <trkpt lat="45.27967" lon="6.16555">
        <ele>1723</ele>
        <time>2012-12-19T10:03:15.000Z</time>
      </trkpt>
      <trkpt lat="45.27968" lon="6.16551">
        <ele>1723.1999511719</ele>
        <time>2012-12-19T10:03:19.000Z</time>
      </trkpt>
      <trkpt lat="45.27966" lon="6.16546">
        <ele>1723.5999755859</ele>
        <time>2012-12-19T10:03:24.000Z</time>
      </trkpt>
      <trkpt lat="45.27967" lon="6.16539">
        <ele>1723.4000244141</ele>
        <time>2012-12-19T10:03:31.000Z</time>
      </trkpt>
      <trkpt lat="45.27968" lon="6.16536">
        <ele>1723.8000488281</ele>
        <time>2012-12-19T10:03:35.000Z</time>
      </trkpt>
      <trkpt lat="45.27966" lon="6.16532">
        <ele>1724.4000244141</ele>
        <time>2012-12-19T10:03:40.000Z</time>
      </trkpt>
      <trkpt lat="45.27969" lon="6.16527">
        <ele>1724.8000488281</ele>
        <time>2012-12-19T10:03:46.000Z</time>
      </trkpt>
      <trkpt lat="45.27969" lon="6.16522">
        <ele>1725</ele>
        <time>2012-12-19T10:03:52.000Z</time>
      </trkpt>
      <trkpt lat="45.2797" lon="6.16518">
        <ele>1726.1999511719</ele>
        <time>2012-12-19T10:03:57.000Z</time>
      </trkpt>
      <trkpt lat="45.27966" lon="6.16512">
        <ele>1726.4000244141</ele>
        <time>2012-12-19T10:04:03.000Z</time>
      </trkpt>
      <trkpt lat="45.27967" lon="6.16508">
        <ele>1727</ele>
        <time>2012-12-19T10:04:08.000Z</time>
      </trkpt>
      <trkpt lat="45.27965" lon="6.16503">
        <ele>1727.5999755859</ele>
        <time>2012-12-19T10:04:13.000Z</time>
      </trkpt>
      <trkpt lat="45.27963" lon="6.16499">
        <ele>1729</ele>
        <time>2012-12-19T10:04:19.000Z</time>
      </trkpt>
      <trkpt lat="45.27963" lon="6.16495">
        <ele>1729.1999511719</ele>
        <time>2012-12-19T10:04:24.000Z</time>
      </trkpt>
      <trkpt lat="45.27961" lon="6.16491">
        <ele>1729.5999755859</ele>
        <time>2012-12-19T10:04:29.000Z</time>
      </trkpt>
      <trkpt lat="45.27961" lon="6.16485">
        <ele>1730.1999511719</ele>
        <time>2012-12-19T10:04:35.000Z</time>
      </trkpt>
      <trkpt lat="45.27959" lon="6.16482">
        <ele>1730.5999755859</ele>
        <time>2012-12-19T10:04:40.000Z</time>
      </trkpt>
      <trkpt lat="45.27959" lon="6.16478">
        <ele>1730.8000488281</ele>
        <time>2012-12-19T10:04:44.000Z</time>
      </trkpt>
      <trkpt lat="45.27957" lon="6.16474">
        <ele>1731.1999511719</ele>
        <time>2012-12-19T10:04:48.000Z</time>
      </trkpt>
      <trkpt lat="45.27957" lon="6.1647">
        <ele>1730.4000244141</ele>
        <time>2012-12-19T10:04:52.000Z</time>
      </trkpt>
      <trkpt lat="45.27956" lon="6.16467">
        <ele>1731.5999755859</ele>
        <time>2012-12-19T10:04:56.000Z</time>
      </trkpt>
      <trkpt lat="45.27956" lon="6.16463">
        <ele>1731.4000244141</ele>
        <time>2012-12-19T10:05:01.000Z</time>
      </trkpt>
      <trkpt lat="45.27953" lon="6.16458">
        <ele>1731.8000488281</ele>
        <time>2012-12-19T10:05:06.000Z</time>
      </trkpt>
      <trkpt lat="45.27953" lon="6.16454">
        <ele>1733.1999511719</ele>
        <time>2012-12-19T10:05:12.000Z</time>
      </trkpt>
      <trkpt lat="45.27951" lon="6.16448">
        <ele>1734</ele>
        <time>2012-12-19T10:05:19.000Z</time>
      </trkpt>
      <trkpt lat="45.27952" lon="6.16445">
        <ele>1734</ele>
        <time>2012-12-19T10:05:23.000Z</time>
      </trkpt>
      <trkpt lat="45.27951" lon="6.16443">
        <ele>1734.1999511719</ele>
        <time>2012-12-19T10:05:26.000Z</time>
      </trkpt>
      <trkpt lat="45.27948" lon="6.16438">
        <ele>1735</ele>
        <time>2012-12-19T10:05:33.000Z</time>
      </trkpt>
      <trkpt lat="45.2795" lon="6.16432">
        <ele>1736.4000244141</ele>
        <time>2012-12-19T10:05:41.000Z</time>
      </trkpt>
      <trkpt lat="45.27951" lon="6.1643">
        <ele>1736.5999755859</ele>
        <time>2012-12-19T10:05:44.000Z</time>
      </trkpt>
      <trkpt lat="45.2795" lon="6.16422">
        <ele>1737.8000488281</ele>
        <time>2012-12-19T10:05:55.000Z</time>
      </trkpt>
      <trkpt lat="45.27953" lon="6.1642">
        <ele>1738</ele>
        <time>2012-12-19T10:05:59.000Z</time>
      </trkpt>
      <trkpt lat="45.27953" lon="6.1642">
        <ele>1738.1999511719</ele>
        <time>2012-12-19T10:06:00.000Z</time>
      </trkpt>
      <trkpt lat="45.27959" lon="6.16402">
        <ele>1741</ele>
        <time>2012-12-19T10:06:46.000Z</time>
      </trkpt>
      <trkpt lat="45.27961" lon="6.16399">
        <ele>1741.8000488281</ele>
        <time>2012-12-19T10:06:50.000Z</time>
      </trkpt>
      <trkpt lat="45.27964" lon="6.16389">
        <ele>1743.5999755859</ele>
        <time>2012-12-19T10:07:03.000Z</time>
      </trkpt>
      <trkpt lat="45.27966" lon="6.16386">
        <ele>1744</ele>
        <time>2012-12-19T10:07:08.000Z</time>
      </trkpt>
      <trkpt lat="45.27973" lon="6.16378">
        <ele>1745.5999755859</ele>
        <time>2012-12-19T10:07:20.000Z</time>
      </trkpt>
      <trkpt lat="45.27975" lon="6.16375">
        <ele>1745.8000488281</ele>
        <time>2012-12-19T10:07:24.000Z</time>
      </trkpt>
      <trkpt lat="45.2797" lon="6.16362">
        <ele>1747.5999755859</ele>
        <time>2012-12-19T10:07:41.000Z</time>
      </trkpt>
      <trkpt lat="45.27973" lon="6.16362">
        <ele>1748.5999755859</ele>
        <time>2012-12-19T10:07:52.000Z</time>
      </trkpt>
      <trkpt lat="45.27975" lon="6.16362">
        <ele>1749.4000244141</ele>
        <time>2012-12-19T10:07:59.000Z</time>
      </trkpt>
      <trkpt lat="45.27986" lon="6.16356">
        <ele>1751.1999511719</ele>
        <time>2012-12-19T10:08:16.000Z</time>
      </trkpt>
      <trkpt lat="45.2799" lon="6.16352">
        <ele>1752.4000244141</ele>
        <time>2012-12-19T10:08:27.000Z</time>
      </trkpt>
      <trkpt lat="45.27992" lon="6.16348">
        <ele>1753.4000244141</ele>
        <time>2012-12-19T10:08:37.000Z</time>
      </trkpt>
      <trkpt lat="45.27995" lon="6.16343">
        <ele>1753.8000488281</ele>
        <time>2012-12-19T10:08:42.000Z</time>
      </trkpt>
      <trkpt lat="45.27995" lon="6.16343">
        <ele>1754</ele>
        <time>2012-12-19T10:08:44.000Z</time>
      </trkpt>
      <trkpt lat="45.27999" lon="6.16346">
        <ele>1755.8000488281</ele>
        <time>2012-12-19T10:09:01.000Z</time>
      </trkpt>
      <trkpt lat="45.28002" lon="6.16347">
        <ele>1757</ele>
        <time>2012-12-19T10:09:08.000Z</time>
      </trkpt>
      <trkpt lat="45.28003" lon="6.16347">
        <ele>1757.4000244141</ele>
        <time>2012-12-19T10:09:12.000Z</time>
      </trkpt>
      <trkpt lat="45.2801" lon="6.16342">
        <ele>1758.8000488281</ele>
        <time>2012-12-19T10:09:23.000Z</time>
      </trkpt>
      <trkpt lat="45.28011" lon="6.1634">
        <ele>1759</ele>
        <time>2012-12-19T10:09:26.000Z</time>
      </trkpt>
      <trkpt lat="45.28014" lon="6.16336">
        <ele>1759.1999511719</ele>
        <time>2012-12-19T10:09:34.000Z</time>
      </trkpt>
      <trkpt lat="45.28017" lon="6.16333">
        <ele>1761</ele>
        <time>2012-12-19T10:09:42.000Z</time>
      </trkpt>
      <trkpt lat="45.28019" lon="6.16333">
        <ele>1761.8000488281</ele>
        <time>2012-12-19T10:09:50.000Z</time>
      </trkpt>
      <trkpt lat="45.2802" lon="6.16334">
        <ele>1762.5999755859</ele>
        <time>2012-12-19T10:09:55.000Z</time>
      </trkpt>
      <trkpt lat="45.28023" lon="6.16335">
        <ele>1763.1999511719</ele>
        <time>2012-12-19T10:10:02.000Z</time>
      </trkpt>
      <trkpt lat="45.28025" lon="6.16334">
        <ele>1764.4000244141</ele>
        <time>2012-12-19T10:10:07.000Z</time>
      </trkpt>
      <trkpt lat="45.28028" lon="6.16334">
        <ele>1765.4000244141</ele>
        <time>2012-12-19T10:10:12.000Z</time>
      </trkpt>
      <trkpt lat="45.2803" lon="6.16333">
        <ele>1766.4000244141</ele>
        <time>2012-12-19T10:10:18.000Z</time>
      </trkpt>
      <trkpt lat="45.28031" lon="6.16332">
        <ele>1766.5999755859</ele>
        <time>2012-12-19T10:10:20.000Z</time>
      </trkpt>
      <trkpt lat="45.28036" lon="6.16325">
        <ele>1767</ele>
        <time>2012-12-19T10:10:30.000Z</time>
      </trkpt>
      <trkpt lat="45.28037" lon="6.16323">
        <ele>1768</ele>
        <time>2012-12-19T10:10:33.000Z</time>
      </trkpt>
      <trkpt lat="45.28039" lon="6.1632">
        <ele>1768</ele>
        <time>2012-12-19T10:10:38.000Z</time>
      </trkpt>
      <trkpt lat="45.28041" lon="6.16315">
        <ele>1769.8000488281</ele>
        <time>2012-12-19T10:10:45.000Z</time>
      </trkpt>
      <trkpt lat="45.28041" lon="6.16314">
        <ele>1769.8000488281</ele>
        <time>2012-12-19T10:10:46.000Z</time>
      </trkpt>
      <trkpt lat="45.28044" lon="6.16312">
        <ele>1771</ele>
        <time>2012-12-19T10:11:58.000Z</time>
      </trkpt>
      <trkpt lat="45.28044" lon="6.16311">
        <ele>1771.4000244141</ele>
        <time>2012-12-19T10:11:59.000Z</time>
      </trkpt>
      <trkpt lat="45.28048" lon="6.16301">
        <ele>1771.8000488281</ele>
        <time>2012-12-19T10:13:12.000Z</time>
      </trkpt>
      <trkpt lat="45.28054" lon="6.163">
        <ele>1772.5999755859</ele>
        <time>2012-12-19T10:13:23.000Z</time>
      </trkpt>
      <trkpt lat="45.28053" lon="6.16298">
        <ele>1774</ele>
        <time>2012-12-19T10:13:27.000Z</time>
      </trkpt>
      <trkpt lat="45.28054" lon="6.16297">
        <ele>1774.8000488281</ele>
        <time>2012-12-19T10:13:31.000Z</time>
      </trkpt>
      <trkpt lat="45.28056" lon="6.16295">
        <ele>1775</ele>
        <time>2012-12-19T10:13:36.000Z</time>
      </trkpt>
      <trkpt lat="45.2806" lon="6.16292">
        <ele>1775.4000244141</ele>
        <time>2012-12-19T10:13:41.000Z</time>
      </trkpt>
      <trkpt lat="45.28062" lon="6.16289">
        <ele>1775.5999755859</ele>
        <time>2012-12-19T10:13:45.000Z</time>
      </trkpt>
      <trkpt lat="45.28063" lon="6.16286">
        <ele>1776.8000488281</ele>
        <time>2012-12-19T10:13:49.000Z</time>
      </trkpt>
      <trkpt lat="45.28064" lon="6.16286">
        <ele>1777</ele>
        <time>2012-12-19T10:13:50.000Z</time>
      </trkpt>
      <trkpt lat="45.28067" lon="6.1628">
        <ele>1777</ele>
        <time>2012-12-19T10:13:57.000Z</time>
      </trkpt>
      <trkpt lat="45.28067" lon="6.1628">
        <ele>1777.5999755859</ele>
        <time>2012-12-19T10:13:58.000Z</time>
      </trkpt>
      <trkpt lat="45.28071" lon="6.16273">
        <ele>1778.8000488281</ele>
        <time>2012-12-19T10:14:08.000Z</time>
      </trkpt>
      <trkpt lat="45.28074" lon="6.1627">
        <ele>1779.5999755859</ele>
        <time>2012-12-19T10:14:14.000Z</time>
      </trkpt>
      <trkpt lat="45.28082" lon="6.16262">
        <ele>1782</ele>
        <time>2012-12-19T10:14:28.000Z</time>
      </trkpt>
      <trkpt lat="45.28084" lon="6.16261">
        <ele>1782.5999755859</ele>
        <time>2012-12-19T10:14:31.000Z</time>
      </trkpt>
      <trkpt lat="45.28088" lon="6.16259">
        <ele>1783.1999511719</ele>
        <time>2012-12-19T10:14:36.000Z</time>
      </trkpt>
      <trkpt lat="45.28092" lon="6.16246">
        <ele>1786.8000488281</ele>
        <time>2012-12-19T10:15:02.000Z</time>
      </trkpt>
      <trkpt lat="45.28093" lon="6.16246">
        <ele>1787.4000244141</ele>
        <time>2012-12-19T10:15:03.000Z</time>
      </trkpt>
      <trkpt lat="45.28098" lon="6.16241">
        <ele>1788.1999511719</ele>
        <time>2012-12-19T10:15:15.000Z</time>
      </trkpt>
      <trkpt lat="45.28102" lon="6.16237">
        <ele>1789.5999755859</ele>
        <time>2012-12-19T10:15:21.000Z</time>
      </trkpt>
      <trkpt lat="45.28103" lon="6.16232">
        <ele>1790.5999755859</ele>
        <time>2012-12-19T10:15:29.000Z</time>
      </trkpt>
      <trkpt lat="45.28103" lon="6.16229">
        <ele>1791</ele>
        <time>2012-12-19T10:15:36.000Z</time>
      </trkpt>
      <trkpt lat="45.28108" lon="6.16226">
        <ele>1792.1999511719</ele>
        <time>2012-12-19T10:15:42.000Z</time>
      </trkpt>
      <trkpt lat="45.28117" lon="6.16219">
        <ele>1794.8000488281</ele>
        <time>2012-12-19T10:16:00.000Z</time>
      </trkpt>
      <trkpt lat="45.28117" lon="6.16219">
        <ele>1795.1999511719</ele>
        <time>2012-12-19T10:16:01.000Z</time>
      </trkpt>
      <trkpt lat="45.28119" lon="6.16216">
        <ele>1795.1999511719</ele>
        <time>2012-12-19T10:16:06.000Z</time>
      </trkpt>
      <trkpt lat="45.28119" lon="6.16208">
        <ele>1797.1999511719</ele>
        <time>2012-12-19T10:16:19.000Z</time>
      </trkpt>
      <trkpt lat="45.28118" lon="6.16207">
        <ele>1797</ele>
        <time>2012-12-19T10:16:20.000Z</time>
      </trkpt>
      <trkpt lat="45.28129" lon="6.16199">
        <ele>1800.4000244141</ele>
        <time>2012-12-19T10:16:40.000Z</time>
      </trkpt>
      <trkpt lat="45.28138" lon="6.16198">
        <ele>1803</ele>
        <time>2012-12-19T10:17:01.000Z</time>
      </trkpt>
      <trkpt lat="45.2814" lon="6.16199">
        <ele>1803.8000488281</ele>
        <time>2012-12-19T10:17:13.000Z</time>
      </trkpt>
      <trkpt lat="45.28139" lon="6.16194">
        <ele>1804.8000488281</ele>
        <time>2012-12-19T10:17:25.000Z</time>
      </trkpt>
      <trkpt lat="45.28139" lon="6.16193">
        <ele>1804.8000488281</ele>
        <time>2012-12-19T10:17:26.000Z</time>
      </trkpt>
      <trkpt lat="45.28133" lon="6.16183">
        <ele>1806.5999755859</ele>
        <time>2012-12-19T10:17:36.000Z</time>
      </trkpt>
      <trkpt lat="45.28136" lon="6.16178">
        <ele>1807.8000488281</ele>
        <time>2012-12-19T10:17:50.000Z</time>
      </trkpt>
      <trkpt lat="45.28141" lon="6.16179">
        <ele>1808.8000488281</ele>
        <time>2012-12-19T10:17:59.000Z</time>
      </trkpt>
      <trkpt lat="45.28145" lon="6.16181">
        <ele>1810.4000244141</ele>
        <time>2012-12-19T10:18:05.000Z</time>
      </trkpt>
      <trkpt lat="45.28151" lon="6.16185">
        <ele>1813</ele>
        <time>2012-12-19T10:18:27.000Z</time>
      </trkpt>
      <trkpt lat="45.28153" lon="6.16188">
        <ele>1814.4000244141</ele>
        <time>2012-12-19T10:18:35.000Z</time>
      </trkpt>
      <trkpt lat="45.28156" lon="6.16189">
        <ele>1814.5999755859</ele>
        <time>2012-12-19T10:18:40.000Z</time>
      </trkpt>
      <trkpt lat="45.28157" lon="6.16191">
        <ele>1815.1999511719</ele>
        <time>2012-12-19T10:18:44.000Z</time>
      </trkpt>
      <trkpt lat="45.28163" lon="6.16194">
        <ele>1817.1999511719</ele>
        <time>2012-12-19T10:19:02.000Z</time>
      </trkpt>
      <trkpt lat="45.28165" lon="6.16195">
        <ele>1817.4000244141</ele>
        <time>2012-12-19T10:19:07.000Z</time>
      </trkpt>
      <trkpt lat="45.28165" lon="6.16195">
        <ele>1817.5999755859</ele>
        <time>2012-12-19T10:19:08.000Z</time>
      </trkpt>
      <trkpt lat="45.2817" lon="6.16199">
        <ele>1819.8000488281</ele>
        <time>2012-12-19T10:19:23.000Z</time>
      </trkpt>
      <trkpt lat="45.28179" lon="6.162">
        <ele>1821.5999755859</ele>
        <time>2012-12-19T10:19:36.000Z</time>
      </trkpt>
      <trkpt lat="45.28179" lon="6.16199">
        <ele>1822.1999511719</ele>
        <time>2012-12-19T10:19:38.000Z</time>
      </trkpt>
      <trkpt lat="45.28181" lon="6.16199">
        <ele>1822.8000488281</ele>
        <time>2012-12-19T10:19:45.000Z</time>
      </trkpt>
      <trkpt lat="45.28189" lon="6.162">
        <ele>1824.8000488281</ele>
        <time>2012-12-19T10:20:00.000Z</time>
      </trkpt>
      <trkpt lat="45.2819" lon="6.162">
        <ele>1824.8000488281</ele>
        <time>2012-12-19T10:20:01.000Z</time>
      </trkpt>
      <trkpt lat="45.28205" lon="6.16204">
        <ele>1829</ele>
        <time>2012-12-19T10:20:34.000Z</time>
      </trkpt>
      <trkpt lat="45.28206" lon="6.16205">
        <ele>1829.1999511719</ele>
        <time>2012-12-19T10:20:39.000Z</time>
      </trkpt>
      <trkpt lat="45.28209" lon="6.16205">
        <ele>1830.1999511719</ele>
        <time>2012-12-19T10:20:43.000Z</time>
      </trkpt>
      <trkpt lat="45.28209" lon="6.16206">
        <ele>1830.4000244141</ele>
        <time>2012-12-19T10:20:47.000Z</time>
      </trkpt>
      <trkpt lat="45.28216" lon="6.16205">
        <ele>1832</ele>
        <time>2012-12-19T10:21:00.000Z</time>
      </trkpt>
      <trkpt lat="45.28217" lon="6.16205">
        <ele>1832</ele>
        <time>2012-12-19T10:21:01.000Z</time>
      </trkpt>
      <trkpt lat="45.28219" lon="6.16204">
        <ele>1832.4000244141</ele>
        <time>2012-12-19T10:21:04.000Z</time>
      </trkpt>
      <trkpt lat="45.28222" lon="6.16203">
        <ele>1833</ele>
        <time>2012-12-19T10:21:10.000Z</time>
      </trkpt>
      <trkpt lat="45.28227" lon="6.16199">
        <ele>1834</ele>
        <time>2012-12-19T10:21:19.000Z</time>
      </trkpt>
      <trkpt lat="45.2823" lon="6.16193">
        <ele>1835.5999755859</ele>
        <time>2012-12-19T10:21:28.000Z</time>
      </trkpt>
      <trkpt lat="45.28232" lon="6.16184">
        <ele>1837</ele>
        <time>2012-12-19T10:21:41.000Z</time>
      </trkpt>
      <trkpt lat="45.28232" lon="6.16184">
        <ele>1837</ele>
        <time>2012-12-19T10:21:42.000Z</time>
      </trkpt>
      <trkpt lat="45.28238" lon="6.1617">
        <ele>1840.5999755859</ele>
        <time>2012-12-19T10:22:05.000Z</time>
      </trkpt>
      <trkpt lat="45.2824" lon="6.16159">
        <ele>1843.5999755859</ele>
        <time>2012-12-19T10:22:26.000Z</time>
      </trkpt>
      <trkpt lat="45.28239" lon="6.16158">
        <ele>1844</ele>
        <time>2012-12-19T10:22:28.000Z</time>
      </trkpt>
      <trkpt lat="45.2825" lon="6.16147">
        <ele>1848</ele>
        <time>2012-12-19T10:23:00.000Z</time>
      </trkpt>
      <trkpt lat="45.28251" lon="6.16136">
        <ele>1849.1999511719</ele>
        <time>2012-12-19T10:26:46.000Z</time>
      </trkpt>
      <trkpt lat="45.28254" lon="6.16133">
        <ele>1851</ele>
        <time>2012-12-19T10:26:52.000Z</time>
      </trkpt>
      <trkpt lat="45.28256" lon="6.16126">
        <ele>1851.5999755859</ele>
        <time>2012-12-19T10:27:00.000Z</time>
      </trkpt>
      <trkpt lat="45.28255" lon="6.16122">
        <ele>1851.8000488281</ele>
        <time>2012-12-19T10:27:06.000Z</time>
      </trkpt>
      <trkpt lat="45.28255" lon="6.16121">
        <ele>1851.8000488281</ele>
        <time>2012-12-19T10:27:07.000Z</time>
      </trkpt>
      <trkpt lat="45.28257" lon="6.1612">
        <ele>1853</ele>
        <time>2012-12-19T10:27:13.000Z</time>
      </trkpt>
      <trkpt lat="45.28267" lon="6.16113">
        <ele>1856</ele>
        <time>2012-12-19T10:27:33.000Z</time>
      </trkpt>
      <trkpt lat="45.28269" lon="6.16111">
        <ele>1856.4000244141</ele>
        <time>2012-12-19T10:27:36.000Z</time>
      </trkpt>
      <trkpt lat="45.28277" lon="6.16087">
        <ele>1862</ele>
        <time>2012-12-19T10:28:23.000Z</time>
      </trkpt>
      <trkpt lat="45.28278" lon="6.16087">
        <ele>1862.4000244141</ele>
        <time>2012-12-19T10:28:24.000Z</time>
      </trkpt>
      <trkpt lat="45.2828" lon="6.16069">
        <ele>1865.1999511719</ele>
        <time>2012-12-19T10:28:49.000Z</time>
      </trkpt>
      <trkpt lat="45.28288" lon="6.16058">
        <ele>1870.8000488281</ele>
        <time>2012-12-19T10:29:57.000Z</time>
      </trkpt>
      <trkpt lat="45.28295" lon="6.16054">
        <ele>1873.1999511719</ele>
        <time>2012-12-19T10:30:16.000Z</time>
      </trkpt>
      <trkpt lat="45.28296" lon="6.16055">
        <ele>1873.5999755859</ele>
        <time>2012-12-19T10:30:18.000Z</time>
      </trkpt>
      <trkpt lat="45.28311" lon="6.16049">
        <ele>1878</ele>
        <time>2012-12-19T10:30:54.000Z</time>
      </trkpt>
      <trkpt lat="45.28311" lon="6.16048">
        <ele>1878.1999511719</ele>
        <time>2012-12-19T10:30:55.000Z</time>
      </trkpt>
      <trkpt lat="45.28318" lon="6.16044">
        <ele>1881.8000488281</ele>
        <time>2012-12-19T10:31:23.000Z</time>
      </trkpt>
      <trkpt lat="45.28324" lon="6.16047">
        <ele>1883.8000488281</ele>
        <time>2012-12-19T10:31:38.000Z</time>
      </trkpt>
      <trkpt lat="45.28379" lon="6.16013">
        <ele>1905.4000244141</ele>
        <time>2012-12-19T10:34:34.000Z</time>
      </trkpt>
      <trkpt lat="45.2838" lon="6.16013">
        <ele>1905.5999755859</ele>
        <time>2012-12-19T10:34:35.000Z</time>
      </trkpt>
      <trkpt lat="45.28382" lon="6.16012">
        <ele>1906.1999511719</ele>
        <time>2012-12-19T10:34:40.000Z</time>
      </trkpt>
      <trkpt lat="45.28387" lon="6.16001">
        <ele>1909</ele>
        <time>2012-12-19T10:36:30.000Z</time>
      </trkpt>
      <trkpt lat="45.28386" lon="6.15995">
        <ele>1910.1999511719</ele>
        <time>2012-12-19T10:36:36.000Z</time>
      </trkpt>
      <trkpt lat="45.28387" lon="6.15991">
        <ele>1911.1999511719</ele>
        <time>2012-12-19T10:36:41.000Z</time>
      </trkpt>
      <trkpt lat="45.28388" lon="6.15984">
        <ele>1913.4000244141</ele>
        <time>2012-12-19T10:36:49.000Z</time>
      </trkpt>
      <trkpt lat="45.28388" lon="6.15976">
        <ele>1914.5999755859</ele>
        <time>2012-12-19T10:36:57.000Z</time>
      </trkpt>
      <trkpt lat="45.28389" lon="6.15969">
        <ele>1915.5999755859</ele>
        <time>2012-12-19T10:37:04.000Z</time>
      </trkpt>
      <trkpt lat="45.28391" lon="6.15965">
        <ele>1916.1999511719</ele>
        <time>2012-12-19T10:37:09.000Z</time>
      </trkpt>
      <trkpt lat="45.28392" lon="6.15961">
        <ele>1916.8000488281</ele>
        <time>2012-12-19T10:37:15.000Z</time>
      </trkpt>
      <trkpt lat="45.28393" lon="6.15959">
        <ele>1917.4000244141</ele>
        <time>2012-12-19T10:37:19.000Z</time>
      </trkpt>
      <trkpt lat="45.28395" lon="6.15955">
        <ele>1919</ele>
        <time>2012-12-19T10:37:24.000Z</time>
      </trkpt>
      <trkpt lat="45.28394" lon="6.1595">
        <ele>1919.1999511719</ele>
        <time>2012-12-19T10:37:28.000Z</time>
      </trkpt>
      <trkpt lat="45.28394" lon="6.15943">
        <ele>1920.5999755859</ele>
        <time>2012-12-19T10:37:35.000Z</time>
      </trkpt>
      <trkpt lat="45.28394" lon="6.15936">
        <ele>1920.8000488281</ele>
        <time>2012-12-19T10:37:42.000Z</time>
      </trkpt>
      <trkpt lat="45.28394" lon="6.15935">
        <ele>1921.8000488281</ele>
        <time>2012-12-19T10:37:44.000Z</time>
      </trkpt>
      <trkpt lat="45.28402" lon="6.15921">
        <ele>1926.1999511719</ele>
        <time>2012-12-19T10:38:15.000Z</time>
      </trkpt>
      <trkpt lat="45.28417" lon="6.15902">
        <ele>1933</ele>
        <time>2012-12-19T10:39:05.000Z</time>
      </trkpt>
      <trkpt lat="45.28418" lon="6.15886">
        <ele>1936.4000244141</ele>
        <time>2012-12-19T10:39:33.000Z</time>
      </trkpt>
      <trkpt lat="45.28419" lon="6.15885">
        <ele>1937</ele>
        <time>2012-12-19T10:39:35.000Z</time>
      </trkpt>
      <trkpt lat="45.28421" lon="6.15865">
        <ele>1941.8000488281</ele>
        <time>2012-12-19T10:40:18.000Z</time>
      </trkpt>
      <trkpt lat="45.28421" lon="6.15856">
        <ele>1942.4000244141</ele>
        <time>2012-12-19T10:40:26.000Z</time>
      </trkpt>
      <trkpt lat="45.28422" lon="6.15853">
        <ele>1943.1999511719</ele>
        <time>2012-12-19T10:40:29.000Z</time>
      </trkpt>
      <trkpt lat="45.28423" lon="6.1585">
        <ele>1943.5999755859</ele>
        <time>2012-12-19T10:40:34.000Z</time>
      </trkpt>
      <trkpt lat="45.28423" lon="6.15835">
        <ele>1946.8000488281</ele>
        <time>2012-12-19T10:40:55.000Z</time>
      </trkpt>
      <trkpt lat="45.28423" lon="6.1583">
        <ele>1947.5999755859</ele>
        <time>2012-12-19T10:41:01.000Z</time>
      </trkpt>
      <trkpt lat="45.28425" lon="6.1582">
        <ele>1949.4000244141</ele>
        <time>2012-12-19T10:42:15.000Z</time>
      </trkpt>
      <trkpt lat="45.28427" lon="6.15815">
        <ele>1950</ele>
        <time>2012-12-19T10:42:22.000Z</time>
      </trkpt>
      <trkpt lat="45.28428" lon="6.1581">
        <ele>1950.5999755859</ele>
        <time>2012-12-19T10:42:27.000Z</time>
      </trkpt>
      <trkpt lat="45.28429" lon="6.15804">
        <ele>1952</ele>
        <time>2012-12-19T10:42:34.000Z</time>
      </trkpt>
      <trkpt lat="45.28431" lon="6.15801">
        <ele>1952.5999755859</ele>
        <time>2012-12-19T10:42:40.000Z</time>
      </trkpt>
      <trkpt lat="45.2843" lon="6.15797">
        <ele>1953.5999755859</ele>
        <time>2012-12-19T10:42:46.000Z</time>
      </trkpt>
      <trkpt lat="45.2843" lon="6.15793">
        <ele>1954.4000244141</ele>
        <time>2012-12-19T10:42:52.000Z</time>
      </trkpt>
      <trkpt lat="45.2843" lon="6.15792">
        <ele>1955.4000244141</ele>
        <time>2012-12-19T10:42:54.000Z</time>
      </trkpt>
      <trkpt lat="45.28432" lon="6.15783">
        <ele>1957.1999511719</ele>
        <time>2012-12-19T10:43:11.000Z</time>
      </trkpt>
      <trkpt lat="45.28433" lon="6.15782">
        <ele>1957.5999755859</ele>
        <time>2012-12-19T10:43:12.000Z</time>
      </trkpt>
      <trkpt lat="45.28437" lon="6.15779">
        <ele>1959.8000488281</ele>
        <time>2012-12-19T10:43:22.000Z</time>
      </trkpt>
      <trkpt lat="45.28452" lon="6.15758">
        <ele>1966.5999755859</ele>
        <time>2012-12-19T10:44:13.000Z</time>
      </trkpt>
      <trkpt lat="45.28453" lon="6.15752">
        <ele>1968.5999755859</ele>
        <time>2012-12-19T10:44:23.000Z</time>
      </trkpt>
      <trkpt lat="45.28453" lon="6.15749">
        <ele>1969.1999511719</ele>
        <time>2012-12-19T10:44:27.000Z</time>
      </trkpt>
      <trkpt lat="45.28452" lon="6.15748">
        <ele>1969.1999511719</ele>
        <time>2012-12-19T10:44:30.000Z</time>
      </trkpt>
      <trkpt lat="45.2845" lon="6.15734">
        <ele>1972.1999511719</ele>
        <time>2012-12-19T10:44:53.000Z</time>
      </trkpt>
      <trkpt lat="45.28449" lon="6.1573">
        <ele>1972.8000488281</ele>
        <time>2012-12-19T10:44:58.000Z</time>
      </trkpt>
      <trkpt lat="45.28449" lon="6.15729">
        <ele>1973</ele>
        <time>2012-12-19T10:44:59.000Z</time>
      </trkpt>
      <trkpt lat="45.2845" lon="6.15707">
        <ele>1978</ele>
        <time>2012-12-19T10:45:40.000Z</time>
      </trkpt>
      <trkpt lat="45.2848" lon="6.15699">
        <ele>1989.5999755859</ele>
        <time>2012-12-19T10:47:16.000Z</time>
      </trkpt>
      <trkpt lat="45.28481" lon="6.157">
        <ele>1990</ele>
        <time>2012-12-19T10:47:19.000Z</time>
      </trkpt>
      <trkpt lat="45.28484" lon="6.15696">
        <ele>1992</ele>
        <time>2012-12-19T10:47:43.000Z</time>
      </trkpt>
      <trkpt lat="45.28483" lon="6.15693">
        <ele>1992.8000488281</ele>
        <time>2012-12-19T10:47:47.000Z</time>
      </trkpt>
      <trkpt lat="45.28482" lon="6.15691">
        <ele>1993.4000244141</ele>
        <time>2012-12-19T10:47:51.000Z</time>
      </trkpt>
      <trkpt lat="45.28479" lon="6.1566">
        <ele>1998.4000244141</ele>
        <time>2012-12-19T10:48:40.000Z</time>
      </trkpt>
      <trkpt lat="45.28478" lon="6.15657">
        <ele>1998.5999755859</ele>
        <time>2012-12-19T10:48:45.000Z</time>
      </trkpt>
      <trkpt lat="45.28478" lon="6.15656">
        <ele>1999.4000244141</ele>
        <time>2012-12-19T10:48:47.000Z</time>
      </trkpt>
      <trkpt lat="45.28477" lon="6.15647">
        <ele>2001</ele>
        <time>2012-12-19T10:49:18.000Z</time>
      </trkpt>
      <trkpt lat="45.28476" lon="6.15644">
        <ele>2002.4000244141</ele>
        <time>2012-12-19T10:49:23.000Z</time>
      </trkpt>
      <trkpt lat="45.28473" lon="6.15636">
        <ele>2003.8000488281</ele>
        <time>2012-12-19T10:49:33.000Z</time>
      </trkpt>
      <trkpt lat="45.28472" lon="6.15631">
        <ele>2005.4000244141</ele>
        <time>2012-12-19T10:49:41.000Z</time>
      </trkpt>
      <trkpt lat="45.2847" lon="6.15623">
        <ele>2006.1999511719</ele>
        <time>2012-12-19T10:49:51.000Z</time>
      </trkpt>
      <trkpt lat="45.28469" lon="6.15617">
        <ele>2007.5999755859</ele>
        <time>2012-12-19T10:49:58.000Z</time>
      </trkpt>
      <trkpt lat="45.28467" lon="6.15612">
        <ele>2008</ele>
        <time>2012-12-19T10:50:04.000Z</time>
      </trkpt>
      <trkpt lat="45.28461" lon="6.1559">
        <ele>2014.1999511719</ele>
        <time>2012-12-19T10:50:48.000Z</time>
      </trkpt>
      <trkpt lat="45.28458" lon="6.15542">
        <ele>2026</ele>
        <time>2012-12-19T10:52:13.000Z</time>
      </trkpt>
      <trkpt lat="45.28458" lon="6.15541">
        <ele>2025.8000488281</ele>
        <time>2012-12-19T10:52:14.000Z</time>
      </trkpt>
      <trkpt lat="45.28458" lon="6.1554">
        <ele>2026.5999755859</ele>
        <time>2012-12-19T10:52:16.000Z</time>
      </trkpt>
      <trkpt lat="45.28458" lon="6.15506">
        <ele>2034.4000244141</ele>
        <time>2012-12-19T10:53:16.000Z</time>
      </trkpt>
      <trkpt lat="45.28463" lon="6.15498">
        <ele>2036.8000488281</ele>
        <time>2012-12-19T10:53:44.000Z</time>
      </trkpt>
      <trkpt lat="45.28462" lon="6.15497">
        <ele>2037.5999755859</ele>
        <time>2012-12-19T10:53:47.000Z</time>
      </trkpt>
      <trkpt lat="45.28459" lon="6.1549">
        <ele>2039.8000488281</ele>
        <time>2012-12-19T10:53:55.000Z</time>
      </trkpt>
      <trkpt lat="45.28459" lon="6.15485">
        <ele>2040.5999755859</ele>
        <time>2012-12-19T10:54:02.000Z</time>
      </trkpt>
      <trkpt lat="45.28458" lon="6.15481">
        <ele>2040.8000488281</ele>
        <time>2012-12-19T10:54:07.000Z</time>
      </trkpt>
      <trkpt lat="45.28458" lon="6.15479">
        <ele>2041.5999755859</ele>
        <time>2012-12-19T10:54:11.000Z</time>
      </trkpt>
      <trkpt lat="45.28457" lon="6.15468">
        <ele>2043.1999511719</ele>
        <time>2012-12-19T10:54:29.000Z</time>
      </trkpt>
      <trkpt lat="45.28462" lon="6.1543">
        <ele>2055.6000976562</ele>
        <time>2012-12-19T10:55:49.000Z</time>
      </trkpt>
      <trkpt lat="45.28462" lon="6.15431">
        <ele>2055.8000488281</ele>
        <time>2012-12-19T10:55:50.000Z</time>
      </trkpt>
      <trkpt lat="45.28467" lon="6.15431">
        <ele>2056.1999511719</ele>
        <time>2012-12-19T10:56:08.000Z</time>
      </trkpt>
      <trkpt lat="45.28474" lon="6.15424">
        <ele>2059</ele>
        <time>2012-12-19T10:56:30.000Z</time>
      </trkpt>
      <trkpt lat="45.2848" lon="6.15394">
        <ele>2065</ele>
        <time>2012-12-19T10:57:25.000Z</time>
      </trkpt>
      <trkpt lat="45.2848" lon="6.15393">
        <ele>2065.3999023438</ele>
        <time>2012-12-19T10:57:28.000Z</time>
      </trkpt>
      <trkpt lat="45.28481" lon="6.15386">
        <ele>2066.6000976562</ele>
        <time>2012-12-19T10:57:38.000Z</time>
      </trkpt>
      <trkpt lat="45.28482" lon="6.15384">
        <ele>2066.8000488281</ele>
        <time>2012-12-19T10:57:42.000Z</time>
      </trkpt>
      <trkpt lat="45.28479" lon="6.15371">
        <ele>2071.1999511719</ele>
        <time>2012-12-19T10:58:15.000Z</time>
      </trkpt>
      <trkpt lat="45.28476" lon="6.15369">
        <ele>2071.1999511719</ele>
        <time>2012-12-19T10:58:19.000Z</time>
      </trkpt>
      <trkpt lat="45.28472" lon="6.15366">
        <ele>2072.8000488281</ele>
        <time>2012-12-19T10:58:28.000Z</time>
      </trkpt>
      <trkpt lat="45.2847" lon="6.15365">
        <ele>2073.1999511719</ele>
        <time>2012-12-19T10:58:33.000Z</time>
      </trkpt>
      <trkpt lat="45.28466" lon="6.15362">
        <ele>2073.6000976562</ele>
        <time>2012-12-19T10:58:40.000Z</time>
      </trkpt>
      <trkpt lat="45.28465" lon="6.15359">
        <ele>2074.6000976562</ele>
        <time>2012-12-19T10:58:45.000Z</time>
      </trkpt>
      <trkpt lat="45.28462" lon="6.15356">
        <ele>2074.6000976562</ele>
        <time>2012-12-19T10:58:50.000Z</time>
      </trkpt>
      <trkpt lat="45.28459" lon="6.15354">
        <ele>2075.8000488281</ele>
        <time>2012-12-19T10:58:59.000Z</time>
      </trkpt>
      <trkpt lat="45.28457" lon="6.15351">
        <ele>2078</ele>
        <time>2012-12-19T10:59:15.000Z</time>
      </trkpt>
      <trkpt lat="45.28455" lon="6.15349">
        <ele>2077.6000976562</ele>
        <time>2012-12-19T10:59:18.000Z</time>
      </trkpt>
      <trkpt lat="45.28456" lon="6.15346">
        <ele>2078.6000976562</ele>
        <time>2012-12-19T11:08:40.000Z</time>
      </trkpt>
      <trkpt lat="45.28455" lon="6.15343">
        <ele>2079.3999023438</ele>
        <time>2012-12-19T11:08:45.000Z</time>
      </trkpt>
      <trkpt lat="45.28454" lon="6.15339">
        <ele>2080.6000976562</ele>
        <time>2012-12-19T11:08:50.000Z</time>
      </trkpt>
      <trkpt lat="45.28454" lon="6.15339">
        <ele>2080.6000976562</ele>
        <time>2012-12-19T11:08:51.000Z</time>
      </trkpt>
      <trkpt lat="45.28451" lon="6.15332">
        <ele>2082.1999511719</ele>
        <time>2012-12-19T11:09:00.000Z</time>
      </trkpt>
      <trkpt lat="45.28449" lon="6.15325">
        <ele>2083.3999023438</ele>
        <time>2012-12-19T11:09:11.000Z</time>
      </trkpt>
      <trkpt lat="45.28446" lon="6.15318">
        <ele>2084.6000976562</ele>
        <time>2012-12-19T11:09:24.000Z</time>
      </trkpt>
      <trkpt lat="45.28444" lon="6.15314">
        <ele>2085.1999511719</ele>
        <time>2012-12-19T11:09:30.000Z</time>
      </trkpt>
      <trkpt lat="45.28443" lon="6.15308">
        <ele>2086.1999511719</ele>
        <time>2012-12-19T11:09:40.000Z</time>
      </trkpt>
      <trkpt lat="45.28442" lon="6.15307">
        <ele>2086.6000976562</ele>
        <time>2012-12-19T11:09:42.000Z</time>
      </trkpt>
      <trkpt lat="45.28436" lon="6.15291">
        <ele>2089.6000976562</ele>
        <time>2012-12-19T11:10:08.000Z</time>
      </trkpt>
      <trkpt lat="45.28436" lon="6.15289">
        <ele>2090.3999023438</ele>
        <time>2012-12-19T11:10:10.000Z</time>
      </trkpt>
      <trkpt lat="45.28435" lon="6.15287">
        <ele>2091.3999023438</ele>
        <time>2012-12-19T11:10:14.000Z</time>
      </trkpt>
      <trkpt lat="45.28435" lon="6.15286">
        <ele>2091</ele>
        <time>2012-12-19T11:10:15.000Z</time>
      </trkpt>
      <trkpt lat="45.28434" lon="6.15284">
        <ele>2091</ele>
        <time>2012-12-19T11:10:20.000Z</time>
      </trkpt>
      <trkpt lat="45.28437" lon="6.15281">
        <ele>2093</ele>
        <time>2012-12-19T11:10:40.000Z</time>
      </trkpt>
      <trkpt lat="45.28441" lon="6.15279">
        <ele>2094.1999511719</ele>
        <time>2012-12-19T11:10:48.000Z</time>
      </trkpt>
      <trkpt lat="45.28438" lon="6.15268">
        <ele>2097.8000488281</ele>
        <time>2012-12-19T11:11:20.000Z</time>
      </trkpt>
      <trkpt lat="45.28437" lon="6.15265">
        <ele>2098.3999023438</ele>
        <time>2012-12-19T11:11:26.000Z</time>
      </trkpt>
      <trkpt lat="45.28433" lon="6.15253">
        <ele>2101</ele>
        <time>2012-12-19T11:11:49.000Z</time>
      </trkpt>
      <trkpt lat="45.28432" lon="6.15252">
        <ele>2101.3999023438</ele>
        <time>2012-12-19T11:11:51.000Z</time>
      </trkpt>
      <trkpt lat="45.28431" lon="6.15248">
        <ele>2101.8000488281</ele>
        <time>2012-12-19T11:11:57.000Z</time>
      </trkpt>
      <trkpt lat="45.28429" lon="6.15242">
        <ele>2102.8000488281</ele>
        <time>2012-12-19T11:12:05.000Z</time>
      </trkpt>
      <trkpt lat="45.28427" lon="6.15236">
        <ele>2103.1999511719</ele>
        <time>2012-12-19T11:12:14.000Z</time>
      </trkpt>
      <trkpt lat="45.28425" lon="6.15233">
        <ele>2103.6000976562</ele>
        <time>2012-12-19T11:12:20.000Z</time>
      </trkpt>
      <trkpt lat="45.28423" lon="6.15229">
        <ele>2105.3999023438</ele>
        <time>2012-12-19T11:12:26.000Z</time>
      </trkpt>
      <trkpt lat="45.2842" lon="6.15223">
        <ele>2106.3999023438</ele>
        <time>2012-12-19T11:12:35.000Z</time>
      </trkpt>
      <trkpt lat="45.28419" lon="6.15222">
        <ele>2106.8000488281</ele>
        <time>2012-12-19T11:12:37.000Z</time>
      </trkpt>
      <trkpt lat="45.28417" lon="6.15219">
        <ele>2107.8000488281</ele>
        <time>2012-12-19T11:12:44.000Z</time>
      </trkpt>
      <trkpt lat="45.28416" lon="6.15218">
        <ele>2108.8000488281</ele>
        <time>2012-12-19T11:12:48.000Z</time>
      </trkpt>
      <trkpt lat="45.28411" lon="6.1521">
        <ele>2110.3999023438</ele>
        <time>2012-12-19T11:13:02.000Z</time>
      </trkpt>
      <trkpt lat="45.28411" lon="6.15209">
        <ele>2110.6000976562</ele>
        <time>2012-12-19T11:13:03.000Z</time>
      </trkpt>
      <trkpt lat="45.28407" lon="6.15195">
        <ele>2112.3999023438</ele>
        <time>2012-12-19T11:13:20.000Z</time>
      </trkpt>
      <trkpt lat="45.28407" lon="6.15193">
        <ele>2112.8000488281</ele>
        <time>2012-12-19T11:13:22.000Z</time>
      </trkpt>
      <trkpt lat="45.28406" lon="6.15188">
        <ele>2113.3999023438</ele>
        <time>2012-12-19T11:13:30.000Z</time>
      </trkpt>
      <trkpt lat="45.28406" lon="6.15187">
        <ele>2113.6000976562</ele>
        <time>2012-12-19T11:13:31.000Z</time>
      </trkpt>
      <trkpt lat="45.28405" lon="6.15182">
        <ele>2114.8000488281</ele>
        <time>2012-12-19T11:13:39.000Z</time>
      </trkpt>
      <trkpt lat="45.28405" lon="6.15181">
        <ele>2114.8000488281</ele>
        <time>2012-12-19T11:13:41.000Z</time>
      </trkpt>
      <trkpt lat="45.28401" lon="6.15165">
        <ele>2117.6000976562</ele>
        <time>2012-12-19T11:14:07.000Z</time>
      </trkpt>
      <trkpt lat="45.28401" lon="6.15165">
        <ele>2117.6000976562</ele>
        <time>2012-12-19T11:14:08.000Z</time>
      </trkpt>
      <trkpt lat="45.28399" lon="6.15158">
        <ele>2119</ele>
        <time>2012-12-19T11:14:18.000Z</time>
      </trkpt>
      <trkpt lat="45.28398" lon="6.15155">
        <ele>2119.3999023438</ele>
        <time>2012-12-19T11:14:23.000Z</time>
      </trkpt>
      <trkpt lat="45.28397" lon="6.15154">
        <ele>2119.6000976562</ele>
        <time>2012-12-19T11:14:27.000Z</time>
      </trkpt>
      <trkpt lat="45.28396" lon="6.15151">
        <ele>2120</ele>
        <time>2012-12-19T11:14:33.000Z</time>
      </trkpt>
      <trkpt lat="45.28396" lon="6.15151">
        <ele>2120.3999023438</ele>
        <time>2012-12-19T11:14:34.000Z</time>
      </trkpt>
      <trkpt lat="45.28385" lon="6.15136">
        <ele>2124.6000976562</ele>
        <time>2012-12-19T11:15:09.000Z</time>
      </trkpt>
      <trkpt lat="45.28379" lon="6.15122">
        <ele>2126.8000488281</ele>
        <time>2012-12-19T11:15:49.000Z</time>
      </trkpt>
      <trkpt lat="45.28381" lon="6.15106">
        <ele>2130</ele>
        <time>2012-12-19T11:16:09.000Z</time>
      </trkpt>
      <trkpt lat="45.28384" lon="6.15104">
        <ele>2131.3999023438</ele>
        <time>2012-12-19T11:16:15.000Z</time>
      </trkpt>
      <trkpt lat="45.28385" lon="6.151">
        <ele>2131.6000976562</ele>
        <time>2012-12-19T11:16:20.000Z</time>
      </trkpt>
      <trkpt lat="45.28386" lon="6.15096">
        <ele>2132.3999023438</ele>
        <time>2012-12-19T11:16:25.000Z</time>
      </trkpt>
      <trkpt lat="45.28387" lon="6.15092">
        <ele>2133</ele>
        <time>2012-12-19T11:16:31.000Z</time>
      </trkpt>
      <trkpt lat="45.28387" lon="6.15089">
        <ele>2133.6000976562</ele>
        <time>2012-12-19T11:16:36.000Z</time>
      </trkpt>
      <trkpt lat="45.28388" lon="6.15085">
        <ele>2134.3999023438</ele>
        <time>2012-12-19T11:16:41.000Z</time>
      </trkpt>
      <trkpt lat="45.28388" lon="6.15081">
        <ele>2134.8000488281</ele>
        <time>2012-12-19T11:16:46.000Z</time>
      </trkpt>
      <trkpt lat="45.28388" lon="6.15078">
        <ele>2136</ele>
        <time>2012-12-19T11:16:51.000Z</time>
      </trkpt>
      <trkpt lat="45.28389" lon="6.15075">
        <ele>2136.8000488281</ele>
        <time>2012-12-19T11:16:56.000Z</time>
      </trkpt>
      <trkpt lat="45.28385" lon="6.15055">
        <ele>2142.1999511719</ele>
        <time>2012-12-19T11:17:37.000Z</time>
      </trkpt>
      <trkpt lat="45.28384" lon="6.15043">
        <ele>2146.1999511719</ele>
        <time>2012-12-19T11:18:04.000Z</time>
      </trkpt>
      <trkpt lat="45.28386" lon="6.15029">
        <ele>2148.3999023438</ele>
        <time>2012-12-19T11:18:47.000Z</time>
      </trkpt>
      <trkpt lat="45.28386" lon="6.15025">
        <ele>2149.1999511719</ele>
        <time>2012-12-19T11:18:53.000Z</time>
      </trkpt>
      <trkpt lat="45.28386" lon="6.15015">
        <ele>2150</ele>
        <time>2012-12-19T11:19:04.000Z</time>
      </trkpt>
      <trkpt lat="45.28386" lon="6.1501">
        <ele>2150.6000976562</ele>
        <time>2012-12-19T11:19:10.000Z</time>
      </trkpt>
      <trkpt lat="45.28385" lon="6.15006">
        <ele>2151.8000488281</ele>
        <time>2012-12-19T11:19:15.000Z</time>
      </trkpt>
      <trkpt lat="45.28385" lon="6.15002">
        <ele>2153</ele>
        <time>2012-12-19T11:19:20.000Z</time>
      </trkpt>
      <trkpt lat="45.28384" lon="6.14997">
        <ele>2153.1999511719</ele>
        <time>2012-12-19T11:19:26.000Z</time>
      </trkpt>
      <trkpt lat="45.28383" lon="6.14987">
        <ele>2155</ele>
        <time>2012-12-19T11:19:42.000Z</time>
      </trkpt>
      <trkpt lat="45.28383" lon="6.14983">
        <ele>2155.6000976562</ele>
        <time>2012-12-19T11:19:47.000Z</time>
      </trkpt>
      <trkpt lat="45.2838" lon="6.14964">
        <ele>2158.8000488281</ele>
        <time>2012-12-19T11:20:16.000Z</time>
      </trkpt>
      <trkpt lat="45.28379" lon="6.1496">
        <ele>2159.8000488281</ele>
        <time>2012-12-19T11:20:21.000Z</time>
      </trkpt>
      <trkpt lat="45.28379" lon="6.14958">
        <ele>2160</ele>
        <time>2012-12-19T11:20:24.000Z</time>
      </trkpt>
      <trkpt lat="45.28378" lon="6.14953">
        <ele>2160.3999023438</ele>
        <time>2012-12-19T11:20:31.000Z</time>
      </trkpt>
      <trkpt lat="45.28378" lon="6.14947">
        <ele>2161.1999511719</ele>
        <time>2012-12-19T11:20:38.000Z</time>
      </trkpt>
      <trkpt lat="45.28376" lon="6.14943">
        <ele>2161.6000976562</ele>
        <time>2012-12-19T11:20:43.000Z</time>
      </trkpt>
      <trkpt lat="45.28376" lon="6.14942">
        <ele>2161.6000976562</ele>
        <time>2012-12-19T11:20:44.000Z</time>
      </trkpt>
      <trkpt lat="45.28383" lon="6.14941">
        <ele>2164.3999023438</ele>
        <time>2012-12-19T11:21:42.000Z</time>
      </trkpt>
      <trkpt lat="45.28385" lon="6.14942">
        <ele>2165.1999511719</ele>
        <time>2012-12-19T11:21:47.000Z</time>
      </trkpt>
      <trkpt lat="45.28386" lon="6.14945">
        <ele>2165.6000976562</ele>
        <time>2012-12-19T11:21:52.000Z</time>
      </trkpt>
      <trkpt lat="45.2839" lon="6.14949">
        <ele>2167</ele>
        <time>2012-12-19T11:22:05.000Z</time>
      </trkpt>
      <trkpt lat="45.28391" lon="6.14949">
        <ele>2167.8000488281</ele>
        <time>2012-12-19T11:22:09.000Z</time>
      </trkpt>
      <trkpt lat="45.28393" lon="6.14951">
        <ele>2168</ele>
        <time>2012-12-19T11:22:15.000Z</time>
      </trkpt>
      <trkpt lat="45.28397" lon="6.14934">
        <ele>2170.6000976562</ele>
        <time>2012-12-19T11:22:55.000Z</time>
      </trkpt>
      <trkpt lat="45.28392" lon="6.14916">
        <ele>2173.8000488281</ele>
        <time>2012-12-19T11:23:44.000Z</time>
      </trkpt>
      <trkpt lat="45.28383" lon="6.14861">
        <ele>2177</ele>
        <time>2012-12-19T11:24:22.000Z</time>
      </trkpt>
      <trkpt lat="45.2838" lon="6.1485">
        <ele>2177.8000488281</ele>
        <time>2012-12-19T11:24:33.000Z</time>
      </trkpt>
      <trkpt lat="45.28365" lon="6.14823">
        <ele>2179.3999023438</ele>
        <time>2012-12-19T11:25:09.000Z</time>
      </trkpt>
      <trkpt lat="45.28364" lon="6.1482">
        <ele>2164.1999511719</ele>
        <time>2012-12-19T11:25:12.000Z</time>
      </trkpt>
      <trkpt lat="45.28363" lon="6.1482">
        <ele>2169.3999023438</ele>
        <time>2012-12-19T11:25:13.000Z</time>
      </trkpt>
      <trkpt lat="45.28355" lon="6.14816">
        <ele>2168</ele>
        <time>2012-12-19T11:25:37.000Z</time>
      </trkpt>
      <trkpt lat="45.28353" lon="6.14812">
        <ele>2168.8000488281</ele>
        <time>2012-12-19T11:25:42.000Z</time>
      </trkpt>
      <trkpt lat="45.28351" lon="6.14808">
        <ele>2168.3999023438</ele>
        <time>2012-12-19T11:25:49.000Z</time>
      </trkpt>
      <trkpt lat="45.28351" lon="6.14806">
        <ele>2168.6000976562</ele>
        <time>2012-12-19T11:25:51.000Z</time>
      </trkpt>
      <trkpt lat="45.2835" lon="6.14803">
        <ele>2169</ele>
        <time>2012-12-19T11:25:55.000Z</time>
      </trkpt>
      <trkpt lat="45.28348" lon="6.14801">
        <ele>2169.8000488281</ele>
        <time>2012-12-19T11:26:00.000Z</time>
      </trkpt>
      <trkpt lat="45.28347" lon="6.14797">
        <ele>2169</ele>
        <time>2012-12-19T11:26:05.000Z</time>
      </trkpt>
      <trkpt lat="45.28347" lon="6.14792">
        <ele>2170</ele>
        <time>2012-12-19T11:26:11.000Z</time>
      </trkpt>
      <trkpt lat="45.28347" lon="6.14789">
        <ele>2170.1999511719</ele>
        <time>2012-12-19T11:26:16.000Z</time>
      </trkpt>
      <trkpt lat="45.28341" lon="6.14803">
        <ele>2167.1999511719</ele>
        <time>2012-12-19T11:27:07.000Z</time>
      </trkpt>
      <trkpt lat="45.28341" lon="6.14803">
        <ele>2167</ele>
        <time>2012-12-19T11:27:08.000Z</time>
      </trkpt>
      <trkpt lat="45.28346" lon="6.14807">
        <ele>2167.8000488281</ele>
        <time>2012-12-19T11:27:22.000Z</time>
      </trkpt>
      <trkpt lat="45.28352" lon="6.14811">
        <ele>2168.6000976562</ele>
        <time>2012-12-19T11:27:28.000Z</time>
      </trkpt>
      <trkpt lat="45.28356" lon="6.14814">
        <ele>2169</ele>
        <time>2012-12-19T11:27:31.000Z</time>
      </trkpt>
      <trkpt lat="45.28361" lon="6.14821">
        <ele>2169.1999511719</ele>
        <time>2012-12-19T11:27:37.000Z</time>
      </trkpt>
      <trkpt lat="45.28367" lon="6.14829">
        <ele>2169.3999023438</ele>
        <time>2012-12-19T11:27:46.000Z</time>
      </trkpt>
      <trkpt lat="45.28368" lon="6.14831">
        <ele>2169.6000976562</ele>
        <time>2012-12-19T11:27:48.000Z</time>
      </trkpt>
      <trkpt lat="45.28384" lon="6.14851">
        <ele>2170.3999023438</ele>
        <time>2012-12-19T11:28:08.000Z</time>
      </trkpt>
      <trkpt lat="45.28384" lon="6.14852">
        <ele>2170.3999023438</ele>
        <time>2012-12-19T11:28:09.000Z</time>
      </trkpt>
      <trkpt lat="45.28391" lon="6.14858">
        <ele>2171.1999511719</ele>
        <time>2012-12-19T11:28:16.000Z</time>
      </trkpt>
      <trkpt lat="45.28398" lon="6.14861">
        <ele>2172.3999023438</ele>
        <time>2012-12-19T11:28:21.000Z</time>
      </trkpt>
      <trkpt lat="45.28401" lon="6.14863">
        <ele>2172.6000976562</ele>
        <time>2012-12-19T11:28:25.000Z</time>
      </trkpt>
      <trkpt lat="45.28406" lon="6.14871">
        <ele>2174.1999511719</ele>
        <time>2012-12-19T11:28:38.000Z</time>
      </trkpt>
      <trkpt lat="45.28409" lon="6.14873">
        <ele>2175.6000976562</ele>
        <time>2012-12-19T11:28:45.000Z</time>
      </trkpt>
      <trkpt lat="45.28406" lon="6.14863">
        <ele>2179</ele>
        <time>2012-12-19T11:29:30.000Z</time>
      </trkpt>
      <trkpt lat="45.28406" lon="6.14862">
        <ele>2179.6000976562</ele>
        <time>2012-12-19T11:29:31.000Z</time>
      </trkpt>
      <trkpt lat="45.28403" lon="6.14853">
        <ele>2181.8000488281</ele>
        <time>2012-12-19T11:29:49.000Z</time>
      </trkpt>
      <trkpt lat="45.28411" lon="6.14851">
        <ele>2186.3999023438</ele>
        <time>2012-12-19T11:30:40.000Z</time>
      </trkpt>
      <trkpt lat="45.28404" lon="6.14817">
        <ele>2202.3999023438</ele>
        <time>2012-12-19T11:32:35.000Z</time>
      </trkpt>
      <trkpt lat="45.28403" lon="6.14813">
        <ele>2204</ele>
        <time>2012-12-19T11:32:41.000Z</time>
      </trkpt>
      <trkpt lat="45.28403" lon="6.1481">
        <ele>2203.8000488281</ele>
        <time>2012-12-19T11:32:45.000Z</time>
      </trkpt>
      <trkpt lat="45.2839" lon="6.14711">
        <ele>2230.3999023438</ele>
        <time>2012-12-19T11:36:15.000Z</time>
      </trkpt>
      <trkpt lat="45.2839" lon="6.1471">
        <ele>2230.3999023438</ele>
        <time>2012-12-19T11:36:16.000Z</time>
      </trkpt>
      <trkpt lat="45.28389" lon="6.14709">
        <ele>2231</ele>
        <time>2012-12-19T11:36:18.000Z</time>
      </trkpt>
      <trkpt lat="45.28383" lon="6.1466">
        <ele>2250.8000488281</ele>
        <time>2012-12-19T11:38:49.000Z</time>
      </trkpt>
      <trkpt lat="45.28382" lon="6.1466">
        <ele>2251</ele>
        <time>2012-12-19T11:38:50.000Z</time>
      </trkpt>
      <trkpt lat="45.28393" lon="6.14672">
        <ele>2263.3999023438</ele>
        <time>2012-12-19T11:40:12.000Z</time>
      </trkpt>
      <trkpt lat="45.28394" lon="6.14673">
        <ele>2263.3999023438</ele>
        <time>2012-12-19T11:40:13.000Z</time>
      </trkpt>
      <trkpt lat="45.28404" lon="6.14671">
        <ele>2269</ele>
        <time>2012-12-19T11:40:40.000Z</time>
      </trkpt>
      <trkpt lat="45.28407" lon="6.14669">
        <ele>2270.6000976562</ele>
        <time>2012-12-19T11:40:46.000Z</time>
      </trkpt>
      <trkpt lat="45.28408" lon="6.14666">
        <ele>2271</ele>
        <time>2012-12-19T11:40:51.000Z</time>
      </trkpt>
      <trkpt lat="45.28407" lon="6.14665">
        <ele>2272.1999511719</ele>
        <time>2012-12-19T11:40:55.000Z</time>
      </trkpt>
      <trkpt lat="45.28414" lon="6.14626">
        <ele>2276.8000488281</ele>
        <time>2012-12-19T11:42:41.000Z</time>
      </trkpt>
      <trkpt lat="45.28416" lon="6.14622">
        <ele>2276.8000488281</ele>
        <time>2012-12-19T11:42:47.000Z</time>
      </trkpt>
      <trkpt lat="45.28419" lon="6.1461">
        <ele>2278.1999511719</ele>
        <time>2012-12-19T11:42:58.000Z</time>
      </trkpt>
      <trkpt lat="45.28421" lon="6.14602">
        <ele>2279.1999511719</ele>
        <time>2012-12-19T11:43:08.000Z</time>
      </trkpt>
      <trkpt lat="45.28422" lon="6.14597">
        <ele>2280.3999023438</ele>
        <time>2012-12-19T11:43:14.000Z</time>
      </trkpt>
      <trkpt lat="45.28424" lon="6.14588">
        <ele>2281.8000488281</ele>
        <time>2012-12-19T11:43:25.000Z</time>
      </trkpt>
      <trkpt lat="45.28427" lon="6.14582">
        <ele>2282.6000976562</ele>
        <time>2012-12-19T11:43:36.000Z</time>
      </trkpt>
      <trkpt lat="45.28429" lon="6.14576">
        <ele>2285</ele>
        <time>2012-12-19T11:43:44.000Z</time>
      </trkpt>
      <trkpt lat="45.28431" lon="6.14571">
        <ele>2286.1999511719</ele>
        <time>2012-12-19T11:43:50.000Z</time>
      </trkpt>
      <trkpt lat="45.28432" lon="6.14569">
        <ele>2286.1999511719</ele>
        <time>2012-12-19T11:43:54.000Z</time>
      </trkpt>
      <trkpt lat="45.28442" lon="6.14556">
        <ele>2289</ele>
        <time>2012-12-19T11:44:11.000Z</time>
      </trkpt>
      <trkpt lat="45.28444" lon="6.14554">
        <ele>2289.8000488281</ele>
        <time>2012-12-19T11:44:13.000Z</time>
      </trkpt>
      <trkpt lat="45.28446" lon="6.1455">
        <ele>2290.8000488281</ele>
        <time>2012-12-19T11:44:18.000Z</time>
      </trkpt>
      <trkpt lat="45.28447" lon="6.14549">
        <ele>2291.6000976562</ele>
        <time>2012-12-19T11:44:19.000Z</time>
      </trkpt>
      <trkpt lat="45.28455" lon="6.14538">
        <ele>2293.8000488281</ele>
        <time>2012-12-19T11:44:34.000Z</time>
      </trkpt>
      <trkpt lat="45.28464" lon="6.14519">
        <ele>2299.3999023438</ele>
        <time>2012-12-19T11:45:21.000Z</time>
      </trkpt>
      <trkpt lat="45.28465" lon="6.14517">
        <ele>2300.3999023438</ele>
        <time>2012-12-19T11:45:25.000Z</time>
      </trkpt>
      <trkpt lat="45.28466" lon="6.14513">
        <ele>2301</ele>
        <time>2012-12-19T11:45:31.000Z</time>
      </trkpt>
      <trkpt lat="45.28466" lon="6.14511">
        <ele>2301.8000488281</ele>
        <time>2012-12-19T11:45:35.000Z</time>
      </trkpt>
      <trkpt lat="45.28466" lon="6.14504">
        <ele>2302.6000976562</ele>
        <time>2012-12-19T11:45:41.000Z</time>
      </trkpt>
      <trkpt lat="45.28465" lon="6.14499">
        <ele>2303.3999023438</ele>
        <time>2012-12-19T11:45:46.000Z</time>
      </trkpt>
      <trkpt lat="45.28469" lon="6.14486">
        <ele>2307</ele>
        <time>2012-12-19T11:46:09.000Z</time>
      </trkpt>
      <trkpt lat="45.2847" lon="6.14484">
        <ele>2307.8000488281</ele>
        <time>2012-12-19T11:46:15.000Z</time>
      </trkpt>
      <trkpt lat="45.28471" lon="6.1448">
        <ele>2308.6000976562</ele>
        <time>2012-12-19T11:46:20.000Z</time>
      </trkpt>
      <trkpt lat="45.28473" lon="6.14474">
        <ele>2310</ele>
        <time>2012-12-19T11:46:28.000Z</time>
      </trkpt>
      <trkpt lat="45.28474" lon="6.14468">
        <ele>2311</ele>
        <time>2012-12-19T11:46:34.000Z</time>
      </trkpt>
      <trkpt lat="45.28473" lon="6.14463">
        <ele>2311.6000976562</ele>
        <time>2012-12-19T11:46:39.000Z</time>
      </trkpt>
      <trkpt lat="45.28473" lon="6.14456">
        <ele>2313.1999511719</ele>
        <time>2012-12-19T11:46:50.000Z</time>
      </trkpt>
      <trkpt lat="45.28473" lon="6.14456">
        <ele>2313.6000976562</ele>
        <time>2012-12-19T11:46:51.000Z</time>
      </trkpt>
      <trkpt lat="45.28471" lon="6.14451">
        <ele>2314.6000976562</ele>
        <time>2012-12-19T11:46:58.000Z</time>
      </trkpt>
      <trkpt lat="45.28468" lon="6.14433">
        <ele>2323</ele>
        <time>2012-12-19T11:47:49.000Z</time>
      </trkpt>
      <trkpt lat="45.28482" lon="6.1443">
        <ele>2328.1999511719</ele>
        <time>2012-12-19T11:48:25.000Z</time>
      </trkpt>
      <trkpt lat="45.28496" lon="6.14431">
        <ele>2333.3999023438</ele>
        <time>2012-12-19T11:48:55.000Z</time>
      </trkpt>
      <trkpt lat="45.28497" lon="6.14431">
        <ele>2333.3999023438</ele>
        <time>2012-12-19T11:48:56.000Z</time>
      </trkpt>
      <trkpt lat="45.28497" lon="6.14431">
        <ele>2333.8000488281</ele>
        <time>2012-12-19T11:48:57.000Z</time>
      </trkpt>
      <trkpt lat="45.28501" lon="6.14434">
        <ele>2335.3999023438</ele>
        <time>2012-12-19T11:49:21.000Z</time>
      </trkpt>
      <trkpt lat="45.28505" lon="6.14439">
        <ele>2337.6000976562</ele>
        <time>2012-12-19T11:49:30.000Z</time>
      </trkpt>
      <trkpt lat="45.28508" lon="6.14444">
        <ele>2339</ele>
        <time>2012-12-19T11:49:39.000Z</time>
      </trkpt>
      <trkpt lat="45.28511" lon="6.14448">
        <ele>2341</ele>
        <time>2012-12-19T11:49:48.000Z</time>
      </trkpt>
      <trkpt lat="45.28513" lon="6.14453">
        <ele>2342</ele>
        <time>2012-12-19T11:49:57.000Z</time>
      </trkpt>
      <trkpt lat="45.28515" lon="6.14455">
        <ele>2343.6000976562</ele>
        <time>2012-12-19T11:50:02.000Z</time>
      </trkpt>
      <trkpt lat="45.28515" lon="6.14455">
        <ele>2343.8000488281</ele>
        <time>2012-12-19T11:50:04.000Z</time>
      </trkpt>
      <trkpt lat="45.28517" lon="6.14457">
        <ele>2345.1999511719</ele>
        <time>2012-12-19T11:50:10.000Z</time>
      </trkpt>
      <trkpt lat="45.2852" lon="6.14457">
        <ele>2346.8000488281</ele>
        <time>2012-12-19T11:50:17.000Z</time>
      </trkpt>
      <trkpt lat="45.28522" lon="6.14456">
        <ele>2347.1999511719</ele>
        <time>2012-12-19T11:50:21.000Z</time>
      </trkpt>
      <trkpt lat="45.28526" lon="6.14455">
        <ele>2347.6000976562</ele>
        <time>2012-12-19T11:50:29.000Z</time>
      </trkpt>
      <trkpt lat="45.28529" lon="6.14451">
        <ele>2349.1999511719</ele>
        <time>2012-12-19T11:50:38.000Z</time>
      </trkpt>
      <trkpt lat="45.2853" lon="6.14451">
        <ele>2349.6000976562</ele>
        <time>2012-12-19T11:50:39.000Z</time>
      </trkpt>
      <trkpt lat="45.28533" lon="6.14446">
        <ele>2352</ele>
        <time>2012-12-19T11:53:28.000Z</time>
      </trkpt>
      <trkpt lat="45.28535" lon="6.14438">
        <ele>2352.6000976562</ele>
        <time>2012-12-19T11:53:36.000Z</time>
      </trkpt>
      <trkpt lat="45.28537" lon="6.14428">
        <ele>2354.3999023438</ele>
        <time>2012-12-19T11:53:45.000Z</time>
      </trkpt>
      <trkpt lat="45.28537" lon="6.14421">
        <ele>2355</ele>
        <time>2012-12-19T11:53:52.000Z</time>
      </trkpt>
      <trkpt lat="45.28538" lon="6.14419">
        <ele>2354.6000976562</ele>
        <time>2012-12-19T11:53:59.000Z</time>
      </trkpt>
      <trkpt lat="45.28539" lon="6.1441">
        <ele>2356.6000976562</ele>
        <time>2012-12-19T11:54:08.000Z</time>
      </trkpt>
      <trkpt lat="45.2854" lon="6.14401">
        <ele>2358.1999511719</ele>
        <time>2012-12-19T11:54:18.000Z</time>
      </trkpt>
      <trkpt lat="45.28541" lon="6.14393">
        <ele>2360.6000976562</ele>
        <time>2012-12-19T11:54:27.000Z</time>
      </trkpt>
      <trkpt lat="45.2854" lon="6.14385">
        <ele>2362</ele>
        <time>2012-12-19T11:54:36.000Z</time>
      </trkpt>
      <trkpt lat="45.2854" lon="6.14383">
        <ele>2362</ele>
        <time>2012-12-19T11:54:38.000Z</time>
      </trkpt>
      <trkpt lat="45.28541" lon="6.14379">
        <ele>2362</ele>
        <time>2012-12-19T11:54:48.000Z</time>
      </trkpt>
      <trkpt lat="45.28542" lon="6.14373">
        <ele>2364</ele>
        <time>2012-12-19T11:54:54.000Z</time>
      </trkpt>
      <trkpt lat="45.28544" lon="6.14364">
        <ele>2365</ele>
        <time>2012-12-19T11:55:05.000Z</time>
      </trkpt>
      <trkpt lat="45.28547" lon="6.14359">
        <ele>2366</ele>
        <time>2012-12-19T11:55:13.000Z</time>
      </trkpt>
      <trkpt lat="45.28552" lon="6.14356">
        <ele>2366.8000488281</ele>
        <time>2012-12-19T11:55:21.000Z</time>
      </trkpt>
      <trkpt lat="45.28552" lon="6.14356">
        <ele>2367.1999511719</ele>
        <time>2012-12-19T11:55:23.000Z</time>
      </trkpt>
      <trkpt lat="45.28552" lon="6.14359">
        <ele>2368.3999023438</ele>
        <time>2012-12-19T11:58:00.000Z</time>
      </trkpt>
      <trkpt lat="45.28552" lon="6.1436">
        <ele>2368.3999023438</ele>
        <time>2012-12-19T11:58:02.000Z</time>
      </trkpt>
      <trkpt lat="45.28552" lon="6.1437">
        <ele>2367.8000488281</ele>
        <time>2012-12-19T11:58:15.000Z</time>
      </trkpt>
      <trkpt lat="45.28548" lon="6.14373">
        <ele>2368.1999511719</ele>
        <time>2012-12-19T11:58:32.000Z</time>
      </trkpt>
      <trkpt lat="45.28548" lon="6.14374">
        <ele>2371.1999511719</ele>
        <time>2012-12-19T12:04:22.000Z</time>
      </trkpt>
      <trkpt lat="45.28546" lon="6.14376">
        <ele>2371.3999023438</ele>
        <time>2012-12-19T12:04:28.000Z</time>
      </trkpt>
      <trkpt lat="45.28538" lon="6.14369">
        <ele>2373.6000976562</ele>
        <time>2012-12-19T12:12:14.000Z</time>
      </trkpt>
      <trkpt lat="45.28531" lon="6.14372">
        <ele>2372.3999023438</ele>
        <time>2012-12-19T12:12:18.000Z</time>
      </trkpt>
      <trkpt lat="45.28528" lon="6.14386">
        <ele>2370</ele>
        <time>2012-12-19T12:12:21.000Z</time>
      </trkpt>
      <trkpt lat="45.28522" lon="6.14399">
        <ele>2367.6000976562</ele>
        <time>2012-12-19T12:12:24.000Z</time>
      </trkpt>
      <trkpt lat="45.2851" lon="6.14418">
        <ele>2361.3999023438</ele>
        <time>2012-12-19T12:12:28.000Z</time>
      </trkpt>
      <trkpt lat="45.28503" lon="6.14427">
        <ele>2356.8000488281</ele>
        <time>2012-12-19T12:12:30.000Z</time>
      </trkpt>
      <trkpt lat="45.28485" lon="6.14443">
        <ele>2345.1999511719</ele>
        <time>2012-12-19T12:12:35.000Z</time>
      </trkpt>
      <trkpt lat="45.28473" lon="6.14458">
        <ele>2338</ele>
        <time>2012-12-19T12:12:38.000Z</time>
      </trkpt>
      <trkpt lat="45.28459" lon="6.14485">
        <ele>2330</ele>
        <time>2012-12-19T12:12:41.000Z</time>
      </trkpt>
      <trkpt lat="45.28454" lon="6.14516">
        <ele>2322</ele>
        <time>2012-12-19T12:12:44.000Z</time>
      </trkpt>
      <trkpt lat="45.28441" lon="6.14556">
        <ele>2312.3999023438</ele>
        <time>2012-12-19T12:12:49.000Z</time>
      </trkpt>
      <trkpt lat="45.28421" lon="6.1459">
        <ele>2303.6000976562</ele>
        <time>2012-12-19T12:12:53.000Z</time>
      </trkpt>
      <trkpt lat="45.28393" lon="6.14614">
        <ele>2296.8000488281</ele>
        <time>2012-12-19T12:12:57.000Z</time>
      </trkpt>
      <trkpt lat="45.28394" lon="6.14634">
        <ele>2294.6000976562</ele>
        <time>2012-12-19T12:13:00.000Z</time>
      </trkpt>
      <trkpt lat="45.28394" lon="6.14634">
        <ele>2294.1999511719</ele>
        <time>2012-12-19T12:13:02.000Z</time>
      </trkpt>
      <trkpt lat="45.284" lon="6.14618">
        <ele>2294</ele>
        <time>2012-12-19T12:13:10.000Z</time>
      </trkpt>
      <trkpt lat="45.284" lon="6.14618">
        <ele>2294</ele>
        <time>2012-12-19T12:13:12.000Z</time>
      </trkpt>
      <trkpt lat="45.28394" lon="6.14625">
        <ele>2292.6000976562</ele>
        <time>2012-12-19T12:13:16.000Z</time>
      </trkpt>
      <trkpt lat="45.2839" lon="6.14631">
        <ele>2291</ele>
        <time>2012-12-19T12:13:18.000Z</time>
      </trkpt>
      <trkpt lat="45.28388" lon="6.14641">
        <ele>2290.1999511719</ele>
        <time>2012-12-19T12:13:20.000Z</time>
      </trkpt>
      <trkpt lat="45.28386" lon="6.14646">
        <ele>2288.8000488281</ele>
        <time>2012-12-19T12:13:21.000Z</time>
      </trkpt>
      <trkpt lat="45.28382" lon="6.14662">
        <ele>2281.6000976562</ele>
        <time>2012-12-19T12:13:25.000Z</time>
      </trkpt>
      <trkpt lat="45.28382" lon="6.14671">
        <ele>2277.6000976562</ele>
        <time>2012-12-19T12:13:27.000Z</time>
      </trkpt>
      <trkpt lat="45.28374" lon="6.14678">
        <ele>2270.8000488281</ele>
        <time>2012-12-19T12:13:30.000Z</time>
      </trkpt>
      <trkpt lat="45.28374" lon="6.14687">
        <ele>2267.3999023438</ele>
        <time>2012-12-19T12:13:32.000Z</time>
      </trkpt>
      <trkpt lat="45.28371" lon="6.14702">
        <ele>2261.6000976562</ele>
        <time>2012-12-19T12:13:35.000Z</time>
      </trkpt>
      <trkpt lat="45.28369" lon="6.14708">
        <ele>2258.6000976562</ele>
        <time>2012-12-19T12:13:36.000Z</time>
      </trkpt>
      <trkpt lat="45.28359" lon="6.14736">
        <ele>2244.1999511719</ele>
        <time>2012-12-19T12:13:41.000Z</time>
      </trkpt>
      <trkpt lat="45.28346" lon="6.14753">
        <ele>2233.8000488281</ele>
        <time>2012-12-19T12:13:44.000Z</time>
      </trkpt>
      <trkpt lat="45.28336" lon="6.14765">
        <ele>2225.3999023438</ele>
        <time>2012-12-19T12:13:47.000Z</time>
      </trkpt>
      <trkpt lat="45.28324" lon="6.1478">
        <ele>2216</ele>
        <time>2012-12-19T12:13:50.000Z</time>
      </trkpt>
      <trkpt lat="45.28318" lon="6.14797">
        <ele>2208.1999511719</ele>
        <time>2012-12-19T12:13:53.000Z</time>
      </trkpt>
      <trkpt lat="45.28315" lon="6.14811">
        <ele>2203</ele>
        <time>2012-12-19T12:13:55.000Z</time>
      </trkpt>
      <trkpt lat="45.28313" lon="6.14826">
        <ele>2196</ele>
        <time>2012-12-19T12:13:58.000Z</time>
      </trkpt>
      <trkpt lat="45.28312" lon="6.14837">
        <ele>2191.6000976562</ele>
        <time>2012-12-19T12:14:00.000Z</time>
      </trkpt>
      <trkpt lat="45.28311" lon="6.1487">
        <ele>2183.3999023438</ele>
        <time>2012-12-19T12:14:05.000Z</time>
      </trkpt>
      <trkpt lat="45.28313" lon="6.14889">
        <ele>2178</ele>
        <time>2012-12-19T12:14:08.000Z</time>
      </trkpt>
      <trkpt lat="45.28322" lon="6.14917">
        <ele>2170.3999023438</ele>
        <time>2012-12-19T12:14:12.000Z</time>
      </trkpt>
      <trkpt lat="45.28337" lon="6.14946">
        <ele>2164.1999511719</ele>
        <time>2012-12-19T12:14:17.000Z</time>
      </trkpt>
      <trkpt lat="45.28339" lon="6.14963">
        <ele>2162.3999023438</ele>
        <time>2012-12-19T12:14:20.000Z</time>
      </trkpt>
      <trkpt lat="45.28343" lon="6.14984">
        <ele>2158.1999511719</ele>
        <time>2012-12-19T12:14:23.000Z</time>
      </trkpt>
      <trkpt lat="45.28348" lon="6.15015">
        <ele>2154</ele>
        <time>2012-12-19T12:14:27.000Z</time>
      </trkpt>
      <trkpt lat="45.28352" lon="6.15049">
        <ele>2149.3999023438</ele>
        <time>2012-12-19T12:14:31.000Z</time>
      </trkpt>
      <trkpt lat="45.28352" lon="6.15068">
        <ele>2147.8000488281</ele>
        <time>2012-12-19T12:14:34.000Z</time>
      </trkpt>
      <trkpt lat="45.28355" lon="6.15093">
        <ele>2145</ele>
        <time>2012-12-19T12:14:39.000Z</time>
      </trkpt>
      <trkpt lat="45.28358" lon="6.15121">
        <ele>2140.6000976562</ele>
        <time>2012-12-19T12:14:44.000Z</time>
      </trkpt>
      <trkpt lat="45.28363" lon="6.15145">
        <ele>2135.8000488281</ele>
        <time>2012-12-19T12:14:49.000Z</time>
      </trkpt>
      <trkpt lat="45.28368" lon="6.15146">
        <ele>2135</ele>
        <time>2012-12-19T12:14:51.000Z</time>
      </trkpt>
      <trkpt lat="45.28369" lon="6.15141">
        <ele>2134.1999511719</ele>
        <time>2012-12-19T12:14:55.000Z</time>
      </trkpt>
      <trkpt lat="45.2837" lon="6.15141">
        <ele>2134.1999511719</ele>
        <time>2012-12-19T12:14:59.000Z</time>
      </trkpt>
      <trkpt lat="45.28371" lon="6.15157">
        <ele>2133.1999511719</ele>
        <time>2012-12-19T12:15:22.000Z</time>
      </trkpt>
      <trkpt lat="45.28372" lon="6.15163">
        <ele>2132.3999023438</ele>
        <time>2012-12-19T12:15:23.000Z</time>
      </trkpt>
      <trkpt lat="45.28371" lon="6.15175">
        <ele>2130.8000488281</ele>
        <time>2012-12-19T12:15:25.000Z</time>
      </trkpt>
      <trkpt lat="45.28374" lon="6.15204">
        <ele>2124.3999023438</ele>
        <time>2012-12-19T12:15:30.000Z</time>
      </trkpt>
      <trkpt lat="45.28379" lon="6.15222">
        <ele>2116</ele>
        <time>2012-12-19T12:15:34.000Z</time>
      </trkpt>
      <trkpt lat="45.28386" lon="6.15236">
        <ele>2117.3999023438</ele>
        <time>2012-12-19T12:15:37.000Z</time>
      </trkpt>
      <trkpt lat="45.28389" lon="6.15252">
        <ele>2112.1999511719</ele>
        <time>2012-12-19T12:15:39.000Z</time>
      </trkpt>
      <trkpt lat="45.28403" lon="6.15281">
        <ele>2105.1999511719</ele>
        <time>2012-12-19T12:15:44.000Z</time>
      </trkpt>
      <trkpt lat="45.28411" lon="6.1532">
        <ele>2096.1999511719</ele>
        <time>2012-12-19T12:15:49.000Z</time>
      </trkpt>
      <trkpt lat="45.2842" lon="6.15347">
        <ele>2089.3999023438</ele>
        <time>2012-12-19T12:15:53.000Z</time>
      </trkpt>
      <trkpt lat="45.28426" lon="6.15386">
        <ele>2081.8000488281</ele>
        <time>2012-12-19T12:15:58.000Z</time>
      </trkpt>
      <trkpt lat="45.28431" lon="6.15407">
        <ele>2079</ele>
        <time>2012-12-19T12:16:01.000Z</time>
      </trkpt>
      <trkpt lat="45.28434" lon="6.15432">
        <ele>2074.6000976562</ele>
        <time>2012-12-19T12:16:06.000Z</time>
      </trkpt>
      <trkpt lat="45.28438" lon="6.15434">
        <ele>2073.1999511719</ele>
        <time>2012-12-19T12:16:09.000Z</time>
      </trkpt>
      <trkpt lat="45.28438" lon="6.15432">
        <ele>2072.8000488281</ele>
        <time>2012-12-19T12:16:11.000Z</time>
      </trkpt>
      <trkpt lat="45.28442" lon="6.15437">
        <ele>2073</ele>
        <time>2012-12-19T12:16:36.000Z</time>
      </trkpt>
      <trkpt lat="45.28446" lon="6.15444">
        <ele>2071.6000976562</ele>
        <time>2012-12-19T12:16:40.000Z</time>
      </trkpt>
      <trkpt lat="45.2845" lon="6.15466">
        <ele>2066</ele>
        <time>2012-12-19T12:16:44.000Z</time>
      </trkpt>
      <trkpt lat="45.28451" lon="6.15474">
        <ele>2064.6000976562</ele>
        <time>2012-12-19T12:16:45.000Z</time>
      </trkpt>
      <trkpt lat="45.28461" lon="6.15506">
        <ele>2054.8000488281</ele>
        <time>2012-12-19T12:16:50.000Z</time>
      </trkpt>
      <trkpt lat="45.28464" lon="6.15526">
        <ele>2050.8000488281</ele>
        <time>2012-12-19T12:16:54.000Z</time>
      </trkpt>
      <trkpt lat="45.28468" lon="6.15562">
        <ele>2044.5999755859</ele>
        <time>2012-12-19T12:16:59.000Z</time>
      </trkpt>
      <trkpt lat="45.28467" lon="6.15593">
        <ele>2036.8000488281</ele>
        <time>2012-12-19T12:17:03.000Z</time>
      </trkpt>
      <trkpt lat="45.2846" lon="6.15618">
        <ele>2028.1999511719</ele>
        <time>2012-12-19T12:17:06.000Z</time>
      </trkpt>
      <trkpt lat="45.28457" lon="6.15633">
        <ele>2024.5999755859</ele>
        <time>2012-12-19T12:17:08.000Z</time>
      </trkpt>
      <trkpt lat="45.28449" lon="6.15673">
        <ele>2012.8000488281</ele>
        <time>2012-12-19T12:17:13.000Z</time>
      </trkpt>
      <trkpt lat="45.28446" lon="6.15684">
        <ele>2009.1999511719</ele>
        <time>2012-12-19T12:17:14.000Z</time>
      </trkpt>
      <trkpt lat="45.28435" lon="6.15721">
        <ele>1996.1999511719</ele>
        <time>2012-12-19T12:17:18.000Z</time>
      </trkpt>
      <trkpt lat="45.28425" lon="6.15753">
        <ele>1987.5999755859</ele>
        <time>2012-12-19T12:17:22.000Z</time>
      </trkpt>
      <trkpt lat="45.28412" lon="6.15783">
        <ele>1978.4000244141</ele>
        <time>2012-12-19T12:17:26.000Z</time>
      </trkpt>
      <trkpt lat="45.28409" lon="6.15791">
        <ele>1975.4000244141</ele>
        <time>2012-12-19T12:17:27.000Z</time>
      </trkpt>
      <trkpt lat="45.28405" lon="6.15819">
        <ele>1968.8000488281</ele>
        <time>2012-12-19T12:17:30.000Z</time>
      </trkpt>
      <trkpt lat="45.28412" lon="6.15857">
        <ele>1961.5999755859</ele>
        <time>2012-12-19T12:17:34.000Z</time>
      </trkpt>
      <trkpt lat="45.28413" lon="6.1586">
        <ele>1960.8000488281</ele>
        <time>2012-12-19T12:17:37.000Z</time>
      </trkpt>
      <trkpt lat="45.28413" lon="6.15859">
        <ele>1960.8000488281</ele>
        <time>2012-12-19T12:17:40.000Z</time>
      </trkpt>
      <trkpt lat="45.28413" lon="6.15851">
        <ele>1960.5999755859</ele>
        <time>2012-12-19T12:17:47.000Z</time>
      </trkpt>
      <trkpt lat="45.2841" lon="6.15846">
        <ele>1960.8000488281</ele>
        <time>2012-12-19T12:17:49.000Z</time>
      </trkpt>
      <trkpt lat="45.28404" lon="6.15848">
        <ele>1960.8000488281</ele>
        <time>2012-12-19T12:18:10.000Z</time>
      </trkpt>
      <trkpt lat="45.28397" lon="6.15837">
        <ele>1960.8000488281</ele>
        <time>2012-12-19T12:19:06.000Z</time>
      </trkpt>
      <trkpt lat="45.28388" lon="6.15839">
        <ele>1961</ele>
        <time>2012-12-19T12:19:19.000Z</time>
      </trkpt>
      <trkpt lat="45.2839" lon="6.15846">
        <ele>1960.8000488281</ele>
        <time>2012-12-19T12:19:22.000Z</time>
      </trkpt>
      <trkpt lat="45.28387" lon="6.15858">
        <ele>1960.1999511719</ele>
        <time>2012-12-19T12:19:27.000Z</time>
      </trkpt>
      <trkpt lat="45.28382" lon="6.15867">
        <ele>1958.8000488281</ele>
        <time>2012-12-19T12:19:29.000Z</time>
      </trkpt>
      <trkpt lat="45.28365" lon="6.15891">
        <ele>1951.8000488281</ele>
        <time>2012-12-19T12:19:34.000Z</time>
      </trkpt>
      <trkpt lat="45.2835" lon="6.15912">
        <ele>1944.8000488281</ele>
        <time>2012-12-19T12:19:38.000Z</time>
      </trkpt>
      <trkpt lat="45.28341" lon="6.15925">
        <ele>1940.1999511719</ele>
        <time>2012-12-19T12:19:41.000Z</time>
      </trkpt>
      <trkpt lat="45.28326" lon="6.15938">
        <ele>1934.8000488281</ele>
        <time>2012-12-19T12:19:44.000Z</time>
      </trkpt>
      <trkpt lat="45.28318" lon="6.15947">
        <ele>1929.4000244141</ele>
        <time>2012-12-19T12:19:47.000Z</time>
      </trkpt>
      <trkpt lat="45.28318" lon="6.15947">
        <ele>1927.8000488281</ele>
        <time>2012-12-19T12:19:50.000Z</time>
      </trkpt>
      <trkpt lat="45.28323" lon="6.15947">
        <ele>1927.4000244141</ele>
        <time>2012-12-19T12:19:56.000Z</time>
      </trkpt>
      <trkpt lat="45.28325" lon="6.15947">
        <ele>1927.8000488281</ele>
        <time>2012-12-19T12:19:59.000Z</time>
      </trkpt>
      <trkpt lat="45.28327" lon="6.15958">
        <ele>1926.5999755859</ele>
        <time>2012-12-19T12:20:29.000Z</time>
      </trkpt>
      <trkpt lat="45.28308" lon="6.15974">
        <ele>1921</ele>
        <time>2012-12-19T12:20:34.000Z</time>
      </trkpt>
      <trkpt lat="45.28304" lon="6.1599">
        <ele>1917.1999511719</ele>
        <time>2012-12-19T12:20:37.000Z</time>
      </trkpt>
      <trkpt lat="45.28309" lon="6.16">
        <ele>1915</ele>
        <time>2012-12-19T12:20:40.000Z</time>
      </trkpt>
      <trkpt lat="45.28322" lon="6.16021">
        <ele>1914.4000244141</ele>
        <time>2012-12-19T12:20:45.000Z</time>
      </trkpt>
      <trkpt lat="45.28329" lon="6.16028">
        <ele>1914.4000244141</ele>
        <time>2012-12-19T12:20:52.000Z</time>
      </trkpt>
      <trkpt lat="45.28335" lon="6.16019">
        <ele>1914.1999511719</ele>
        <time>2012-12-19T12:20:58.000Z</time>
      </trkpt>
      <trkpt lat="45.28326" lon="6.16027">
        <ele>1912</ele>
        <time>2012-12-19T12:21:02.000Z</time>
      </trkpt>
      <trkpt lat="45.28317" lon="6.16031">
        <ele>1909.4000244141</ele>
        <time>2012-12-19T12:21:04.000Z</time>
      </trkpt>
      <trkpt lat="45.28301" lon="6.16045">
        <ele>1901.8000488281</ele>
        <time>2012-12-19T12:21:08.000Z</time>
      </trkpt>
      <trkpt lat="45.28296" lon="6.16055">
        <ele>1896.4000244141</ele>
        <time>2012-12-19T12:21:11.000Z</time>
      </trkpt>
      <trkpt lat="45.28293" lon="6.16051">
        <ele>1892.5999755859</ele>
        <time>2012-12-19T12:21:15.000Z</time>
      </trkpt>
      <trkpt lat="45.28283" lon="6.16043">
        <ele>1891</ele>
        <time>2012-12-19T12:21:36.000Z</time>
      </trkpt>
      <trkpt lat="45.28288" lon="6.16051">
        <ele>1891.4000244141</ele>
        <time>2012-12-19T12:22:45.000Z</time>
      </trkpt>
      <trkpt lat="45.28291" lon="6.16055">
        <ele>1891.4000244141</ele>
        <time>2012-12-19T12:22:47.000Z</time>
      </trkpt>
      <trkpt lat="45.28293" lon="6.16059">
        <ele>1891.1999511719</ele>
        <time>2012-12-19T12:22:51.000Z</time>
      </trkpt>
      <trkpt lat="45.28292" lon="6.16056">
        <ele>1891.1999511719</ele>
        <time>2012-12-19T12:23:01.000Z</time>
      </trkpt>
      <trkpt lat="45.28292" lon="6.16056">
        <ele>1891.1999511719</ele>
        <time>2012-12-19T12:23:02.000Z</time>
      </trkpt>
      <trkpt lat="45.28293" lon="6.16055">
        <ele>1891.4000244141</ele>
        <time>2012-12-19T12:23:06.000Z</time>
      </trkpt>
      <trkpt lat="45.28294" lon="6.16049">
        <ele>1891.1999511719</ele>
        <time>2012-12-19T12:23:14.000Z</time>
      </trkpt>
      <trkpt lat="45.28293" lon="6.16048">
        <ele>1891.1999511719</ele>
        <time>2012-12-19T12:23:16.000Z</time>
      </trkpt>
      <trkpt lat="45.28286" lon="6.16054">
        <ele>1891</ele>
        <time>2012-12-19T12:23:40.000Z</time>
      </trkpt>
      <trkpt lat="45.28284" lon="6.16061">
        <ele>1891</ele>
        <time>2012-12-19T12:23:44.000Z</time>
      </trkpt>
      <trkpt lat="45.28284" lon="6.16061">
        <ele>1891</ele>
        <time>2012-12-19T12:23:46.000Z</time>
      </trkpt>
      <trkpt lat="45.28279" lon="6.16057">
        <ele>1891.8000488281</ele>
        <time>2012-12-19T12:23:55.000Z</time>
      </trkpt>
      <trkpt lat="45.28272" lon="6.16073">
        <ele>1889.1999511719</ele>
        <time>2012-12-19T12:24:13.000Z</time>
      </trkpt>
      <trkpt lat="45.28258" lon="6.16106">
        <ele>1880.8000488281</ele>
        <time>2012-12-19T12:24:18.000Z</time>
      </trkpt>
      <trkpt lat="45.28244" lon="6.16136">
        <ele>1872.4000244141</ele>
        <time>2012-12-19T12:24:23.000Z</time>
      </trkpt>
      <trkpt lat="45.28239" lon="6.16152">
        <ele>1869.1999511719</ele>
        <time>2012-12-19T12:24:26.000Z</time>
      </trkpt>
      <trkpt lat="45.28242" lon="6.16158">
        <ele>1867.5999755859</ele>
        <time>2012-12-19T12:24:29.000Z</time>
      </trkpt>
      <trkpt lat="45.28247" lon="6.16159">
        <ele>1867.5999755859</ele>
        <time>2012-12-19T12:24:35.000Z</time>
      </trkpt>
      <trkpt lat="45.28245" lon="6.1615">
        <ele>1867.5999755859</ele>
        <time>2012-12-19T12:24:39.000Z</time>
      </trkpt>
      <trkpt lat="45.28214" lon="6.16136">
        <ele>1867.8000488281</ele>
        <time>2012-12-19T12:24:47.000Z</time>
      </trkpt>
      <trkpt lat="45.28209" lon="6.16136">
        <ele>1867.8000488281</ele>
        <time>2012-12-19T12:24:51.000Z</time>
      </trkpt>
      <trkpt lat="45.28217" lon="6.16147">
        <ele>1868</ele>
        <time>2012-12-19T12:24:58.000Z</time>
      </trkpt>
      <trkpt lat="45.28199" lon="6.16141">
        <ele>1868.1999511719</ele>
        <time>2012-12-19T12:25:03.000Z</time>
      </trkpt>
      <trkpt lat="45.28166" lon="6.16129">
        <ele>1834.1999511719</ele>
        <time>2012-12-19T12:25:12.000Z</time>
      </trkpt>
      <trkpt lat="45.28163" lon="6.16128">
        <ele>1834</ele>
        <time>2012-12-19T12:25:13.000Z</time>
      </trkpt>
      <trkpt lat="45.28151" lon="6.16119">
        <ele>1834.4000244141</ele>
        <time>2012-12-19T12:25:22.000Z</time>
      </trkpt>
      <trkpt lat="45.28114" lon="6.16108">
        <ele>1834.1999511719</ele>
        <time>2012-12-19T12:25:32.000Z</time>
      </trkpt>
      <trkpt lat="45.28105" lon="6.16102">
        <ele>1834</ele>
        <time>2012-12-19T12:25:38.000Z</time>
      </trkpt>
      <trkpt lat="45.28103" lon="6.16124">
        <ele>1829</ele>
        <time>2012-12-19T12:25:42.000Z</time>
      </trkpt>
      <trkpt lat="45.28108" lon="6.16147">
        <ele>1825</ele>
        <time>2012-12-19T12:25:45.000Z</time>
      </trkpt>
      <trkpt lat="45.28124" lon="6.16178">
        <ele>1820.1999511719</ele>
        <time>2012-12-19T12:25:49.000Z</time>
      </trkpt>
      <trkpt lat="45.28137" lon="6.162">
        <ele>1816.5999755859</ele>
        <time>2012-12-19T12:25:52.000Z</time>
      </trkpt>
      <trkpt lat="45.28143" lon="6.16227">
        <ele>1809.4000244141</ele>
        <time>2012-12-19T12:25:56.000Z</time>
      </trkpt>
      <trkpt lat="45.28142" lon="6.16245">
        <ele>1807.1999511719</ele>
        <time>2012-12-19T12:25:59.000Z</time>
      </trkpt>
      <trkpt lat="45.28144" lon="6.16258">
        <ele>1802.4000244141</ele>
        <time>2012-12-19T12:26:01.000Z</time>
      </trkpt>
      <trkpt lat="45.28132" lon="6.1628">
        <ele>1790.5999755859</ele>
        <time>2012-12-19T12:26:06.000Z</time>
      </trkpt>
      <trkpt lat="45.28123" lon="6.16286">
        <ele>1783.4000244141</ele>
        <time>2012-12-19T12:26:09.000Z</time>
      </trkpt>
      <trkpt lat="45.28115" lon="6.16293">
        <ele>1777.5999755859</ele>
        <time>2012-12-19T12:26:12.000Z</time>
      </trkpt>
      <trkpt lat="45.28096" lon="6.16327">
        <ele>1766</ele>
        <time>2012-12-19T12:26:19.000Z</time>
      </trkpt>
      <trkpt lat="45.28095" lon="6.16328">
        <ele>1765.1999511719</ele>
        <time>2012-12-19T12:26:20.000Z</time>
      </trkpt>
      <trkpt lat="45.28095" lon="6.16331">
        <ele>1764.5999755859</ele>
        <time>2012-12-19T12:26:22.000Z</time>
      </trkpt>
      <trkpt lat="45.28095" lon="6.16331">
        <ele>1764</ele>
        <time>2012-12-19T12:26:24.000Z</time>
      </trkpt>
      <trkpt lat="45.28085" lon="6.16339">
        <ele>1764</ele>
        <time>2012-12-19T12:26:29.000Z</time>
      </trkpt>
      <trkpt lat="45.28068" lon="6.1635">
        <ele>1761</ele>
        <time>2012-12-19T12:26:33.000Z</time>
      </trkpt>
      <trkpt lat="45.28058" lon="6.16357">
        <ele>1759.1999511719</ele>
        <time>2012-12-19T12:26:35.000Z</time>
      </trkpt>
      <trkpt lat="45.28041" lon="6.16374">
        <ele>1756</ele>
        <time>2012-12-19T12:26:39.000Z</time>
      </trkpt>
      <trkpt lat="45.28025" lon="6.16394">
        <ele>1750.8000488281</ele>
        <time>2012-12-19T12:26:43.000Z</time>
      </trkpt>
      <trkpt lat="45.28016" lon="6.16412">
        <ele>1746.1999511719</ele>
        <time>2012-12-19T12:26:46.000Z</time>
      </trkpt>
      <trkpt lat="45.28014" lon="6.16428">
        <ele>1741.8000488281</ele>
        <time>2012-12-19T12:26:48.000Z</time>
      </trkpt>
      <trkpt lat="45.28006" lon="6.16452">
        <ele>1733.4000244141</ele>
        <time>2012-12-19T12:26:52.000Z</time>
      </trkpt>
      <trkpt lat="45.27999" lon="6.16486">
        <ele>1724.1999511719</ele>
        <time>2012-12-19T12:26:57.000Z</time>
      </trkpt>
      <trkpt lat="45.27991" lon="6.16508">
        <ele>1721.1999511719</ele>
        <time>2012-12-19T12:27:01.000Z</time>
      </trkpt>
      <trkpt lat="45.27981" lon="6.1653">
        <ele>1718.5999755859</ele>
        <time>2012-12-19T12:27:04.000Z</time>
      </trkpt>
      <trkpt lat="45.27972" lon="6.16553">
        <ele>1714</ele>
        <time>2012-12-19T12:27:07.000Z</time>
      </trkpt>
      <trkpt lat="45.27961" lon="6.16585">
        <ele>1708.4000244141</ele>
        <time>2012-12-19T12:27:12.000Z</time>
      </trkpt>
      <trkpt lat="45.27959" lon="6.1659">
        <ele>1708.1999511719</ele>
        <time>2012-12-19T12:27:13.000Z</time>
      </trkpt>
      <trkpt lat="45.27956" lon="6.16596">
        <ele>1707.4000244141</ele>
        <time>2012-12-19T12:27:14.000Z</time>
      </trkpt>
      <trkpt lat="45.27948" lon="6.16612">
        <ele>1705.4000244141</ele>
        <time>2012-12-19T12:27:18.000Z</time>
      </trkpt>
      <trkpt lat="45.27946" lon="6.16617">
        <ele>1704.8000488281</ele>
        <time>2012-12-19T12:27:22.000Z</time>
      </trkpt>
      <trkpt lat="45.27945" lon="6.16619">
        <ele>1704.8000488281</ele>
        <time>2012-12-19T12:27:26.000Z</time>
      </trkpt>
      <trkpt lat="45.27945" lon="6.16619">
        <ele>1704.8000488281</ele>
        <time>2012-12-19T12:27:27.000Z</time>
      </trkpt>
      <trkpt lat="45.27948" lon="6.1663">
        <ele>1703.5999755859</ele>
        <time>2012-12-19T12:27:38.000Z</time>
      </trkpt>
      <trkpt lat="45.27949" lon="6.16647">
        <ele>1702.1999511719</ele>
        <time>2012-12-19T12:27:43.000Z</time>
      </trkpt>
      <trkpt lat="45.27951" lon="6.16659">
        <ele>1700.8000488281</ele>
        <time>2012-12-19T12:27:45.000Z</time>
      </trkpt>
      <trkpt lat="45.27958" lon="6.16676">
        <ele>1697.1999511719</ele>
        <time>2012-12-19T12:27:48.000Z</time>
      </trkpt>
      <trkpt lat="45.27963" lon="6.16714">
        <ele>1691.1999511719</ele>
        <time>2012-12-19T12:27:53.000Z</time>
      </trkpt>
      <trkpt lat="45.27974" lon="6.16751">
        <ele>1686.5999755859</ele>
        <time>2012-12-19T12:27:59.000Z</time>
      </trkpt>
      <trkpt lat="45.27977" lon="6.1677">
        <ele>1684.1999511719</ele>
        <time>2012-12-19T12:28:02.000Z</time>
      </trkpt>
      <trkpt lat="45.27974" lon="6.16782">
        <ele>1682.1999511719</ele>
        <time>2012-12-19T12:28:07.000Z</time>
      </trkpt>
      <trkpt lat="45.27975" lon="6.16788">
        <ele>1681.8000488281</ele>
        <time>2012-12-19T12:28:08.000Z</time>
      </trkpt>
      <trkpt lat="45.27982" lon="6.16823">
        <ele>1679.4000244141</ele>
        <time>2012-12-19T12:28:16.000Z</time>
      </trkpt>
      <trkpt lat="45.27985" lon="6.16837">
        <ele>1678.1999511719</ele>
        <time>2012-12-19T12:28:19.000Z</time>
      </trkpt>
      <trkpt lat="45.27982" lon="6.16846">
        <ele>1678.8000488281</ele>
        <time>2012-12-19T12:28:24.000Z</time>
      </trkpt>
      <trkpt lat="45.27981" lon="6.16852">
        <ele>1678.8000488281</ele>
        <time>2012-12-19T12:28:29.000Z</time>
      </trkpt>
      <trkpt lat="45.27984" lon="6.16858">
        <ele>1678</ele>
        <time>2012-12-19T12:28:34.000Z</time>
      </trkpt>
      <trkpt lat="45.27987" lon="6.16859">
        <ele>1679.5999755859</ele>
        <time>2012-12-19T12:28:39.000Z</time>
      </trkpt>
      <trkpt lat="45.27988" lon="6.1686">
        <ele>1679.8000488281</ele>
        <time>2012-12-19T12:28:40.000Z</time>
      </trkpt>
      <trkpt lat="45.27992" lon="6.16873">
        <ele>1678.8000488281</ele>
        <time>2012-12-19T12:28:47.000Z</time>
      </trkpt>
      <trkpt lat="45.27995" lon="6.16886">
        <ele>1678.1999511719</ele>
        <time>2012-12-19T12:28:53.000Z</time>
      </trkpt>
      <trkpt lat="45.27995" lon="6.16889">
        <ele>1678.5999755859</ele>
        <time>2012-12-19T12:28:57.000Z</time>
      </trkpt>
      <trkpt lat="45.27995" lon="6.1689">
        <ele>1678.8000488281</ele>
        <time>2012-12-19T12:29:01.000Z</time>
      </trkpt>
      <trkpt lat="45.27994" lon="6.16894">
        <ele>1679.4000244141</ele>
        <time>2012-12-19T12:29:04.000Z</time>
      </trkpt>
      <trkpt lat="45.27996" lon="6.16899">
        <ele>1679.5999755859</ele>
        <time>2012-12-19T12:29:07.000Z</time>
      </trkpt>
      <trkpt lat="45.27995" lon="6.1691">
        <ele>1679</ele>
        <time>2012-12-19T12:29:14.000Z</time>
      </trkpt>
      <trkpt lat="45.27994" lon="6.16911">
        <ele>1679.1999511719</ele>
        <time>2012-12-19T12:29:16.000Z</time>
      </trkpt>
      <trkpt lat="45.27997" lon="6.16921">
        <ele>1679.1999511719</ele>
        <time>2012-12-19T12:29:31.000Z</time>
      </trkpt>
      <trkpt lat="45.27998" lon="6.16935">
        <ele>1679.1999511719</ele>
        <time>2012-12-19T12:29:38.000Z</time>
      </trkpt>
      <trkpt lat="45.27998" lon="6.16939">
        <ele>1679</ele>
        <time>2012-12-19T12:29:40.000Z</time>
      </trkpt>
      <trkpt lat="45.27999" lon="6.16948">
        <ele>1679.4000244141</ele>
        <time>2012-12-19T12:29:46.000Z</time>
      </trkpt>
      <trkpt lat="45.28" lon="6.16957">
        <ele>1678.5999755859</ele>
        <time>2012-12-19T12:29:49.000Z</time>
      </trkpt>
      <trkpt lat="45.28004" lon="6.16973">
        <ele>1677.1999511719</ele>
        <time>2012-12-19T12:29:53.000Z</time>
      </trkpt>
      <trkpt lat="45.28005" lon="6.16976">
        <ele>1677.4000244141</ele>
        <time>2012-12-19T12:29:57.000Z</time>
      </trkpt>
      <trkpt lat="45.28005" lon="6.16992">
        <ele>1677.4000244141</ele>
        <time>2012-12-19T12:30:03.000Z</time>
      </trkpt>
      <trkpt lat="45.28006" lon="6.16997">
        <ele>1677</ele>
        <time>2012-12-19T12:30:04.000Z</time>
      </trkpt>
      <trkpt lat="45.28012" lon="6.17041">
        <ele>1674.4000244141</ele>
        <time>2012-12-19T12:30:11.000Z</time>
      </trkpt>
      <trkpt lat="45.28017" lon="6.17068">
        <ele>1672.8000488281</ele>
        <time>2012-12-19T12:30:16.000Z</time>
      </trkpt>
      <trkpt lat="45.28023" lon="6.17108">
        <ele>1670.1999511719</ele>
        <time>2012-12-19T12:30:22.000Z</time>
      </trkpt>
      <trkpt lat="45.28022" lon="6.17132">
        <ele>1668.8000488281</ele>
        <time>2012-12-19T12:30:27.000Z</time>
      </trkpt>
      <trkpt lat="45.28012" lon="6.17165">
        <ele>1666.4000244141</ele>
        <time>2012-12-19T12:30:33.000Z</time>
      </trkpt>
      <trkpt lat="45.28002" lon="6.17187">
        <ele>1663.1999511719</ele>
        <time>2012-12-19T12:30:37.000Z</time>
      </trkpt>
      <trkpt lat="45.27999" lon="6.17192">
        <ele>1662.4000244141</ele>
        <time>2012-12-19T12:30:38.000Z</time>
      </trkpt>
      <trkpt lat="45.27993" lon="6.17206">
        <ele>1660.4000244141</ele>
        <time>2012-12-19T12:30:40.000Z</time>
      </trkpt>
      <trkpt lat="45.27981" lon="6.17234">
        <ele>1656.1999511719</ele>
        <time>2012-12-19T12:30:44.000Z</time>
      </trkpt>
      <trkpt lat="45.27976" lon="6.17266">
        <ele>1652</ele>
        <time>2012-12-19T12:30:49.000Z</time>
      </trkpt>
      <trkpt lat="45.27978" lon="6.17276">
        <ele>1651.4000244141</ele>
        <time>2012-12-19T12:30:54.000Z</time>
      </trkpt>
      <trkpt lat="45.27978" lon="6.1728">
        <ele>1651.1999511719</ele>
        <time>2012-12-19T12:30:56.000Z</time>
      </trkpt>
      <trkpt lat="45.27986" lon="6.17296">
        <ele>1650</ele>
        <time>2012-12-19T12:31:02.000Z</time>
      </trkpt>
      <trkpt lat="45.27988" lon="6.17306">
        <ele>1649.4000244141</ele>
        <time>2012-12-19T12:31:04.000Z</time>
      </trkpt>
      <trkpt lat="45.27989" lon="6.17347">
        <ele>1644.8000488281</ele>
        <time>2012-12-19T12:31:11.000Z</time>
      </trkpt>
      <trkpt lat="45.27994" lon="6.17366">
        <ele>1642.4000244141</ele>
        <time>2012-12-19T12:31:16.000Z</time>
      </trkpt>
      <trkpt lat="45.28008" lon="6.17395">
        <ele>1640</ele>
        <time>2012-12-19T12:31:20.000Z</time>
      </trkpt>
      <trkpt lat="45.28017" lon="6.17429">
        <ele>1636.4000244141</ele>
        <time>2012-12-19T12:31:24.000Z</time>
      </trkpt>
      <trkpt lat="45.28021" lon="6.17465">
        <ele>1633</ele>
        <time>2012-12-19T12:31:28.000Z</time>
      </trkpt>
      <trkpt lat="45.28024" lon="6.1749">
        <ele>1631</ele>
        <time>2012-12-19T12:31:31.000Z</time>
      </trkpt>
      <trkpt lat="45.2802" lon="6.1752">
        <ele>1627.8000488281</ele>
        <time>2012-12-19T12:31:35.000Z</time>
      </trkpt>
      <trkpt lat="45.28012" lon="6.17553">
        <ele>1622.8000488281</ele>
        <time>2012-12-19T12:31:40.000Z</time>
      </trkpt>
      <trkpt lat="45.27994" lon="6.17572">
        <ele>1616</ele>
        <time>2012-12-19T12:31:45.000Z</time>
      </trkpt>
      <trkpt lat="45.27975" lon="6.17585">
        <ele>1610.5999755859</ele>
        <time>2012-12-19T12:31:49.000Z</time>
      </trkpt>
      <trkpt lat="45.27968" lon="6.17594">
        <ele>1608.1999511719</ele>
        <time>2012-12-19T12:31:51.000Z</time>
      </trkpt>
      <trkpt lat="45.27965" lon="6.17599">
        <ele>1607.8000488281</ele>
        <time>2012-12-19T12:31:52.000Z</time>
      </trkpt>
      <trkpt lat="45.27962" lon="6.17623">
        <ele>1603</ele>
        <time>2012-12-19T12:31:57.000Z</time>
      </trkpt>
      <trkpt lat="45.27962" lon="6.17627">
        <ele>1603</ele>
        <time>2012-12-19T12:31:58.000Z</time>
      </trkpt>
      <trkpt lat="45.27957" lon="6.17644">
        <ele>1600.4000244141</ele>
        <time>2012-12-19T12:32:02.000Z</time>
      </trkpt>
      <trkpt lat="45.27945" lon="6.17668">
        <ele>1596.8000488281</ele>
        <time>2012-12-19T12:32:07.000Z</time>
      </trkpt>
      <trkpt lat="45.27946" lon="6.17686">
        <ele>1595.5999755859</ele>
        <time>2012-12-19T12:32:10.000Z</time>
      </trkpt>
      <trkpt lat="45.27952" lon="6.17705">
        <ele>1594.8000488281</ele>
        <time>2012-12-19T12:32:15.000Z</time>
      </trkpt>
      <trkpt lat="45.27952" lon="6.17718">
        <ele>1594.5999755859</ele>
        <time>2012-12-19T12:32:24.000Z</time>
      </trkpt>
      <trkpt lat="45.27955" lon="6.17731">
        <ele>1594.1999511719</ele>
        <time>2012-12-19T12:32:28.000Z</time>
      </trkpt>
      <trkpt lat="45.2796" lon="6.1775">
        <ele>1593</ele>
        <time>2012-12-19T12:32:33.000Z</time>
      </trkpt>
      <trkpt lat="45.27961" lon="6.17753">
        <ele>1593.5999755859</ele>
        <time>2012-12-19T12:32:38.000Z</time>
      </trkpt>
      <trkpt lat="45.27969" lon="6.17762">
        <ele>1592.8000488281</ele>
        <time>2012-12-19T12:32:43.000Z</time>
      </trkpt>
      <trkpt lat="45.27974" lon="6.17773">
        <ele>1591</ele>
        <time>2012-12-19T12:32:47.000Z</time>
      </trkpt>
      <trkpt lat="45.27975" lon="6.1779">
        <ele>1590.4000244141</ele>
        <time>2012-12-19T12:32:53.000Z</time>
      </trkpt>
      <trkpt lat="45.27973" lon="6.17805">
        <ele>1590</ele>
        <time>2012-12-19T12:32:58.000Z</time>
      </trkpt>
      <trkpt lat="45.27976" lon="6.17834">
        <ele>1587.1999511719</ele>
        <time>2012-12-19T12:33:02.000Z</time>
      </trkpt>
      <trkpt lat="45.27974" lon="6.17862">
        <ele>1585.5999755859</ele>
        <time>2012-12-19T12:33:06.000Z</time>
      </trkpt>
      <trkpt lat="45.27968" lon="6.17898">
        <ele>1583.4000244141</ele>
        <time>2012-12-19T12:33:11.000Z</time>
      </trkpt>
      <trkpt lat="45.27961" lon="6.17938">
        <ele>1578.5999755859</ele>
        <time>2012-12-19T12:33:16.000Z</time>
      </trkpt>
      <trkpt lat="45.2796" lon="6.17945">
        <ele>1577.4000244141</ele>
        <time>2012-12-19T12:33:17.000Z</time>
      </trkpt>
      <trkpt lat="45.27964" lon="6.17974">
        <ele>1574.1999511719</ele>
        <time>2012-12-19T12:33:22.000Z</time>
      </trkpt>
      <trkpt lat="45.27968" lon="6.17998">
        <ele>1572.5999755859</ele>
        <time>2012-12-19T12:33:27.000Z</time>
      </trkpt>
      <trkpt lat="45.27975" lon="6.18036">
        <ele>1570.1999511719</ele>
        <time>2012-12-19T12:33:34.000Z</time>
      </trkpt>
      <trkpt lat="45.27979" lon="6.18065">
        <ele>1567.8000488281</ele>
        <time>2012-12-19T12:33:38.000Z</time>
      </trkpt>
      <trkpt lat="45.27983" lon="6.18109">
        <ele>1563.5999755859</ele>
        <time>2012-12-19T12:33:42.000Z</time>
      </trkpt>
      <trkpt lat="45.27984" lon="6.1812">
        <ele>1562.1999511719</ele>
        <time>2012-12-19T12:33:43.000Z</time>
      </trkpt>
      <trkpt lat="45.27981" lon="6.18163">
        <ele>1557.4000244141</ele>
        <time>2012-12-19T12:33:48.000Z</time>
      </trkpt>
      <trkpt lat="45.27981" lon="6.1818">
        <ele>1555.8000488281</ele>
        <time>2012-12-19T12:33:51.000Z</time>
      </trkpt>
      <trkpt lat="45.27983" lon="6.18193">
        <ele>1554.8000488281</ele>
        <time>2012-12-19T12:33:53.000Z</time>
      </trkpt>
      <trkpt lat="45.27988" lon="6.18215">
        <ele>1552.8000488281</ele>
        <time>2012-12-19T12:33:56.000Z</time>
      </trkpt>
      <trkpt lat="45.27999" lon="6.1824">
        <ele>1548.4000244141</ele>
        <time>2012-12-19T12:34:00.000Z</time>
      </trkpt>
      <trkpt lat="45.28" lon="6.18246">
        <ele>1547.1999511719</ele>
        <time>2012-12-19T12:34:01.000Z</time>
      </trkpt>
      <trkpt lat="45.28" lon="6.18251">
        <ele>1547.8000488281</ele>
        <time>2012-12-19T12:34:06.000Z</time>
      </trkpt>
      <trkpt lat="45.28001" lon="6.18263">
        <ele>1546.5999755859</ele>
        <time>2012-12-19T12:34:09.000Z</time>
      </trkpt>
      <trkpt lat="45.27992" lon="6.18284">
        <ele>1544</ele>
        <time>2012-12-19T12:34:13.000Z</time>
      </trkpt>
      <trkpt lat="45.27986" lon="6.18291">
        <ele>1543.1999511719</ele>
        <time>2012-12-19T12:34:15.000Z</time>
      </trkpt>
      <trkpt lat="45.27976" lon="6.18301">
        <ele>1543.5999755859</ele>
        <time>2012-12-19T12:34:20.000Z</time>
      </trkpt>
      <trkpt lat="45.27964" lon="6.18324">
        <ele>1541.5999755859</ele>
        <time>2012-12-19T12:34:26.000Z</time>
      </trkpt>
      <trkpt lat="45.27961" lon="6.1833">
        <ele>1541.4000244141</ele>
        <time>2012-12-19T12:34:27.000Z</time>
      </trkpt>
      <trkpt lat="45.27946" lon="6.18359">
        <ele>1537.1999511719</ele>
        <time>2012-12-19T12:34:31.000Z</time>
      </trkpt>
      <trkpt lat="45.27944" lon="6.18367">
        <ele>1536.5999755859</ele>
        <time>2012-12-19T12:34:32.000Z</time>
      </trkpt>
      <trkpt lat="45.27938" lon="6.18387">
        <ele>1533.1999511719</ele>
        <time>2012-12-19T12:34:35.000Z</time>
      </trkpt>
      <trkpt lat="45.27922" lon="6.18403">
        <ele>1528.1999511719</ele>
        <time>2012-12-19T12:34:39.000Z</time>
      </trkpt>
      <trkpt lat="45.27919" lon="6.18405">
        <ele>1526.8000488281</ele>
        <time>2012-12-19T12:34:40.000Z</time>
      </trkpt>
      <trkpt lat="45.27913" lon="6.18413">
        <ele>1525.1999511719</ele>
        <time>2012-12-19T12:34:42.000Z</time>
      </trkpt>
      <trkpt lat="45.27907" lon="6.18428">
        <ele>1522</ele>
        <time>2012-12-19T12:34:45.000Z</time>
      </trkpt>
      <trkpt lat="45.27901" lon="6.18456">
        <ele>1515.5999755859</ele>
        <time>2012-12-19T12:34:49.000Z</time>
      </trkpt>
      <trkpt lat="45.27891" lon="6.18483">
        <ele>1507</ele>
        <time>2012-12-19T12:34:53.000Z</time>
      </trkpt>
      <trkpt lat="45.27887" lon="6.18504">
        <ele>1502</ele>
        <time>2012-12-19T12:34:56.000Z</time>
      </trkpt>
      <trkpt lat="45.2789" lon="6.18521">
        <ele>1499</ele>
        <time>2012-12-19T12:34:59.000Z</time>
      </trkpt>
      <trkpt lat="45.27891" lon="6.18528">
        <ele>1498.1999511719</ele>
        <time>2012-12-19T12:35:00.000Z</time>
      </trkpt>
      <trkpt lat="45.27904" lon="6.18568">
        <ele>1491.4000244141</ele>
        <time>2012-12-19T12:35:07.000Z</time>
      </trkpt>
      <trkpt lat="45.27904" lon="6.18609">
        <ele>1486.1999511719</ele>
        <time>2012-12-19T12:35:12.000Z</time>
      </trkpt>
      <trkpt lat="45.27902" lon="6.18634">
        <ele>1483.5999755859</ele>
        <time>2012-12-19T12:35:15.000Z</time>
      </trkpt>
      <trkpt lat="45.279" lon="6.18652">
        <ele>1480.1999511719</ele>
        <time>2012-12-19T12:35:19.000Z</time>
      </trkpt>
      <trkpt lat="45.27898" lon="6.18668">
        <ele>1478</ele>
        <time>2012-12-19T12:35:22.000Z</time>
      </trkpt>
      <trkpt lat="45.27899" lon="6.18692">
        <ele>1475.4000244141</ele>
        <time>2012-12-19T12:35:26.000Z</time>
      </trkpt>
      <trkpt lat="45.279" lon="6.18709">
        <ele>1474.5999755859</ele>
        <time>2012-12-19T12:35:33.000Z</time>
      </trkpt>
      <trkpt lat="45.27903" lon="6.18731">
        <ele>1473</ele>
        <time>2012-12-19T12:35:37.000Z</time>
      </trkpt>
      <trkpt lat="45.27908" lon="6.1875">
        <ele>1471.8000488281</ele>
        <time>2012-12-19T12:35:40.000Z</time>
      </trkpt>
      <trkpt lat="45.27914" lon="6.1877">
        <ele>1470.5999755859</ele>
        <time>2012-12-19T12:35:45.000Z</time>
      </trkpt>
      <trkpt lat="45.27915" lon="6.18778">
        <ele>1469.5999755859</ele>
        <time>2012-12-19T12:35:51.000Z</time>
      </trkpt>
      <trkpt lat="45.27915" lon="6.18797">
        <ele>1470</ele>
        <time>2012-12-19T12:35:59.000Z</time>
      </trkpt>
      <trkpt lat="45.27912" lon="6.1881">
        <ele>1470</ele>
        <time>2012-12-19T12:36:05.000Z</time>
      </trkpt>
      <trkpt lat="45.27909" lon="6.18816">
        <ele>1469.8000488281</ele>
        <time>2012-12-19T12:36:11.000Z</time>
      </trkpt>
      <trkpt lat="45.27905" lon="6.18823">
        <ele>1469.4000244141</ele>
        <time>2012-12-19T12:36:19.000Z</time>
      </trkpt>
      <trkpt lat="45.27901" lon="6.18831">
        <ele>1469</ele>
        <time>2012-12-19T12:36:27.000Z</time>
      </trkpt>
      <trkpt lat="45.27897" lon="6.18837">
        <ele>1469.5999755859</ele>
        <time>2012-12-19T12:36:33.000Z</time>
      </trkpt>
      <trkpt lat="45.27888" lon="6.18853">
        <ele>1468.1999511719</ele>
        <time>2012-12-19T12:36:40.000Z</time>
      </trkpt>
      <trkpt lat="45.27876" lon="6.18873">
        <ele>1466.5999755859</ele>
        <time>2012-12-19T12:36:45.000Z</time>
      </trkpt>
      <trkpt lat="45.27866" lon="6.18904">
        <ele>1463.8000488281</ele>
        <time>2012-12-19T12:36:49.000Z</time>
      </trkpt>
      <trkpt lat="45.27858" lon="6.18929">
        <ele>1460.4000244141</ele>
        <time>2012-12-19T12:36:53.000Z</time>
      </trkpt>
      <trkpt lat="45.27856" lon="6.18945">
        <ele>1458.5999755859</ele>
        <time>2012-12-19T12:36:55.000Z</time>
      </trkpt>
      <trkpt lat="45.27848" lon="6.18972">
        <ele>1453.5999755859</ele>
        <time>2012-12-19T12:37:00.000Z</time>
      </trkpt>
      <trkpt lat="45.27842" lon="6.18994">
        <ele>1449.1999511719</ele>
        <time>2012-12-19T12:37:04.000Z</time>
      </trkpt>
      <trkpt lat="45.27838" lon="6.19009">
        <ele>1446.1999511719</ele>
        <time>2012-12-19T12:37:07.000Z</time>
      </trkpt>
      <trkpt lat="45.27841" lon="6.19026">
        <ele>1444.1999511719</ele>
        <time>2012-12-19T12:37:10.000Z</time>
      </trkpt>
      <trkpt lat="45.27838" lon="6.19052">
        <ele>1439.8000488281</ele>
        <time>2012-12-19T12:37:17.000Z</time>
      </trkpt>
      <trkpt lat="45.27838" lon="6.1906">
        <ele>1439.1999511719</ele>
        <time>2012-12-19T12:37:19.000Z</time>
      </trkpt>
      <trkpt lat="45.27839" lon="6.19067">
        <ele>1438.5999755859</ele>
        <time>2012-12-19T12:37:23.000Z</time>
      </trkpt>
      <trkpt lat="45.27842" lon="6.19088">
        <ele>1437.5999755859</ele>
        <time>2012-12-19T12:37:29.000Z</time>
      </trkpt>
      <trkpt lat="45.27848" lon="6.191">
        <ele>1436.8000488281</ele>
        <time>2012-12-19T12:37:33.000Z</time>
      </trkpt>
      <trkpt lat="45.27853" lon="6.19122">
        <ele>1434.8000488281</ele>
        <time>2012-12-19T12:37:37.000Z</time>
      </trkpt>
      <trkpt lat="45.27858" lon="6.1916">
        <ele>1432</ele>
        <time>2012-12-19T12:37:42.000Z</time>
      </trkpt>
      <trkpt lat="45.27863" lon="6.19172">
        <ele>1430.1999511719</ele>
        <time>2012-12-19T12:37:44.000Z</time>
      </trkpt>
      <trkpt lat="45.27872" lon="6.19168">
        <ele>1427</ele>
        <time>2012-12-19T12:37:50.000Z</time>
      </trkpt>
      <trkpt lat="45.27878" lon="6.19167">
        <ele>1427</ele>
        <time>2012-12-19T12:37:53.000Z</time>
      </trkpt>
      <trkpt lat="45.27878" lon="6.19171">
        <ele>1427</ele>
        <time>2012-12-19T12:37:58.000Z</time>
      </trkpt>
      <trkpt lat="45.2788" lon="6.1918">
        <ele>1427.1999511719</ele>
        <time>2012-12-19T12:38:20.000Z</time>
      </trkpt>
      <trkpt lat="45.27878" lon="6.19192">
        <ele>1426</ele>
        <time>2012-12-19T12:38:28.000Z</time>
      </trkpt>
      <trkpt lat="45.27877" lon="6.19197">
        <ele>1426.5999755859</ele>
        <time>2012-12-19T12:38:35.000Z</time>
      </trkpt>
      <trkpt lat="45.27876" lon="6.19199">
        <ele>1426.8000488281</ele>
        <time>2012-12-19T12:38:37.000Z</time>
      </trkpt>
      <trkpt lat="45.27874" lon="6.1921">
        <ele>1426.5999755859</ele>
        <time>2012-12-19T12:38:45.000Z</time>
      </trkpt>
      <trkpt lat="45.27876" lon="6.19214">
        <ele>1426.8000488281</ele>
        <time>2012-12-19T12:38:49.000Z</time>
      </trkpt>
      <trkpt lat="45.27879" lon="6.19232">
        <ele>1425.5999755859</ele>
        <time>2012-12-19T12:38:55.000Z</time>
      </trkpt>
      <trkpt lat="45.27881" lon="6.19254">
        <ele>1424.1999511719</ele>
        <time>2012-12-19T12:38:59.000Z</time>
      </trkpt>
      <trkpt lat="45.27884" lon="6.19283">
        <ele>1422.1999511719</ele>
        <time>2012-12-19T12:39:03.000Z</time>
      </trkpt>
      <trkpt lat="45.27886" lon="6.19301">
        <ele>1420.4000244141</ele>
        <time>2012-12-19T12:39:05.000Z</time>
      </trkpt>
      <trkpt lat="45.27889" lon="6.19332">
        <ele>1416.1999511719</ele>
        <time>2012-12-19T12:39:09.000Z</time>
      </trkpt>
      <trkpt lat="45.27889" lon="6.19349">
        <ele>1414.1999511719</ele>
        <time>2012-12-19T12:39:11.000Z</time>
      </trkpt>
      <trkpt lat="45.27896" lon="6.1938">
        <ele>1410</ele>
        <time>2012-12-19T12:39:16.000Z</time>
      </trkpt>
      <trkpt lat="45.27905" lon="6.19403">
        <ele>1405.4000244141</ele>
        <time>2012-12-19T12:39:21.000Z</time>
      </trkpt>
      <trkpt lat="45.27908" lon="6.19406">
        <ele>1405.1999511719</ele>
        <time>2012-12-19T12:39:22.000Z</time>
      </trkpt>
      <trkpt lat="45.27927" lon="6.19417">
        <ele>1401.4000244141</ele>
        <time>2012-12-19T12:39:27.000Z</time>
      </trkpt>
      <trkpt lat="45.27941" lon="6.19435">
        <ele>1399.1999511719</ele>
        <time>2012-12-19T12:39:31.000Z</time>
      </trkpt>
      <trkpt lat="45.27946" lon="6.19445">
        <ele>1398.1999511719</ele>
        <time>2012-12-19T12:39:33.000Z</time>
      </trkpt>
      <trkpt lat="45.27957" lon="6.19468">
        <ele>1396.5999755859</ele>
        <time>2012-12-19T12:39:37.000Z</time>
      </trkpt>
      <trkpt lat="45.27962" lon="6.19478">
        <ele>1395.8000488281</ele>
        <time>2012-12-19T12:39:39.000Z</time>
      </trkpt>
      <trkpt lat="45.27969" lon="6.19491">
        <ele>1394.5999755859</ele>
        <time>2012-12-19T12:39:43.000Z</time>
      </trkpt>
      <trkpt lat="45.27974" lon="6.19498">
        <ele>1394.5999755859</ele>
        <time>2012-12-19T12:39:49.000Z</time>
      </trkpt>
      <trkpt lat="45.27975" lon="6.195">
        <ele>1394.4000244141</ele>
        <time>2012-12-19T12:39:52.000Z</time>
      </trkpt>
      <trkpt lat="45.27979" lon="6.19508">
        <ele>1394.8000488281</ele>
        <time>2012-12-19T12:39:59.000Z</time>
      </trkpt>
      <trkpt lat="45.27979" lon="6.1951">
        <ele>1394.8000488281</ele>
        <time>2012-12-19T12:40:00.000Z</time>
      </trkpt>
      <trkpt lat="45.27983" lon="6.19519">
        <ele>1395.4000244141</ele>
        <time>2012-12-19T12:40:09.000Z</time>
      </trkpt>
      <trkpt lat="45.27988" lon="6.19524">
        <ele>1395.1999511719</ele>
        <time>2012-12-19T12:40:17.000Z</time>
      </trkpt>
      <trkpt lat="45.2799" lon="6.19527">
        <ele>1395.1999511719</ele>
        <time>2012-12-19T12:40:20.000Z</time>
      </trkpt>
      <trkpt lat="45.27992" lon="6.19544">
        <ele>1394.1999511719</ele>
        <time>2012-12-19T12:40:27.000Z</time>
      </trkpt>
      <trkpt lat="45.27996" lon="6.19568">
        <ele>1392.5999755859</ele>
        <time>2012-12-19T12:40:33.000Z</time>
      </trkpt>
      <trkpt lat="45.28004" lon="6.19583">
        <ele>1390.5999755859</ele>
        <time>2012-12-19T12:40:38.000Z</time>
      </trkpt>
      <trkpt lat="45.28007" lon="6.1959">
        <ele>1389</ele>
        <time>2012-12-19T12:40:42.000Z</time>
      </trkpt>
      <trkpt lat="45.28007" lon="6.1959">
        <ele>1388.5999755859</ele>
        <time>2012-12-19T12:40:43.000Z</time>
      </trkpt>
      <trkpt lat="45.28011" lon="6.19584">
        <ele>1388.1999511719</ele>
        <time>2012-12-19T12:40:55.000Z</time>
      </trkpt>
      <trkpt lat="45.28012" lon="6.1959">
        <ele>1388.1999511719</ele>
        <time>2012-12-19T12:41:00.000Z</time>
      </trkpt>
      <trkpt lat="45.28013" lon="6.19594">
        <ele>1386.8000488281</ele>
        <time>2012-12-19T12:41:17.000Z</time>
      </trkpt>
      <trkpt lat="45.28014" lon="6.19598">
        <ele>1387.1999511719</ele>
        <time>2012-12-19T12:41:30.000Z</time>
      </trkpt>
      <trkpt lat="45.28014" lon="6.19598">
        <ele>1387.1999511719</ele>
        <time>2012-12-19T12:41:31.000Z</time>
      </trkpt>
      <trkpt lat="45.28014" lon="6.19608">
        <ele>1385.4000244141</ele>
        <time>2012-12-19T12:41:58.000Z</time>
      </trkpt>
      <trkpt lat="45.28014" lon="6.19608">
        <ele>1384</ele>
        <time>2012-12-19T12:41:59.000Z</time>
      </trkpt>
      <trkpt lat="45.2802" lon="6.19609">
        <ele>1387</ele>
        <time>2012-12-19T12:42:15.000Z</time>
      </trkpt>
      <trkpt lat="45.28022" lon="6.19612">
        <ele>1386.8000488281</ele>
        <time>2012-12-19T12:42:20.000Z</time>
      </trkpt>
      <trkpt lat="45.28026" lon="6.19596">
        <ele>1386.5999755859</ele>
        <time>2012-12-19T12:42:28.000Z</time>
      </trkpt>
      <trkpt lat="45.28026" lon="6.19595">
        <ele>1386.5999755859</ele>
        <time>2012-12-19T12:42:31.000Z</time>
      </trkpt>
      <trkpt lat="45.28026" lon="6.19604">
        <ele>1386.5999755859</ele>
        <time>2012-12-19T12:42:51.000Z</time>
      </trkpt>
      <trkpt lat="45.28029" lon="6.19618">
        <ele>1386.4000244141</ele>
        <time>2012-12-19T12:42:58.000Z</time>
      </trkpt>
      <trkpt lat="45.28031" lon="6.1962">
        <ele>1385</ele>
        <time>2012-12-19T12:43:03.000Z</time>
      </trkpt>
      <trkpt lat="45.28036" lon="6.19617">
        <ele>1391.4000244141</ele>
        <time>2012-12-19T12:52:25.000Z</time>
      </trkpt>
      <trkpt lat="45.28039" lon="6.19626">
        <ele>1390.4000244141</ele>
        <time>2012-12-19T12:52:31.000Z</time>
      </trkpt>
      <trkpt lat="45.28043" lon="6.1964">
        <ele>1389.4000244141</ele>
        <time>2012-12-19T12:52:37.000Z</time>
      </trkpt>
      <trkpt lat="45.28048" lon="6.19656">
        <ele>1387.5999755859</ele>
        <time>2012-12-19T12:52:44.000Z</time>
      </trkpt>
      <trkpt lat="45.28048" lon="6.19657">
        <ele>1387.4000244141</ele>
        <time>2012-12-19T12:52:45.000Z</time>
      </trkpt>
      <trkpt lat="45.28051" lon="6.19666">
        <ele>1386.4000244141</ele>
        <time>2012-12-19T12:52:56.000Z</time>
      </trkpt>
      <trkpt lat="45.28055" lon="6.19675">
        <ele>1388.5999755859</ele>
        <time>2012-12-19T12:53:02.000Z</time>
      </trkpt>
      <trkpt lat="45.28059" lon="6.19685">
        <ele>1385.5999755859</ele>
        <time>2012-12-19T12:53:09.000Z</time>
      </trkpt>
      <trkpt lat="45.28062" lon="6.1969">
        <ele>1386.4000244141</ele>
        <time>2012-12-19T12:53:13.000Z</time>
      </trkpt>
      <trkpt lat="45.28067" lon="6.19701">
        <ele>1386.4000244141</ele>
        <time>2012-12-19T12:53:22.000Z</time>
      </trkpt>
      <trkpt lat="45.28069" lon="6.19706">
        <ele>1384.8000488281</ele>
        <time>2012-12-19T12:53:25.000Z</time>
      </trkpt>
      <trkpt lat="45.28073" lon="6.19715">
        <ele>1383.5999755859</ele>
        <time>2012-12-19T12:53:31.000Z</time>
      </trkpt>
      <trkpt lat="45.28079" lon="6.19726">
        <ele>1383.8000488281</ele>
        <time>2012-12-19T12:53:39.000Z</time>
      </trkpt>
      <trkpt lat="45.28084" lon="6.19737">
        <ele>1382.4000244141</ele>
        <time>2012-12-19T12:53:48.000Z</time>
      </trkpt>
      <trkpt lat="45.28087" lon="6.1975">
        <ele>1381.8000488281</ele>
        <time>2012-12-19T12:53:58.000Z</time>
      </trkpt>
      <trkpt lat="45.2809" lon="6.19765">
        <ele>1382.5999755859</ele>
        <time>2012-12-19T12:54:11.000Z</time>
      </trkpt>
      <trkpt lat="45.28089" lon="6.19776">
        <ele>1382.1999511719</ele>
        <time>2012-12-19T12:54:19.000Z</time>
      </trkpt>
      <trkpt lat="45.28088" lon="6.19778">
        <ele>1382.1999511719</ele>
        <time>2012-12-19T12:54:21.000Z</time>
      </trkpt>
      <trkpt lat="45.28086" lon="6.19785">
        <ele>1381.5999755859</ele>
        <time>2012-12-19T12:54:34.000Z</time>
      </trkpt>
      <trkpt lat="45.28084" lon="6.19794">
        <ele>1381.4000244141</ele>
        <time>2012-12-19T12:54:41.000Z</time>
      </trkpt>
      <trkpt lat="45.28086" lon="6.19807">
        <ele>1380.8000488281</ele>
        <time>2012-12-19T12:54:51.000Z</time>
      </trkpt>
      <trkpt lat="45.28088" lon="6.19818">
        <ele>1380.1999511719</ele>
        <time>2012-12-19T12:55:00.000Z</time>
      </trkpt>
      <trkpt lat="45.2809" lon="6.19825">
        <ele>1380.1999511719</ele>
        <time>2012-12-19T12:55:09.000Z</time>
      </trkpt>
      <trkpt lat="45.28093" lon="6.19832">
        <ele>1380</ele>
        <time>2012-12-19T12:55:20.000Z</time>
      </trkpt>
      <trkpt lat="45.28098" lon="6.19845">
        <ele>1380</ele>
        <time>2012-12-19T12:55:34.000Z</time>
      </trkpt>
      <trkpt lat="45.28102" lon="6.19854">
        <ele>1379.8000488281</ele>
        <time>2012-12-19T12:55:44.000Z</time>
      </trkpt>
      <trkpt lat="45.28106" lon="6.19858">
        <ele>1380</ele>
        <time>2012-12-19T12:55:52.000Z</time>
      </trkpt>
      <trkpt lat="45.28108" lon="6.1986">
        <ele>1379.8000488281</ele>
        <time>2012-12-19T12:55:56.000Z</time>
      </trkpt>
      <trkpt lat="45.28113" lon="6.19861">
        <ele>1379.4000244141</ele>
        <time>2012-12-19T12:56:03.000Z</time>
      </trkpt>
      <trkpt lat="45.28114" lon="6.19867">
        <ele>1378.1999511719</ele>
        <time>2012-12-19T12:56:10.000Z</time>
      </trkpt>
      <trkpt lat="45.28113" lon="6.19868">
        <ele>1378.1999511719</ele>
        <time>2012-12-19T12:56:11.000Z</time>
      </trkpt>
      <trkpt lat="45.28112" lon="6.19876">
        <ele>1377</ele>
        <time>2012-12-19T12:56:37.000Z</time>
      </trkpt>
      <trkpt lat="45.28111" lon="6.19884">
        <ele>1378.5999755859</ele>
        <time>2012-12-19T12:57:20.000Z</time>
      </trkpt>
      <trkpt lat="45.2811" lon="6.19886">
        <ele>1378.5999755859</ele>
        <time>2012-12-19T12:57:24.000Z</time>
      </trkpt>
      <trkpt lat="45.28108" lon="6.1989">
        <ele>1377.5999755859</ele>
        <time>2012-12-19T12:57:30.000Z</time>
      </trkpt>
      <trkpt lat="45.28109" lon="6.19893">
        <ele>1377.5999755859</ele>
        <time>2012-12-19T13:04:55.000Z</time>
      </trkpt>
      <trkpt lat="45.28109" lon="6.19899">
        <ele>1381.4000244141</ele>
        <time>2012-12-19T13:05:18.000Z</time>
      </trkpt>
      <trkpt lat="45.28105" lon="6.19908">
        <ele>1380.8000488281</ele>
        <time>2012-12-19T13:05:21.000Z</time>
      </trkpt>
      <trkpt lat="45.28096" lon="6.19933">
        <ele>1377.5999755859</ele>
        <time>2012-12-19T13:05:25.000Z</time>
      </trkpt>
      <trkpt lat="45.28096" lon="6.19942">
        <ele>1376.1999511719</ele>
        <time>2012-12-19T13:05:26.000Z</time>
      </trkpt>
      <trkpt lat="45.28098" lon="6.19961">
        <ele>1373.1999511719</ele>
        <time>2012-12-19T13:05:28.000Z</time>
      </trkpt>
      <trkpt lat="45.28104" lon="6.19993">
        <ele>1368</ele>
        <time>2012-12-19T13:05:33.000Z</time>
      </trkpt>
      <trkpt lat="45.28116" lon="6.20021">
        <ele>1365</ele>
        <time>2012-12-19T13:05:39.000Z</time>
      </trkpt>
      <trkpt lat="45.28126" lon="6.20043">
        <ele>1363.1999511719</ele>
        <time>2012-12-19T13:05:43.000Z</time>
      </trkpt>
      <trkpt lat="45.28131" lon="6.20056">
        <ele>1361.8000488281</ele>
        <time>2012-12-19T13:05:45.000Z</time>
      </trkpt>
      <trkpt lat="45.2814" lon="6.20072">
        <ele>1360</ele>
        <time>2012-12-19T13:05:48.000Z</time>
      </trkpt>
      <trkpt lat="45.28156" lon="6.20099">
        <ele>1354.1999511719</ele>
        <time>2012-12-19T13:05:53.000Z</time>
      </trkpt>
      <trkpt lat="45.28173" lon="6.20127">
        <ele>1348</ele>
        <time>2012-12-19T13:05:59.000Z</time>
      </trkpt>
      <trkpt lat="45.28187" lon="6.20136">
        <ele>1345.8000488281</ele>
        <time>2012-12-19T13:06:02.000Z</time>
      </trkpt>
      <trkpt lat="45.28198" lon="6.20156">
        <ele>1342.4000244141</ele>
        <time>2012-12-19T13:06:05.000Z</time>
      </trkpt>
      <trkpt lat="45.28213" lon="6.20195">
        <ele>1337.1999511719</ele>
        <time>2012-12-19T13:06:10.000Z</time>
      </trkpt>
      <trkpt lat="45.28217" lon="6.20203">
        <ele>1334.1999511719</ele>
        <time>2012-12-19T13:06:11.000Z</time>
      </trkpt>
      <trkpt lat="45.28223" lon="6.20223">
        <ele>1329.5999755859</ele>
        <time>2012-12-19T13:06:15.000Z</time>
      </trkpt>
      <trkpt lat="45.28224" lon="6.20224">
        <ele>1329.4000244141</ele>
        <time>2012-12-19T13:06:18.000Z</time>
      </trkpt>
      <trkpt lat="45.28224" lon="6.20227">
        <ele>1328.8000488281</ele>
        <time>2012-12-19T13:06:25.000Z</time>
      </trkpt>
      <trkpt lat="45.28228" lon="6.2024">
        <ele>1328.1999511719</ele>
        <time>2012-12-19T13:06:31.000Z</time>
      </trkpt>
      <trkpt lat="45.28235" lon="6.20265">
        <ele>1325.8000488281</ele>
        <time>2012-12-19T13:06:37.000Z</time>
      </trkpt>
      <trkpt lat="45.28237" lon="6.20271">
        <ele>1325.5999755859</ele>
        <time>2012-12-19T13:06:38.000Z</time>
      </trkpt>
      <trkpt lat="45.28239" lon="6.20277">
        <ele>1324.8000488281</ele>
        <time>2012-12-19T13:06:39.000Z</time>
      </trkpt>
      <trkpt lat="45.28251" lon="6.20312">
        <ele>1319</ele>
        <time>2012-12-19T13:06:44.000Z</time>
      </trkpt>
      <trkpt lat="45.28268" lon="6.20322">
        <ele>1314.4000244141</ele>
        <time>2012-12-19T13:06:49.000Z</time>
      </trkpt>
      <trkpt lat="45.28273" lon="6.20319">
        <ele>1313.5999755859</ele>
        <time>2012-12-19T13:06:51.000Z</time>
      </trkpt>
      <trkpt lat="45.28276" lon="6.20322">
        <ele>1312.4000244141</ele>
        <time>2012-12-19T13:06:55.000Z</time>
      </trkpt>
      <trkpt lat="45.28278" lon="6.20334">
        <ele>1312.8000488281</ele>
        <time>2012-12-19T13:07:03.000Z</time>
      </trkpt>
      <trkpt lat="45.2828" lon="6.20354">
        <ele>1311.5999755859</ele>
        <time>2012-12-19T13:07:08.000Z</time>
      </trkpt>
      <trkpt lat="45.28287" lon="6.20364">
        <ele>1309.8000488281</ele>
        <time>2012-12-19T13:07:11.000Z</time>
      </trkpt>
      <trkpt lat="45.28296" lon="6.20364">
        <ele>1308.4000244141</ele>
        <time>2012-12-19T13:07:13.000Z</time>
      </trkpt>
      <trkpt lat="45.28324" lon="6.20358">
        <ele>1306.5999755859</ele>
        <time>2012-12-19T13:07:17.000Z</time>
      </trkpt>
      <trkpt lat="45.28319" lon="6.20356">
        <ele>1306.4000244141</ele>
        <time>2012-12-19T13:07:19.000Z</time>
      </trkpt>
      <trkpt lat="45.28316" lon="6.20357">
        <ele>1306.5999755859</ele>
        <time>2012-12-19T13:07:23.000Z</time>
      </trkpt>
      <trkpt lat="45.28315" lon="6.20363">
        <ele>1306.8000488281</ele>
        <time>2012-12-19T13:08:37.000Z</time>
      </trkpt>
      <trkpt lat="45.28315" lon="6.20364">
        <ele>1306.4000244141</ele>
        <time>2012-12-19T13:08:40.000Z</time>
      </trkpt>
      <trkpt lat="45.28314" lon="6.20374">
        <ele>1306.1999511719</ele>
        <time>2012-12-19T13:08:51.000Z</time>
      </trkpt>
      <trkpt lat="45.28307" lon="6.20386">
        <ele>1304.5999755859</ele>
        <time>2012-12-19T13:08:54.000Z</time>
      </trkpt>
      <trkpt lat="45.28302" lon="6.20416">
        <ele>1300.5999755859</ele>
        <time>2012-12-19T13:08:59.000Z</time>
      </trkpt>
      <trkpt lat="45.28312" lon="6.20446">
        <ele>1295.4000244141</ele>
        <time>2012-12-19T13:09:05.000Z</time>
      </trkpt>
      <trkpt lat="45.28314" lon="6.20458">
        <ele>1294.4000244141</ele>
        <time>2012-12-19T13:09:07.000Z</time>
      </trkpt>
      <trkpt lat="45.2832" lon="6.20488">
        <ele>1290.8000488281</ele>
        <time>2012-12-19T13:09:12.000Z</time>
      </trkpt>
      <trkpt lat="45.28325" lon="6.20503">
        <ele>1288.1999511719</ele>
        <time>2012-12-19T13:09:15.000Z</time>
      </trkpt>
      <trkpt lat="45.2833" lon="6.20542">
        <ele>1283.8000488281</ele>
        <time>2012-12-19T13:09:20.000Z</time>
      </trkpt>
      <trkpt lat="45.28336" lon="6.20581">
        <ele>1280</ele>
        <time>2012-12-19T13:09:25.000Z</time>
      </trkpt>
      <trkpt lat="45.28342" lon="6.20598">
        <ele>1278.8000488281</ele>
        <time>2012-12-19T13:09:29.000Z</time>
      </trkpt>
      <trkpt lat="45.28346" lon="6.20608">
        <ele>1278.4000244141</ele>
        <time>2012-12-19T13:09:35.000Z</time>
      </trkpt>
      <trkpt lat="45.28346" lon="6.20611">
        <ele>1278.1999511719</ele>
        <time>2012-12-19T13:09:39.000Z</time>
      </trkpt>
      <trkpt lat="45.28347" lon="6.20615">
        <ele>1277.5999755859</ele>
        <time>2012-12-19T13:09:41.000Z</time>
      </trkpt>
      <trkpt lat="45.28346" lon="6.20625">
        <ele>1274.5999755859</ele>
        <time>2012-12-19T13:09:46.000Z</time>
      </trkpt>
      <trkpt lat="45.28346" lon="6.20626">
        <ele>1274.4000244141</ele>
        <time>2012-12-19T13:09:47.000Z</time>
      </trkpt>
      <trkpt lat="45.28347" lon="6.20624">
        <ele>1274.5999755859</ele>
        <time>2012-12-19T13:11:01.000Z</time>
      </trkpt>
      <trkpt lat="45.28344" lon="6.20647">
        <ele>1272</ele>
        <time>2012-12-19T13:12:36.000Z</time>
      </trkpt>
      <trkpt lat="45.28345" lon="6.20655">
        <ele>1270.5999755859</ele>
        <time>2012-12-19T13:12:40.000Z</time>
      </trkpt>
      <trkpt lat="45.28347" lon="6.20667">
        <ele>1270.4000244141</ele>
        <time>2012-12-19T13:12:45.000Z</time>
      </trkpt>
      <trkpt lat="45.28348" lon="6.20681">
        <ele>1267.8000488281</ele>
        <time>2012-12-19T13:12:48.000Z</time>
      </trkpt>
      <trkpt lat="45.2835" lon="6.20703">
        <ele>1262</ele>
        <time>2012-12-19T13:12:52.000Z</time>
      </trkpt>
      <trkpt lat="45.28352" lon="6.20714">
        <ele>1259.4000244141</ele>
        <time>2012-12-19T13:12:55.000Z</time>
      </trkpt>
      <trkpt lat="45.28347" lon="6.20726">
        <ele>1256.4000244141</ele>
        <time>2012-12-19T13:12:58.000Z</time>
      </trkpt>
      <trkpt lat="45.28349" lon="6.20738">
        <ele>1253</ele>
        <time>2012-12-19T13:13:01.000Z</time>
      </trkpt>
      <trkpt lat="45.28349" lon="6.20741">
        <ele>1251.4000244141</ele>
        <time>2012-12-19T13:13:04.000Z</time>
      </trkpt>
      <trkpt lat="45.28347" lon="6.20748">
        <ele>1249.5999755859</ele>
        <time>2012-12-19T13:13:08.000Z</time>
      </trkpt>
      <trkpt lat="45.28345" lon="6.20759">
        <ele>1248.5999755859</ele>
        <time>2012-12-19T13:13:10.000Z</time>
      </trkpt>
      <trkpt lat="45.28338" lon="6.20777">
        <ele>1243.1999511719</ele>
        <time>2012-12-19T13:13:13.000Z</time>
      </trkpt>
      <trkpt lat="45.28334" lon="6.20792">
        <ele>1238.8000488281</ele>
        <time>2012-12-19T13:13:15.000Z</time>
      </trkpt>
      <trkpt lat="45.28337" lon="6.20817">
        <ele>1232.1999511719</ele>
        <time>2012-12-19T13:13:19.000Z</time>
      </trkpt>
      <trkpt lat="45.28341" lon="6.20832">
        <ele>1229</ele>
        <time>2012-12-19T13:13:22.000Z</time>
      </trkpt>
      <trkpt lat="45.28346" lon="6.20851">
        <ele>1225.1999511719</ele>
        <time>2012-12-19T13:13:26.000Z</time>
      </trkpt>
      <trkpt lat="45.28345" lon="6.20866">
        <ele>1223</ele>
        <time>2012-12-19T13:13:29.000Z</time>
      </trkpt>
      <trkpt lat="45.28347" lon="6.20877">
        <ele>1220.8000488281</ele>
        <time>2012-12-19T13:13:31.000Z</time>
      </trkpt>
      <trkpt lat="45.28357" lon="6.20923">
        <ele>1212.8000488281</ele>
        <time>2012-12-19T13:13:38.000Z</time>
      </trkpt>
      <trkpt lat="45.28361" lon="6.20931">
        <ele>1210</ele>
        <time>2012-12-19T13:13:42.000Z</time>
      </trkpt>
      <trkpt lat="45.28364" lon="6.20935">
        <ele>1208.8000488281</ele>
        <time>2012-12-19T13:13:46.000Z</time>
      </trkpt>
      <trkpt lat="45.28367" lon="6.20942">
        <ele>1208</ele>
        <time>2012-12-19T13:13:54.000Z</time>
      </trkpt>
      <trkpt lat="45.28367" lon="6.20943">
        <ele>1207.8000488281</ele>
        <time>2012-12-19T13:13:55.000Z</time>
      </trkpt>
      <trkpt lat="45.2837" lon="6.20944">
        <ele>1207.4000244141</ele>
        <time>2012-12-19T13:14:01.000Z</time>
      </trkpt>
      <trkpt lat="45.28377" lon="6.20942">
        <ele>1206.8000488281</ele>
        <time>2012-12-19T13:14:32.000Z</time>
      </trkpt>
      <trkpt lat="45.28377" lon="6.20944">
        <ele>1207</ele>
        <time>2012-12-19T13:14:33.000Z</time>
      </trkpt>
      <trkpt lat="45.2838" lon="6.20956">
        <ele>1205</ele>
        <time>2012-12-19T13:14:41.000Z</time>
      </trkpt>
      <trkpt lat="45.28381" lon="6.20971">
        <ele>1204</ele>
        <time>2012-12-19T13:14:49.000Z</time>
      </trkpt>
      <trkpt lat="45.28382" lon="6.20975">
        <ele>1203.1999511719</ele>
        <time>2012-12-19T13:14:51.000Z</time>
      </trkpt>
      <trkpt lat="45.28382" lon="6.20979">
        <ele>1202.5999755859</ele>
        <time>2012-12-19T13:14:53.000Z</time>
      </trkpt>
      <trkpt lat="45.28383" lon="6.20985">
        <ele>1202</ele>
        <time>2012-12-19T13:14:58.000Z</time>
      </trkpt>
      <trkpt lat="45.28383" lon="6.20984">
        <ele>1201.8000488281</ele>
        <time>2012-12-19T13:14:59.000Z</time>
      </trkpt>
      <trkpt lat="45.28388" lon="6.20996">
        <ele>1200.5999755859</ele>
        <time>2012-12-19T13:15:09.000Z</time>
      </trkpt>
      <trkpt lat="45.28392" lon="6.21011">
        <ele>1199.5999755859</ele>
        <time>2012-12-19T13:15:17.000Z</time>
      </trkpt>
      <trkpt lat="45.28394" lon="6.21025">
        <ele>1198.8000488281</ele>
        <time>2012-12-19T13:15:24.000Z</time>
      </trkpt>
      <trkpt lat="45.28398" lon="6.21033">
        <ele>1198</ele>
        <time>2012-12-19T13:15:29.000Z</time>
      </trkpt>
      <trkpt lat="45.28399" lon="6.21036">
        <ele>1197.4000244141</ele>
        <time>2012-12-19T13:15:31.000Z</time>
      </trkpt>
      <trkpt lat="45.284" lon="6.2104">
        <ele>1197.1999511719</ele>
        <time>2012-12-19T13:15:35.000Z</time>
      </trkpt>
      <trkpt lat="45.28399" lon="6.21041">
        <ele>1196.8000488281</ele>
        <time>2012-12-19T13:15:37.000Z</time>
      </trkpt>
      <trkpt lat="45.28393" lon="6.2104">
        <ele>1194.8000488281</ele>
        <time>2012-12-19T13:15:44.000Z</time>
      </trkpt>
      <trkpt lat="45.2839" lon="6.21049">
        <ele>1194.8000488281</ele>
        <time>2012-12-19T13:15:51.000Z</time>
      </trkpt>
      <trkpt lat="45.28395" lon="6.21048">
        <ele>1193.8000488281</ele>
        <time>2012-12-19T13:15:57.000Z</time>
      </trkpt>
      <trkpt lat="45.28395" lon="6.21047">
        <ele>1193.8000488281</ele>
        <time>2012-12-19T13:15:58.000Z</time>
      </trkpt>
    </trkseg>
  </trk>
</gpx>